     2.10           OBSERVATION DATA    G (GPS)             RINEX VERSION / TYPE
teqc 2005Sep1 20060522 13:34:27UTC                          PGM / RUN BY / DATE
MSXP|IAx86-PII|bcc32 5.0|MSWin95->XP|486/DX+                COMMENT
JPS2RIN 1.40 RUN BY 22-MAY-06 15:11                         COMMENT
build Feb 6 2004 (c) Javad Navigation Systems               COMMENT
Use -p (profile) switch to override ANTENNA TYPE and DELTA  COMMENT
and other fields                                            COMMENT
TAB0505a.jps                                                COMMENT
SE TPS 00000000                                             COMMENT
TAB0505a_3541                                               MARKER NAME
OBSERVER AGENCY                                             OBSERVER / AGENCY
MT311233541 TPS LEGACY 2.3 Apr,28,2004 p4                   REC # / TYPE / VERS
TAB0505a -Unknown-                                          ANT # / TYPE
   539761.1205 -1388817.0829  6180920.6447                  APPROX POSITION XYZ
        0.0000        0.0000        0.0000                  ANTENNA: DELTA H/E/N
     1     1                                                WAVELENGTH FACT L1/2
     7    C1    P1    P2    L1    L2    D1    D2            # / TYPES OF OBSERV
    30.0000                                                 INTERVAL
Forced Modulo Decimation to 30 seconds                      COMMENT
teqc windowed: start @ 2006 May 5 12:14:00.000              COMMENT
  2006     5     5    12    14    0.0000000     GPS         TIME OF FIRST OBS
                                                            END OF HEADER
 06  5  5 12 14  0.0000000  0  9G 1G 2G 4G 5G17G20G23G24G30
  22814236.149    22814235.2544   22814237.1934  119889604.588 6  93420495.05643
     -1869.214       -1456.563
  21462801.770    21462802.0874   21462799.3494  112787787.213 7  87886600.29445
      3470.070        2703.952
  20058635.698    20058636.0194   20058637.2574  105408841.558 8  82136775.23846
       956.973         745.696
  21312829.905    21312829.8884   21312831.1364  111999680.230 7  87272491.18144
      -794.064        -618.750
  23124229.547    23124232.0704   23124232.6374  121518654.053 6  94689871.96242
     -3309.993       -2579.208
  21700349.090    21700348.8614   21700349.5674  114036097.972 7  88859314.56744
     -1947.110       -1517.191
  22269553.823    22269553.1274   22269554.0224  117027299.360 6  91190114.21443
      2909.365        2267.016
  20954212.698    20954212.3324   20954214.5994  110115132.183 8  85804012.51445
     -1481.227       -1154.203
  21373385.735    21373385.8904   21373384.4784  112317903.214 7  87520456.90344
      1700.005        1324.673
 06  5  5 12 14 30.0000000  0  9G 1G 2G 4G 5G17G20G23G24G30
  23424538.820    23424538.2584   23424540.4704  123096769.340 6  95919584.41743
     -1889.110       -1471.997
  22042616.277    22042616.5274   22042615.9794  115834731.787 7  90260842.83845
      3453.351        2690.909
  20652816.940    20652817.2684   20652818.5534  108531284.910 8  84569848.01546
       933.115         727.107
  21917008.027    21917008.2734   21917009.8824  115174658.846 7  89746500.49144
      -818.406        -637.701
  23742733.049    23742731.6624   23742733.6254  124768895.497 6  97222527.59743
     -3320.415       -2587.380
  22311097.828    22311097.3234   22311098.5614  117245602.148 7  91360226.94544
     -1967.285       -1532.962
  22852578.916    22852578.9364   22852577.3964  120091118.125 6  93577505.38543
      2889.333        2251.424
  21562299.665    21562299.4474   21562301.9784  113310650.665 8  88294026.77945
     -1500.606       -1169.304
  21963328.418    21963329.0984   21963329.8674  115418073.264 7  89936173.81144
      1675.064        1305.240
 06  5  5 12 15  0.0000000  0 10G 1G 2G 4G 5G17G20G23G24G25G30
  23435390.357    23435390.3674   23435392.1304  123153795.258 6  95964020.13243
     -1911.951       -1489.839
  22022961.225    22022961.2454   22022960.2984  115731441.291 7  90180356.70345
      3433.177        2675.200
  20647569.142    20647569.5154   20647570.8614  108503707.806 8  84548359.36346
       905.936         705.914
  21921760.810    21921760.9744   21921763.0224  115199634.158 7  89765961.70744
      -846.017        -659.226
  23761727.546    23761727.1834   23761730.4134  124868720.612 5  97300313.34043
     -3333.950       -2597.869
  22322396.643    22322396.4934   22322397.8314  117304980.360 7  91406495.63844
     -1990.596       -1551.115
  22836152.918    22836152.6874   22836151.5374  120004798.182 6  93510243.11043
      2866.028        2233.292
  21570932.285    21570932.5454   21570934.8174  113356016.418 8  88329376.69545
     -1523.110       -1186.839
  23435210.742    23435210.4704   23435212.4914  123152850.587 6  95963279.48743
      1851.429        1442.676
  21953848.211    21953848.9324   21953849.7684  115368254.265 7  89897353.81144
      1646.836        1283.251
 06  5  5 12 15 30.0000000  0 10G 1G 2G 4G 5G17G20G23G24G25G30
  23446366.800    23446367.4914   23446369.7334  123211479.893 6  96008969.14643
     -1933.089       -1506.306
  22003415.413    22003415.7764   22003415.0444  115628728.494 7  90100320.73845
      3414.617        2660.736
  20642470.988    20642471.2754   20642472.5354  108476916.148 8  84527482.74046
       880.594         686.180
  21926665.204    21926665.1204   21926667.2214  115225406.810 7  89786044.23544
      -871.764        -679.293
  23780796.193    23780795.8074   23780798.0024  124968923.719 5  97378393.55143
     -3346.162       -2607.395
  22333823.627    22333823.2504   22333824.9194  117365030.384 7  91453287.86544
     -2012.185       -1567.917
  22819854.794    22819854.6994   22819853.7794  119919151.803 6  93443505.76943
      2844.162        2216.214
  21579688.272    21579688.1254   21579690.4944  113402028.016 7  88365229.90545
     -1543.830       -1202.978
  23424705.048    23424705.9944   23424708.1794  123097653.489 6  95920268.76143
      1828.850        1425.070
  21944524.077    21944524.5354   21944525.3844  115319254.192 7  89859171.93744
      1620.322        1262.588
 06  5  5 12 16  0.0000000  0 10G 1G 2G 4G 5G17G20G23G24G25G30
  23457461.627    23457460.9204   23457463.3484  123269777.116 6  96054395.50243
     -1954.235       -1522.766
  21983972.463    21983972.3994   21983971.5854  115526551.985 7  90020702.65945
      3396.169        2646.354
  20637514.024    20637514.3424   20637515.6294  108450866.741 8  84507184.47946
       855.308         666.458
  21931713.176    21931713.0084   21931714.4334  115251931.695 7  89806712.95544
      -897.412        -699.288
  23799925.846    23799927.0414   23799929.9484  125069459.021 5  97456732.61743
     -3357.411       -2616.168
  22345370.039    22345369.8484   22345371.5504  117425705.801 7  91500567.32444
     -2033.683       -1584.686
  22803677.165    22803677.3554   22803675.1274  119834137.219 6  93377260.64343
      2822.431        2199.314
  21588557.730    21588557.9134   21588560.5364  113448639.632 8  88401550.64345
     -1564.376       -1218.998
  23414327.774    23414328.4194   23414329.6044  123043115.002 6  95877771.27843
      1806.109        1407.340
  21935347.341    21935347.8854   21935348.6714  115271030.620 7  89821595.08944
      1593.721        1241.856
 06  5  5 12 16 30.0000000  0 10G 1G 2G 4G 5G17G20G23G24G25G30
  23468678.654    23468678.8054   23468681.3024  123328727.378 6  96100330.70843
     -1975.906       -1539.675
  21964639.062    21964639.1354   21964638.3064  115424956.930 7  89941537.68545
      3376.744        2631.242
  20632706.492    20632706.8114   20632707.9724  108425602.728 8  84487498.33946
       829.092         646.045
  21936912.148    21936911.1634   21936913.1494  115279250.008 7  89827999.92244
      -923.884        -719.912
  23819131.439    23819129.4854   23819131.4384  125170366.711 6  97535361.90243
     -3369.791       -2625.851
  22357043.053    22357042.7024   22357043.8544  117487046.942 7  91548365.59844
     -2055.754       -1601.880
  22787628.594    22787628.1374   22787626.7074  119749799.647 6  93311542.94244
      2799.879        2181.740
  21597549.677    21597549.9974   21597552.4324  113495892.587 8  88438371.12545
     -1585.766       -1235.670
  23404081.744    23404083.3894   23404085.0164  122989279.351 6  95835821.41643
      1782.699        1389.091
  21926326.871    21926327.2294   21926328.3604  115223627.676 7  89784657.70744
      1566.326        1220.503
 06  5  5 12 17  0.0000000  0 10G 1G 2G 4G 5G17G20G23G24G25G30
  23480020.846    23480020.8924   23480022.8784  123388331.062 6  96146775.09643
     -1997.998       -1556.882
  21945417.868    21945417.9364   21945417.5074  115323948.724 7  89862830.03945
      3356.912        2615.774
  20628048.666    20628049.1264   20628050.3594  108401126.860 8  84468426.22446
       802.439         625.283
  21942261.970    21942260.9964   21942263.3004  115307363.358 7  89849906.48044
      -950.601        -740.712
  23838402.712    23838402.8634   23838404.8514  125271647.479 6  97614281.88243
     -3382.461       -2635.654
  22368842.350    22368842.1754   22368844.1594  117549054.468 7  91596683.21144
     -2078.343       -1619.493
  22771709.540    22771709.2254   22771708.1684  119666145.250 6  93246357.84244
      2776.806        2163.734
  21606663.965    21606664.1284   21606666.8054  113543788.062 7  88475692.26245
     -1607.491       -1252.575
  23393973.354    23393974.0314   23393975.2464  122936150.779 6  95794422.49243
      1758.684        1370.403
  21917463.367    21917463.7474   21917464.7444  115177049.678 7  89748363.11344
      1538.468        1198.817
 06  5  5 12 17 30.0000000  0 10G 1G 2G 4G 5G17G20G23G24G25G30
  23491492.997    23491494.4944   23491496.7444  123448623.436 5  96193756.13443
     -2022.590       -1576.034
  21926316.325    21926316.0504   21926315.8004  115223567.154 7  89784610.71045
      3334.404        2598.248
  20623548.139    20623548.6594   20623549.9124  108377477.139 8  84449997.91046
       773.228         602.515
  21947769.463    21947769.3034   21947770.8074  115336307.700 7  89872460.59444
      -979.857        -763.517
  23857753.265    23857754.3034   23857755.9304  125373336.635 5  97693520.14243
     -3397.731       -2647.599
  22380775.933    22380775.2544   22380777.3694  117611763.510 7  91645547.43344
     -2103.320       -1638.941
  22755927.603    22755927.3994   22755926.8714  119583213.323 6  93181735.55144
      2751.003        2143.617
  21615907.464    21615907.2294   21615910.0284  113592361.788 7  88513541.84245
     -1631.805       -1271.538
  23384005.088    23384005.7944   23384007.6284  122883768.266 6  95753604.96543
      1732.263        1349.830
  21908764.011    21908764.9044   21908765.8534  115131335.445 7  89712741.56644
      1508.116        1175.163
 06  5  5 12 18  0.0000000  0 11G 1G 2G 4G 5G13G17G20G23G24G25G30
  23503105.699    23503105.2834   23503108.1274  123509640.449 6  96241301.80543
     -2047.214       -1595.227
  21907341.230    21907340.7944   21907340.2414  115123853.005 7  89706911.42945
      3311.342        2580.272
  20619212.534    20619212.8804   20619214.0884  108354692.059 8  84432243.33346
       743.814         579.605
  21953442.993    21953442.2174   21953443.8864  115366119.770 7  89895690.76944
     -1009.478        -786.593
  24507321.316    24507322.3904   24507324.7054  128786821.832 5 100353404.29741
      4169.428        3248.893
  23877188.198    23877189.6444   23877191.2114  125475469.934 6  97773104.33643
     -3413.256       -2659.696
  22392849.397    22392848.8854   22392850.5364  117675209.983 7  91694986.19444
     -2128.387       -1658.462
  22740291.732    22740292.1374   22740290.3914  119501045.089 6  93117708.38944
      2724.974        2123.377
  21625286.642    21625286.6294   21625289.5204  113641650.783 8  88551948.87045
     -1656.123       -1290.486
  23374185.994    23374186.3954   23374188.4274  122832171.727 6  95713399.86443
      1705.562        1328.988
  21900237.450    21900237.6054   21900238.7804  115086524.728 7  89677824.12544
      1477.355        1151.185
 06  5  5 12 18 30.0000000  0 11G 1G 2G 4G 5G13G17G20G23G24G25G30
  23514867.277    23514866.6814   23514869.8314  123571445.376 6  96289461.45343
     -2073.454       -1615.699
  21888505.963    21888505.8694   21888505.1004  115024874.226 7  89629785.13145
      3286.841        2561.195
  20615053.855    20615054.1064   20615055.2434  108332837.554 8  84415213.84046
       712.748         555.408
  21959293.033    21959292.6354   21959294.1734  115396863.756 7  89919647.12644
     -1040.496        -810.777
  24483567.116    24483567.1564   24483567.5774  128661988.572 5 100256131.66141
      4152.227        3235.489
  23896721.470    23896721.1604   23896723.5894  125578110.947 6  97853084.25343
     -3430.061       -2672.791
  22405075.426    22405075.1044   22405076.1024  117739457.258 7  91745048.94144
     -2155.152       -1679.365
  22724813.875    22724813.8314   22724812.3724  119419708.135 7  93054328.98144
      2697.116        2101.670
  21634814.495    21634814.4614   21634817.0544  113691719.152 7  88590963.28845
     -1682.213       -1310.828
  23364531.214    23364531.3784   23364532.5704  122781428.163 6  95673859.44243
      1676.952        1306.703
  21891894.879    21891895.0084   21891896.2844  115042684.504 7  89643662.91045
      1444.979        1125.974
 06  5  5 12 19  0.0000000  0 11G 1G 2G 4G 5G13G17G20G23G24G25G30
  23526785.587    23526785.0224   23526788.0344  123634075.767 6  96338264.30043
     -2103.493       -1639.047
  21869819.028    21869818.7284   21869818.0594  114926673.163 7  89553264.82145
      3258.297        2538.944
  20611079.755    20611080.1794   20611081.3874  108311953.686 8  84398940.58246
       677.885         528.229
  21965327.909    21965327.5524   21965328.9924  115428578.260 7  89944359.75644
     -1075.357        -837.933
  24459918.833    24459919.6454   24459922.3964  128537714.902 5 100159295.09241
      4130.842        3218.890
  23916357.708    23916357.4334   23916358.8474  125681297.347 5  97933489.20543
     -3450.785       -2688.931
  22417460.883    22417460.3104   22417461.8934  117804543.082 7  91795765.18444
     -2185.628       -1703.090
  22709502.325    22709502.2594   22709501.0944  119339245.076 6  92991630.45544
      2665.427        2076.958
  21644497.583    21644497.6294   21644500.1024  113742604.547 8  88630614.24345
     -1711.906       -1333.948
  23355044.330    23355045.3644   23355046.3124  122731578.822 6  95635015.82243
      1644.505        1281.434
  21883744.651    21883745.2764   21883746.2254  114999855.798 7  89610289.91144
      1408.652        1097.657
 06  5  5 12 19 30.0000000  0 11G 1G 2G 4G 5G13G17G20G23G24G25G30
  23538879.163    23538880.1104   23538883.1294  123697636.414 6  96387792.03943
     -2135.115       -1663.720
  21851300.580    21851300.7714   21851300.0504  114829358.935 7  89477435.53245
      3228.059        2515.361
  20607310.945    20607311.3564   20607312.5634  108292147.952 8  84383507.43446
       641.313         499.731
  21971567.990    21971567.3914   21971569.2544  115461368.457 7  89969910.52144
     -1111.856        -866.401
  24436397.098    24436396.8404   24436399.5384  128414110.789 5 100062980.19541
      4108.003        3201.035
  23936115.218    23936116.6744   23936117.4184  125785133.867 5  98014400.74442
     -3473.071       -2706.250
  22430025.456    22430024.9334   22430026.7734  117870572.011 7  91847216.30144
     -2217.613       -1728.013
  22694378.278    22694378.0304   22694376.8364  119259765.543 7  92929698.26344
      2631.902        2050.853
  21654356.490    21654356.4494   21654358.8714  113794412.522 8  88670984.04945
     -1743.167       -1358.308
  23345749.418    23345749.5904   23345751.5474  122682732.127 6  95596953.46643
      1610.520        1254.941
  21875807.789    21875808.1804   21875809.3704  114958147.072 7  89577789.60445
      1370.704        1068.072
 06  5  5 12 20  0.0000000  0 11G 1G 2G 4G 5G13G17G20G23G24G25G30
  23551159.198    23551157.4974   23551159.8304  123762152.177 6  96438064.01643
     -2167.452       -1688.946
  21832956.957    21832956.9024   21832956.1224  114732961.524 7  89402320.62645
      3196.999        2491.189
  20603752.498    20603752.9304   20603754.1874  108273447.832 8  84368935.87546
       604.173         470.803
  21978017.273    21978016.7904   21978018.6644  115495260.289 7  89996319.66044
     -1149.004        -895.298
  24413010.272    24413009.5274   24413012.4184  128291206.678 5  99967210.79141
      4084.133        3182.496
  23956005.379    23956004.6244   23956006.3904  125889645.121 5  98095837.98843
     -3496.021       -2724.167
  22442774.763    22442774.0344   22442775.7464  117937568.661 7  91899421.38344
     -2250.344       -1753.479
  22679446.072    22679446.0444   22679445.1304  119181299.685 7  92868555.94644
      2597.553        2024.128
  21664395.768    21664395.6944   21664398.1174  113847168.843 8  88712092.84745
     -1775.202       -1383.263
  23336650.725    23336650.6334   23336652.6494  122634916.786 6  95559694.76443
      1575.570        1227.706
  21868089.509    21868090.0504   21868090.8324  114917586.807 7  89546184.20045
      1331.926        1037.892
 06  5  5 12 20 30.0000000  0 11G 1G 2G 4G 5G13G17G20G23G24G25G30
  23563627.059    23563626.6464   23563629.2224  123827676.587 6  96489121.94443
     -2201.423       -1715.397
  21814798.586    21814798.9934   21814797.8074  114637539.425 7  89327965.73745
      3164.035        2465.476
  20600415.221    20600415.4704   20600416.7614  108255909.482 8  84355269.61146
       564.767         440.066
  21984686.598    21984686.4144   21984688.2084  115530308.169 7  90023629.68744
     -1187.966        -925.689
  24389766.148    24389766.4854   24389769.6274  128169061.497 5  99872032.71941
      4058.510        3162.430
  23976030.995    23976031.1714   23976033.3774  125994885.123 5  98177843.09942
     -3520.557       -2743.269
  22455718.570    22455717.6284   22455719.2544  118005586.703 7  91952422.41444
     -2284.726       -1780.297
  22664718.470    22664718.8304   22664717.3354  119103905.468 6  92808248.83344
      2561.515        1995.979
  21674625.624    21674625.6584   21674627.7414  113900927.427 8  88753982.72445
     -1809.073       -1409.669
  23327758.912    23327758.7884   23327760.8384  122588189.980 6  95523284.27643
      1538.925        1199.180
  21860600.432    21860600.7814   21860601.8944  114878231.676 7  89515517.81045
      1291.237        1006.155
 06  5  5 12 21  0.0000000  0 11G 1G 2G 4G 5G13G17G20G23G24G25G30
  23576292.414    23576290.9524   23576294.3424  123894231.030 6  96540982.50843
     -2237.177       -1743.242
  21796830.960    21796831.3644   21796830.5254  114543118.329 7  89254390.79745
      3129.360        2438.463
  20597303.297    20597303.7634   20597304.9164  108239556.668 8  84342527.14346
       524.094         408.376
  21991580.808    21991579.9934   21991581.6944  115566533.963 7  90051857.45144
     -1228.504        -957.281
  24366672.579    24366671.5354   24366673.1134  128047702.347 5  99777467.22241
      4030.814        3140.909
  23996202.337    23996200.7594   23996202.2164  126100875.302 5  98260432.77342
     -3546.769       -2763.701
  22468859.603    22468859.4854   22468861.2524  118074647.450 7  92006235.89044
     -2320.844       -1808.431
  22650199.602    22650199.8494   22650198.9584  119027608.918 7  92748796.95144
      2523.481        1966.314
  21685050.395    21685050.4174   21685052.4444  113955710.429 8  88796670.75945
     -1844.461       -1437.244
  23319077.945    23319079.3184   23319080.2964  122542576.858 6  95487741.58043
      1500.323        1169.039
  21853345.470    21853346.1024   21853347.2804  114840106.976 7  89485810.24245
      1248.858         973.133
 06  5  5 12 21 30.0000000  0 11G 1G 2G 4G 5G13G17G20G23G24G25G30
  23589158.699    23589158.2594   23589161.3424  123961847.755 6  96593670.83143
     -2271.624       -1770.084
  21779061.179    21779060.8064   21779060.2074  114449735.459 7  89181624.87145
      3095.314        2411.933
  20594423.879    20594424.1134   20594425.4134  108224424.661 8  84330736.03946
       483.897         377.056
  21998704.709    21998704.0914   21998705.5624  115603971.309 7  90081029.42944
     -1268.231        -988.237
  24343735.304    24343736.7624   24343735.8294  127927166.622 5  99683543.27141
      4004.086        3120.031
  24016520.864    24016518.5654   24016520.7224  126207647.761 6  98343631.91142
     -3572.115       -2783.488
  22482206.523    22482205.9664   22482207.6664  118144783.321 7  92060887.07144
     -2355.880       -1835.752
  22635897.680    22635897.7474   22635895.6844  118952447.197 7  92690229.37144
      2486.509        1937.550
  21695676.813    21695676.6774   21695678.5824  114011550.850 7  88840182.80445
     -1879.039       -1464.190
  23310617.787    23310617.7734   23310619.6334  122498113.426 6  95453094.76443
      1462.873        1139.885
  21846331.906    21846332.3194   21846333.4034  114803248.865 7  89457089.64045
      1207.342         940.789
 06  5  5 12 22  0.0000000  0 11G 1G 2G 4G 5G13G17G20G23G24G25G30
  23602224.307    23602223.6364   23602225.8184  124030506.674 6  96647171.24943
     -2305.897       -1796.811
  21761485.392    21761485.5224   21761484.7534  114357375.525 7  89109656.08045
      3061.712        2385.761
  20591772.967    20591773.4494   20591774.5524  108210495.514 8  84319882.25246
       444.468         346.336
  22006055.724    22006055.1444   22006056.6264  115642600.386 7  90111129.90244
     -1307.423       -1018.753
  24320950.976    24320952.4004   24320954.7464  127807440.200 5  99590250.08141
      3977.508        3099.337
  24036983.048    24036982.4434   24036984.5914  126315183.221 5  98427425.84442
     -3597.327       -2803.125
  22495753.556    22495753.3584   22495754.6164  118215974.523 7  92116360.60944
     -2390.427       -1862.635
  22621808.059    22621808.0044   22621806.5924  118878405.275 7  92632534.34744
      2449.601        1908.786
  21706500.288    21706500.2744   21706502.4184  114068429.070 7  88884503.47045
     -1913.045       -1490.688
  23302372.295    23302372.3154   23302373.6274  122454783.345 6  95419331.06343
      1425.507        1110.758
  21839555.547    21839556.5224   21839557.3444  114767640.407 7  89429342.77745
      1166.181         908.709
 06  5  5 12 22 30.0000000  0 11G 1G 2G 4G 5G13G17G20G23G24G25G30
  23615481.582    23615481.9594   23615483.9394  124100177.743 6  96701460.35743
     -2339.095       -1822.664
  21744099.833    21744099.8764   21744098.9904  114266013.541 7  89038464.95845
      3028.943        2360.201
  20589346.027    20589346.5244   20589347.6944  108197741.755 8  84309944.25846
       405.643         316.090
  22013627.485    22013627.3264   22013629.0814  115682392.302 7  90142136.53944
     -1345.637       -1048.547
  24298317.699    24298317.9204   24298320.6494  127688498.583 5  99497568.32841
      3951.693        3079.248
  24057584.357    24057585.7134   24057586.9744  126423451.514 5  98511790.73242
     -3621.148       -2821.672
  22509496.047    22509495.6514   22509497.6424  118288190.865 7  92172633.01744
     -2424.196       -1888.966
  22607925.839    22607925.9814   22607924.8414  118805457.938 7  92575692.25144
      2413.327        1880.509
  21717515.884    21717515.7684   21717517.8854  114126316.257 7  88929610.38745
     -1946.287       -1516.578
  23294336.078    23294337.6934   23294339.3894  122412560.384 6  95386430.04243
      1389.007        1082.350
  21833012.200    21833013.0254   21833014.4274  114733255.473 7  89402549.30145
      1125.928         877.343
 06  5  5 12 23  0.0000000  0 11G 1G 2G 4G 5G13G17G20G23G24G25G30
  23628924.142    23628925.4994   23628927.8014  124170825.897 6  96756510.83243
     -2371.069       -1847.573
  21726898.099    21726898.1434   21726897.8414  114175618.772 7  88968027.51045
      2997.200        2335.494
  20587136.791    20587137.0264   20587138.2394  108186130.976 8  84300896.95446
       368.063         286.809
  22021414.364    22021414.4164   22021415.8534  115723312.882 7  90174022.68644
     -1382.617       -1077.364
  24275827.668    24275827.0774   24275828.4494  127570311.629 5  99405474.52341
      3927.168        3060.164
  24078323.431    24078321.1334   24078322.5264  126532417.550 6  98596699.25642
     -3643.688       -2839.256
  22523427.039    22523426.9504   22523427.7334  118361397.313 7  92229676.86244
     -2456.652       -1914.256
  22594247.229    22594247.2324   22594245.9604  118733574.898 6  92519679.50044
      2378.500        1853.370
  21728716.769    21728716.8304   21728718.7174  114185177.828 7  88975476.56045
     -1978.195       -1541.444
  23286506.382    23286507.4674   23286508.6524  122371413.080 6  95354367.18443
      1353.867        1054.962
  21826696.026    21826696.5524   21826697.5604  114700062.116 7  89376684.32945
      1086.735         846.811
 06  5  5 12 23 30.0000000  0 11G 1G 2G 4G 5G13G17G20G23G24G25G30
  23642550.037    23642549.2174   23642550.5914  124242417.725 6  96812296.64943
     -2400.897       -1870.799
  21709875.281    21709875.4954   21709874.9174  114086163.221 7  88898321.95745
      2967.125        2312.055
  20585138.724    20585139.2714   20585140.2524  108175631.921 8  84292715.79746
       332.450         259.060
  22029410.452    22029409.7084   22029411.6974  115765329.082 7  90206762.50744
     -1417.777       -1104.722
  24253475.850    24253477.3574   24253478.8584  127452852.078 5  99313947.66441
      3904.140        3042.181
  24099182.692    24099182.3694   24099184.0874  126642048.185 5  98682125.62742
     -3664.445       -2855.457
  22537540.363    22537539.3914   22537541.3094  118435560.608 7  92287466.36043
     -2486.895       -1937.837
  22580765.401    22580765.6074   22580764.3374  118662727.464 7  92464473.73244
      2345.477        1827.647
  21740096.850    21740096.8844   21740098.9384  114244980.886 7  89022076.34545
     -2007.988       -1564.665
  23278877.141    23278876.5874   23278877.8824  122331311.766 6  95323119.38343
      1320.406        1028.901
  21820600.337    21820601.2944   21820602.3394  114668030.758 7  89351724.81745
      1049.378         817.707
 06  5  5 12 24  0.0000000  0 11G 1G 2G 4G 5G13G17G20G23G24G25G30
  23656343.301    23656342.4554   23656344.1844  124314900.151 6  96868776.44243
     -2430.615       -1894.015
  21693021.904    21693022.0244   21693021.3694  113997598.247 7  88829310.35545
      2937.537        2288.977
  20583343.088    20583343.3634   20583344.4404  108166194.810 8  84285362.29746
       297.047         231.445
  22037604.567    22037604.1904   22037605.5564  115808388.804 7  90240315.46544
     -1452.497       -1131.844
  24231253.434    24231253.2804   24231254.4764  127336072.188 5  99222950.40941
      3881.474        3024.436
  24120158.801    24120161.0144   24120162.8924  126752290.540 5  98768028.60642
     -3685.002       -2871.457
  22551824.811    22551824.0964   22551825.5114  118510627.181 7  92345959.76243
     -2517.070       -1961.370
  22567472.101    22567471.8104   22567470.3334  118592867.368 6  92410037.31344
      2312.430        1801.917
  21751646.478    21751646.4184   21751648.5634  114305672.986 8  89069368.84345
     -2037.737       -1587.854
  23271434.151    23271435.3024   23271436.7354  122292207.109 6  95292648.21043
      1287.175        1002.974
  21814717.230    21814717.7374   21814718.6194  114637111.605 7  89327631.93545
      1012.328         788.818
 06  5  5 12 24 30.0000000  0 11G 1G 2G 4G 5G13G17G20G23G24G25G30
  23670299.631    23670298.4834   23670300.7254  124388243.223 6  96925926.85842
     -2458.598       -1915.785
  21676333.239    21676333.2784   21676332.6264  113909898.406 7  88760972.83945
      2909.328        2266.997
  20581743.793    20581744.2744   20581745.4294  108157791.460 8  84278814.25746
       263.253         205.125
  22045991.197    22045991.2214   22045992.9594  115852462.824 7  90274658.88744
     -1485.558       -1157.589
  24209155.082    24209155.4774   24209157.9564  127219947.322 5  99132463.67441
      3860.198        3007.944
  24141250.129    24141250.3444   24141252.1314  126863114.536 5  98854384.82742
     -3703.486       -2885.853
  22566275.251    22566275.1614   22566276.7094  118586567.556 7  92405134.07244
     -2545.436       -1983.459
  22554361.131    22554360.7864   22554359.2424  118523969.178 6  92356350.34744
      2281.026        1777.415
  21763359.627    21763359.5274   21763361.6574  114367224.874 8  89117331.31945
     -2065.629       -1609.586
  23264178.628    23264178.6344   23264179.7754  122254072.571 6  95262932.98043
      1255.514         978.334
  21809040.139    21809040.7534   21809041.6434  114607278.367 7  89304385.25245
       976.806         761.141
 06  5  5 12 25  0.0000000  0 11G 1G 2G 4G 5G13G17G20G23G24G25G30
  23684415.560    23684413.7064   23684415.2404  124462417.031 6  96983724.59242
     -2486.080       -1937.217
  21659804.856    21659804.5634   21659803.6684  113823038.900 7  88693290.06045
      2881.488        2245.333
  20580336.398    20580336.5684   20580337.8104  108150394.404 8  84273050.22546
       229.915         179.154
  22054565.432    22054565.4234   22054567.1314  115897521.964 7  90309769.90544
     -1518.168       -1182.973
  24187178.234    24187178.1534   24187180.0564  127104453.279 5  99042468.44441
      3839.521        2991.824
  24162442.438    24162444.8884   24162445.7814  126974491.186 5  98941171.78042
     -3721.460       -2899.817
  22580887.283    22580886.8864   22580888.0794  118663351.952 7  92464966.01443
     -2573.231       -2005.088
  22541428.203    22541428.3274   22541426.6554  118456008.402 7  92303393.93744
      2250.051        1753.272
  21775230.345    21775230.3324   21775232.4114  114429607.653 7  89165941.27445
     -2092.984       -1630.888
  23257101.889    23257101.8044   23257103.1164  122216882.148 6  95233953.41543
      1224.134         953.878
  21803564.479    21803565.2164   21803566.1994  114578504.664 7  89281964.16145
       941.631         733.733
 06  5  5 12 25 30.0000000  0 11G 1G 2G 4G 5G13G17G20G23G24G25G30
  23698680.323    23698680.3314   23698681.3154  124537386.819 6  97042142.57942
     -2512.595       -1957.878
  21643430.175    21643429.8494   21643429.4174  113736989.609 7  88626238.64845
      2854.298        2224.110
  20579114.238    20579114.4474   20579115.4984  108143971.867 8  84268045.65546
       197.333         153.758
  22063320.809    22063320.5724   22063322.8584  115943532.159 7  90345622.00144
     -1549.976       -1207.769
  24165315.411    24165314.3404   24165316.2474  126989560.899 5  98952941.88441
      3819.333        2976.095
  24183740.116    24183738.0124   24183739.1144  127086385.373 5  99028361.97142
     -3738.769       -2913.344
  22595653.400    22595652.1874   22595653.9384  118740945.614 7  92525428.67943
     -2600.306       -2026.220
  22528668.953    22528668.5704   22528666.7514  118388954.283 7  92251143.89244
      2219.616        1729.570
  21787252.848    21787252.9634   21787255.0614  114492786.976 8  89215171.91545
     -2119.684       -1651.722
  23250197.933    23250198.2004   23250200.0044  122180604.674 6  95205685.25443
      1193.547         930.023
  21798284.858    21798285.3664   21798286.4094  114550759.057 7  89260344.23145
       907.196         706.893
 06  5  5 12 26  0.0000000  0 11G 1G 2G 4G 5G13G17G20G23G24G25G30
  23713093.563    23713093.4384   23713095.6734  124613127.554 6  97101161.27442
     -2537.284       -1977.140
  21627204.994    21627205.5874   21627204.8154  113651730.426 7  88559802.95145
      2828.931        2204.350
  20578073.039    20578073.3764   20578074.4714  108138500.968 8  84263782.63046
       166.669         129.878
  22072252.423    22072252.5604   22072254.6144  115990468.998 7  90382196.15944
     -1579.814       -1231.032
  24143561.150    24143561.7954   24143564.3344  126875250.209 5  98863868.51941
      3800.879        2961.700
  24205124.402    24205124.0624   24205126.4504  127198772.456 5  99115936.21042
     -3754.167       -2925.327
  22610567.601    22610567.1164   22610569.1964  118819323.106 7  92586502.02043
     -2625.484       -2045.836
  22516077.698    22516077.3864   22516075.7294  118322787.212 7  92199585.16844
      2190.936        1707.208
  21799422.538    21799422.7244   21799424.8034  114556738.606 8  89265004.41545
     -2144.405       -1670.977
  23243464.051    23243464.3034   23243465.8844  122145218.722 6  95178111.77143
      1164.722         907.571
  21793196.434    21793196.9304   21793197.8614  114524019.733 7  89239508.38645
       874.676         681.578
 06  5  5 12 26 30.0000000  0 11G 1G 2G 4G 5G13G17G20G23G24G25G30
  23727646.887    23727646.9764   23727649.3554  124689607.346 6  97160755.88042
     -2561.775       -1996.228
  21611126.445    21611126.4714   21611125.6014  113567234.341 7  88493961.94745
      2803.688        2184.683
  20577207.402    20577207.7534   20577208.9664  108133952.312 8  84260238.25646
       136.133         106.077
  22081354.836    22081354.8774   22081356.5984  116038301.384 7  90419468.19344
     -1609.410       -1254.078
  24121915.972    24121915.3364   24121916.9144  126761495.662 5  98775228.67841
      3782.542        2947.450
  24226601.026    24226598.6384   24226600.1404  127311620.537 5  99203869.62642
     -3769.176       -2937.059
  22625625.897    22625625.5834   22625626.8464  118898452.787 6  92648161.52043
     -2650.263       -2065.164
  22503649.688    22503649.8344   22503647.8704  118257479.718 7  92148696.20044
      2162.531        1685.083
  21811733.199    21811732.9934   21811735.1874  114621431.098 7  89315414.09045
     -2168.842       -1689.998
  23236894.677    23236895.1084   23236897.0594  122110695.989 6  95151210.92443
      1136.183         885.329
  21788294.305    21788294.9034   21788295.7994  114498258.318 7  89219434.51745
       842.236         656.286
 06  5  5 12 27  0.0000000  0 11G 1G 2G 4G 5G13G17G20G23G24G25G30
  23742341.420    23742341.3494   23742341.9184  124766824.192 6  97220924.81342
     -2585.718       -2014.845
  21595193.406    21595193.2074   21595192.2574  113483503.564 8  88428717.15245
      2778.835        2165.338
  20576517.635    20576517.8294   20576518.7904  108130326.339 8  84257412.90046
       106.137          82.698
  22090627.242    22090627.1644   22090628.5834  116087027.991 7  90457437.06244
     -1638.536       -1276.774
  24100374.421    24100375.8484   24100376.6504  126648300.625 5  98687024.88841
      3764.241        2933.206
  24248162.200    24248160.9034   24248161.9914  127424928.264 5  99292161.21542
     -3784.049       -2948.578
  22640826.370    22640825.4454   22640827.8314  118978332.486 7  92710405.34143
     -2674.677       -2084.158
  22491386.518    22491386.1694   22491384.5584  118193034.439 7  92098479.09444
      2134.292        1663.063
  21824184.704    21824184.6374   21824186.7844  114686863.404 7  89366400.27345
     -2192.766       -1708.654
  23230490.552    23230490.0344   23230491.9194  122077038.057 6  95124983.96243
      1107.991         863.334
  21783578.430    21783578.9074   21783579.9804  114473476.324 7  89200123.88045
       810.205         631.331
 06  5  5 12 27 30.0000000  0 11G 1G 2G 4G 5G13G17G20G23G24G25G30
  23757167.662    23757167.5774   23757169.8834  124844739.323 6  97281637.86942
     -2609.388       -2033.289
  21579398.679    21579398.9104   21579398.0764  113400504.848 7  88364042.84845
      2753.954        2145.949
  20575996.258    20575996.5114   20575997.5374  108127586.706 8  84255278.12846
        76.049          59.257
  22100062.847    22100062.4274   22100064.2314  116136610.601 7  90496072.88144
     -1667.433       -1299.311
  24078934.126    24078935.2124   24078936.1204  126535631.811 5  98599231.17841
      3746.247        2919.045
  24269802.884    24269802.3794   24269804.7374  127538657.423 5  99380781.28742
     -3798.372       -2959.784
  22656162.075    22656161.7164   22656163.4234  119058923.798 6  92773203.71943
     -2698.753       -2102.901
  22479280.551    22479280.4214   22479278.8344  118129417.435 7  92048907.39844
      2106.132        1641.133
  21836769.622    21836769.3384   21836771.8724  114752997.433 7  89417933.25845
     -2216.610       -1727.225
  23224242.619    23224243.1954   23224244.3914  122044209.931 6  95099403.57443
      1079.861         841.445
  21779042.192    21779042.9294   21779043.5664  114449638.276 7  89181548.79645
       778.358         606.509
 06  5  5 12 28  0.0000000  0 11G 1G 2G 4G 5G13G17G20G23G24G25G30
  23772124.126    23772124.2534   23772126.5134  124923335.948 6  97342881.95642
     -2631.487       -2050.483
  21563741.975    21563741.8654   21563740.9174  113318225.962 7  88299929.44745
      2730.360        2127.576
  20575640.836    20575640.9944   20575642.0864  108125718.991 9  84253822.80146
        47.472          36.970
  22109657.699    22109657.4574   22109659.2904  116187033.280 7  90535363.29944
     -1695.024       -1320.817
  24057592.528    24057593.3584   24057593.4354  126423477.787 5  98511838.38141
      3729.552        2906.110
  24291521.256    24291521.3834   24291523.4314  127652790.889 5  99469716.52342
     -3811.500       -2969.982
  22671630.597    22671630.3984   22671631.8584  119140209.854 6  92836543.44143
     -2721.309       -2120.518
  22467329.890    22467329.9124   22467328.3154  118066617.250 6  91999972.20344
      2079.469        1620.374
  21849484.915    21849485.1004   21849487.1284  114819817.082 7  89470000.47945
     -2238.879       -1744.579
  23218150.774    23218151.7514   23218153.1764  122012198.332 6  95074459.44743
      1053.245         820.727
  21774683.062    21774683.6964   21774684.5374  114426730.973 7  89163698.95745
       747.752         582.670
 06  5  5 12 28 30.0000000  0 11G 1G 2G 4G 5G13G17G20G23G24G25G30
  23787209.473    23787209.6604   23787211.4404  125002610.163 6  97404654.05342
     -2653.975       -2068.001
  21548221.783    21548222.1174   21548221.0344  113236668.330 7  88236378.07545
      2706.382        2108.863
  20575450.919    20575451.2674   20575452.1934  108124721.818 8  84253045.80546
        18.558          14.455
  22119412.403    22119411.6974   22119413.3134  116238292.472 7  90575305.46044
     -1722.755       -1342.433
  24036349.322    24036349.0864   24036350.7744  126311840.601 5  98424848.47141
      3712.400        2892.803
  24313316.600    24313316.3424   24313319.2384  127767324.707 5  99558963.54542
     -3824.448       -2980.090
  22687230.093    22687230.0574   22687231.4824  119222186.760 7  92900421.49143
     -2744.194       -2138.284
  22455535.404    22455535.2634   22455533.3204  118004634.194 6  91951673.73544
      2052.295        1599.184
  21862330.084    21862330.0794   21862332.5244  114887319.078 7  89522599.39945
     -2261.556       -1762.254
  23212215.665    23212214.9894   23212217.0914  121981003.009 6  95050151.37243
      1026.028         799.507
  21770501.135    21770501.7524   21770502.3564  114404753.539 7  89146573.67745
       716.865         558.589
 06  5  5 12 29  0.0000000  0 11G 1G 2G 4G 5G13G17G20G23G24G25G30
  23802421.480    23802421.2284   23802422.9754  125082548.461 6  97466943.57342
     -2675.662       -2084.935
  21532837.733    21532837.5444   21532836.4134  113155822.072 7  88173380.97145
      2682.954        2090.618
  20575424.635    20575425.0964   20575426.0664  108124583.974 8  84252938.41146
        -9.630          -7.505
  22129323.456    22129323.0884   22129325.0994  116290375.306 7  90615889.39144
     -1749.839       -1363.506
  24015201.914    24015201.9814   24015203.2104  126200712.086 5  98338254.83641
      3695.524        2879.612
  24335183.586    24335184.7734   24335186.7654  127882246.312 5  99648512.79642
     -3837.250       -2990.043
  22702958.792    22702958.1814   22702960.3884  119304840.782 7  92964827.13743
     -2766.403       -2155.625
  22443893.908    22443893.6744   22443892.3274  117943459.344 7  91904005.01244
      2025.695        1578.466
  21875302.705    21875302.8074   21875305.1884  114955490.721 7  89575720.06645
     -2283.551       -1779.396
  23206432.449    23206432.6034   23206433.7664  121950613.863 6  95026471.47943
       999.478         778.794
  21766494.172    21766494.3544   21766495.5514  114383695.847 7  89130165.07745
       686.653         535.051
 06  5  5 12 29 30.0000000  0 11G 1G 2G 4G 5G13G17G20G23G24G25G30
  23817754.204    23817754.0484   23817757.4494  125163127.878 6  97529732.70242
     -2696.726       -2101.335
  21517584.650    21517584.9784   21517584.1354  113075669.654 8  88110924.60345
      2660.264        2072.930
  20575557.967    20575558.3844   20575559.2934  108125284.947 8  84253484.72946
       -37.217         -28.996
  22139386.803    22139386.0214   22139388.5804  116343259.663 7  90657097.91144
     -1776.101       -1383.962
  23994146.592    23994147.8594   23994149.7904  126090075.374 5  98252044.48641
      3679.725        2867.310
  24357123.345    24357123.6944   24357125.4894  127997532.835 5  99738346.30142
     -3848.867       -2999.169
  22718811.753    22718811.6094   22718813.7344  119388149.332 7  93029742.81143
     -2787.753       -2172.244
  22432402.987    22432402.5924   22432401.6284  117883074.638 6  91856951.98044
      1999.776        1558.275
  21888398.688    21888398.7744   21888401.0954  115024309.662 7  89629345.15645
     -2304.599       -1795.797
  23200799.132    23200800.4554   23200800.9584  121921011.576 6  95003404.75443
       973.576         758.650
  21762658.381    21762658.7214   21762659.3514  114363538.429 7  89114457.99845
       656.898         511.853
 06  5  5 12 30  0.0000000  0 11G 1G 2G 4G 5G13G17G20G23G24G25G30
  23833206.456    23833206.4984   23833208.8064  125244327.471 6  97593005.09542
     -2717.330       -2117.401
  21502461.271    21502461.4534   21502460.8284  112996194.784 8  88048996.03545
      2637.466        2055.144
  20575847.510    20575847.7084   20575848.7654  108126806.204 8  84254670.16646
       -64.795         -50.503
  22149599.246    22149598.9604   22149600.3884  116396925.248 7  90698915.19044
     -1802.239       -1404.365
  23973185.536    23973185.3834   23973185.6454  125979915.206 5  98166205.55741
      3663.813        2854.903
  24379125.219    24379127.2094   24379129.9674  128113164.189 5  99828448.85442
     -3860.295       -3008.002
  22734785.237    22734785.4464   22734786.7754  119472091.450 6  93095152.18043
     -2808.951       -2188.781
  22421059.291    22421059.1774   22421057.8204  117823463.645 7  91810501.86644
      1973.829        1538.036
  21901614.100    21901613.9254   21901616.1664  115093755.814 7  89683459.07745
     -2325.659       -1812.218
  23195312.990    23195312.3444   23195313.9394  121892178.821 6  94980937.64643
       947.821         738.564
  21758990.111    21758990.5784   21758991.4794  114344263.169 7  89099438.25345
       627.405         488.893
 06  5  5 12 30 30.0000000  0 11G 1G 2G 4G 5G13G17G20G23G24G25G30
  23848776.150    23848775.5294   23848777.3214  125326141.875 6  97656756.54642
     -2738.379       -2133.793
  21487466.553    21487466.7974   21487465.8384  112917396.840 7  87987595.05245
      2614.268        2037.080
  20576292.482    20576292.7424   20576293.7554  108129144.138 8  84256491.88246
       -92.472         -72.065
  22159959.183    22159959.0854   22159960.4704  116451367.122 7  90741337.40644
     -1828.665       -1424.955
  23952313.520    23952314.4734   23952313.2734  125870231.159 5  98080737.51041
      3646.866        2841.660
  24401195.240    24401196.0194   24401197.7494  128229134.391 5  99918815.18442
     -3872.768       -3017.741
  22750878.773    22750878.4654   22750880.0534  119556661.806 6  93161051.16543
     -2830.562       -2205.637
  22409862.978    22409862.8354   22409861.1164  117764625.750 6  91764654.14544
      1947.256        1517.336
  21914947.485    21914947.4634   21914949.9294  115163823.919 7  89738057.47345
     -2347.082       -1828.920
  23189972.678    23189972.4694   23189973.7294  121864113.511 6  94959068.55743
       921.792         718.302
  21755489.683    21755490.2664   21755491.1054  114325868.099 7  89085104.39145
       597.549         465.605
 06  5  5 12 31  0.0000000  0 11G 1G 2G 4G 5G13G17G20G23G24G25G30
  23864459.815    23864460.5304   23864461.7894  125408567.261 6  97720984.07742
     -2756.118       -2147.581
  21472601.081    21472601.0994   21472600.1184  112839277.063 8  87926722.47945
      2594.255        2021.503
  20576892.610    20576892.9364   20576893.8984  108132297.272 8  84258948.68546
      -117.078         -91.223
  22170466.505    22170466.4424   22170467.7184  116506581.964 7  90784361.88844
     -1851.752       -1442.924
  23931530.126    23931530.6154   23931533.0104  125761025.121 5  97995641.96441
      3633.438        2831.273
  24423326.610    24423328.0504   24423330.6724  128345439.678 5 100009442.56442
     -3881.098       -3024.215
  22767091.074    22767090.8854   22767092.3154  119641856.229 6  93227436.38443
     -2848.659       -2219.741
  22398813.671    22398813.4164   22398812.3334  117706561.446 7  91719409.21944
      1924.093        1499.293
  21928398.712    21928398.9114   21928401.2864  115234511.626 7  89793138.86645
     -2364.971       -1842.833
  23184776.884    23184777.3954   23184778.9124  121836815.464 6  94937797.32243
       898.754         700.342
  21752156.441    21752157.0784   21752158.1824  114308352.816 7  89071456.11845
       570.825         444.806
 06  5  5 12 31 30.0000000  0 11G 1G 2G 4G 5G13G17G20G23G24G25G30
  23880249.545    23880249.3314   23880250.8474  125491538.872 6  97785637.25842
     -2775.428       -2162.638
  21457853.366    21457852.9784   21457852.2704  112761775.516 8  87866331.67745
      2572.442        2004.497
  20577636.249    20577636.4214   20577637.5154  108136204.037 8  84261992.84746
      -143.369        -111.714
  22181108.435    22181108.5604   22181109.6854  116562506.014 7  90827939.09144
     -1876.538       -1462.248
  23910831.587    23910830.0404   23910831.0744  125652238.327 5  97910873.00141
      3618.595        2819.647
  24445510.882    24445511.8854   24445514.0514  128462016.135 5 100100281.21442
     -3890.983       -3031.899
  22783409.796    22783408.7504   22783410.4424  119727610.399 6  93294257.77043
     -2868.393       -2235.125
  22387900.103    22387900.3144   22387898.6754  117649211.176 7  91674720.67944
      1899.217        1479.911
  21941955.864    21941955.8534   21941958.3614  115305754.483 7  89848652.75745
     -2384.534       -1858.080
  23179717.554    23179717.9084   23179718.9774  121810223.514 6  94917076.30143
       873.977         681.012
  21748979.042    21748979.8934   21748980.7744  114291655.851 6  89058445.49045
       542.283         422.559
 06  5  5 12 32  0.0000000  0 11G 1G 2G 4G 5G13G17G20G23G24G25G30
  23896146.582    23896147.5804   23896148.5394  125575078.114 6  97850732.74442
     -2793.842       -2177.015
  21443226.915    21443227.4774   21443226.6664  112684918.304 8  87806443.06745
      2551.148        1987.905
  20578527.451    20578527.8714   20578528.7234  108140887.934 8  84265642.70046
      -169.036        -131.702
  22191889.741    22191889.3444   22191890.5794  116619161.065 7  90872085.95444
     -1900.583       -1480.968
  23890213.793    23890212.8534   23890215.6954  125543897.453 5  97826451.43641
      3603.878        2808.228
  24467752.225    24467751.3464   24467752.5314  128578885.593 5 100191348.24842
     -3900.468       -3039.299
  22799839.177    22799838.7734   22799838.9964  119813946.088 6  93361532.32243
     -2887.489       -2250.014
  22377128.148    22377127.9944   22377125.8544  117592600.919 7  91630608.76744
      1874.723        1460.813
  21955622.828    21955622.9384   21955625.2544  115377574.754 7  89904616.55645
     -2403.641       -1872.958
  23174795.466    23174795.6004   23174798.1304  121784362.538 6  94896924.88643
       849.989         662.331
  21745962.241    21745962.9144   21745963.8644  114275801.726 8  89046091.63545
       514.533         400.925
 06  5  5 12 32 30.0000000  0 10G 1G 2G 4G 5G13G20G23G24G25G30
  23912149.606    23912148.7744   23912149.9164  125659169.350 6  97916258.34042
     -2811.716       -2190.961
  21428722.737    21428722.6394   21428721.7404  112608694.720 7  87747048.10945
      2530.616        1971.892
  20579563.913    20579564.3204   20579565.2804  108146335.185 9  84269887.28746
      -193.961        -151.147
  22202806.977    22202806.5204   22202808.4444  116676532.133 7  90916790.74444
     -1923.846       -1499.094
  23869680.519    23869679.9694   23869682.3904  125435993.255 5  97742370.33641
      3590.094        2797.410
  22816375.535    22816375.3014   22816376.7744  119900847.435 6  93429247.62443
     -2905.746       -2264.224
  22366493.787    22366493.7084   22366492.4324  117536719.754 7  91587065.00944
      1850.962        1442.296
  21969397.058    21969396.8604   21969399.2104  115449957.502 7  89961018.68345
     -2421.738       -1887.071
  23170011.966    23170012.0544   23170013.7004  121759220.429 6  94877333.61243
       826.442         643.977
  21743103.599    21743104.0094   21743104.8404  114260778.152 7  89034384.94945
       487.340         379.731
 06  5  5 12 33  0.0000000  0 10G 1G 2G 4G 5G13G20G23G24G25G30
  23928248.098    23928248.7574   23928250.7634  125743774.971 5  97982184.76542
     -2828.929       -2204.360
  21414331.924    21414331.9674   21414331.1444  112533072.192 7  87688121.45445
      2510.402        1956.150
  20580739.485    20580739.5974   20580740.5024  108152510.884 8  84274699.46046
      -218.332        -170.130
  22213853.321    22213852.6524   22213854.9104  116734581.901 7  90962024.30644
     -1946.582       -1516.801
  23849222.513    23849222.7104   23849224.4474  125328493.552 5  97658604.32641
      3576.090        2786.562
  22833012.746    22833012.4614   22833013.8954  119988276.513 6  93497374.10943
     -2923.334       -2277.941
  22355992.464    22355992.7324   22355991.0594  117481534.537 6  91544063.49844
      1827.564        1424.101
  21983271.016    21983271.0734   21983273.0454  115522865.746 7  90017830.26345
     -2439.345       -1900.783
  23165357.595    23165357.5194   23165359.6914  121734763.061 6  94858275.89843
       803.646         626.245
  21740395.857    21740396.3724   21740397.3494  114246550.191 7  89023298.22445
       460.819         359.101
 06  5  5 12 33 30.0000000  0 10G 1G 2G 4G 5G13G20G23G24G25G30
  23944445.078    23944445.5754   23944446.7714  125828889.214 5  98048507.53642
     -2845.863       -2217.574
  21400055.758    21400055.6714   21400054.7704  112458049.025 7  87629661.86545
      2490.684        1940.791
  20582052.314    20582052.6784   20582053.7184  108159411.287 8  84280076.32446
      -242.215        -188.750
  22225027.546    22225027.5924   22225029.4004  116793305.356 7  91007782.81744
     -1968.740       -1534.073
  23828844.295    23828844.3374   23828845.3084  125221398.105 5  97575153.39641
      3563.247        2776.485
  22849749.460    22849749.2424   22849751.0714  120076227.955 6  93565907.68743
     -2940.606       -2291.420
  22345623.235    22345623.6144   22345621.8594  117427044.135 7  91501603.38644
      1804.558        1406.169
  21997243.911    21997244.0134   21997246.0844  115596294.379 7  90075047.36545
     -2456.396       -1914.056
  23160833.310    23160833.5714   23160835.4334  121710988.172 6  94839749.97943
       780.841         608.457
  21737839.571    21737840.1754   21737840.9044  114233116.154 7  89012830.16145
       434.378         338.487
 06  5  5 12 34  0.0000000  0 10G 1G 2G 4G 5G13G20G23G24G25G30
  23960735.921    23960736.1954   23960738.6164  125914501.962 5  98115218.71942
     -2861.878       -2230.045
  21385892.328    21385892.1734   21385891.2014  112383619.922 8  87571665.20245
      2471.105        1925.530
  20583501.910    20583502.2504   20583503.4234  108167028.857 8  84286012.12046
      -265.920        -207.213
  22236328.775    22236328.2024   22236330.6474  116852693.026 7  91054059.00644
     -1990.480       -1551.037
  23808540.920    23808540.7984   23808542.3514  125114702.344 5  97492013.87742
      3549.990        2766.183
  22866583.291    22866582.9654   22866584.6844  120164691.414 6  93634840.19543
     -2957.129       -2304.267
  22335385.992    22335385.3534   22335383.6504  117373243.148 7  91459680.53944
      1781.932        1388.523
  22011314.443    22011314.4644   22011316.5544  115670234.175 7  90132662.79645
     -2473.164       -1927.138
  23156437.219    23156438.4584   23156439.2124  121687889.037 6  94821750.63143
       758.767         591.253
  21735432.582    21735433.3234   21735434.5304  114220468.353 7  89002974.75245
       408.553         318.352
 06  5  5 12 34 30.0000000  0 10G 1G 2G 4G 5G13G20G23G24G25G30
  23977119.551    23977119.6234   23977120.8834  126000593.598 5  98182303.06742
     -2877.477       -2242.175
  21371839.495    21371839.0534   21371838.1984  112309770.201 7  87514119.88445
      2452.193        1910.806
  20585084.728    20585084.9924   20585086.0244  108175346.150 8  84292493.20046
      -288.609        -224.902
  22247752.456    22247752.3554   22247754.1814  116912725.586 6  91100837.67544
     -2011.566       -1567.461
  23788310.012    23788311.5284   23788312.1094  125008392.758 5  97409175.35942
      3537.530        2756.540
  22883510.736    22883511.1654   22883511.8324  120253647.435 6  93704156.53543
     -2973.144       -2316.736
  22325276.024    22325276.0064   22325273.8894  117320116.226 7  91418282.92844
      1759.891        1371.340
  22025478.497    22025478.2174   22025480.6294  115744665.973 7  90190661.58145
     -2488.977       -1939.463
  23152167.757    23152167.4844   23152169.1824  121665449.443 6  94804265.22343
       737.265         574.488
  21733171.995    21733172.6034   21733173.8394  114208590.344 7  88993719.18245
       383.340         298.701
 06  5  5 12 35  0.0000000  0 10G 1G 2G 4G 5G13G20G23G24G25G30
  23993589.078    23993590.0984   23993592.5744  126087145.482 6  98249746.06742
     -2893.299       -2254.544
  21357893.765    21357893.7534   21357892.7004  112236486.424 7  87457015.60645
      2432.844        1895.718
  20586797.550    20586797.7574   20586798.8194  108184346.314 8  84299506.24546
      -311.753        -242.917
  22259295.903    22259295.1844   22259297.4834  116973384.810 7  91148104.58944
     -2032.928       -1584.121
  23768150.387    23768150.8304   23768153.0684  124902455.971 5  97326627.28342
      3524.479        2746.359
  22900529.708    22900528.8194   22900529.9534  120343077.731 6  93773842.51243
     -2989.333       -2329.349
  22315292.015    22315291.4424   22315290.0024  117267649.535 7  91377399.78244
      1737.446        1353.845
  22039732.572    22039732.3174   22039734.7554  115819572.054 7  90249029.95045
     -2505.148       -1952.071
  23148020.348    23148020.5544   23148022.1044  121643654.178 6  94787281.90943
       715.200         557.303
  21731055.278    21731056.0674   21731057.3174  114197466.494 7  88985051.28845
       357.696         278.712
 06  5  5 12 35 30.0000000  0 10G 1G 2G 4G 5G13G20G23G24G25G30
  24010144.397    24010143.1044   24010145.1654  126174132.385 5  98317528.02642
     -2907.025       -2265.228
  21344052.088    21344052.1684   21344051.2654  112163747.866 7  87400336.11345
      2415.129        1881.924
  20588635.934    20588636.0784   20588637.1234  108194006.724 8  84307033.75646
      -333.361        -259.764
  22270953.099    22270952.7274   22270954.5264  117034646.321 7  91195840.89044
     -2052.452       -1599.306
  23748059.664    23748060.2854   23748061.5354  124796872.592 6  97244354.49042
      3513.237        2737.607
  22917632.984    22917632.0314   22917633.5874  120432956.902 6  93843878.18243
     -3003.701       -2340.582
  22305429.420    22305429.2294   22305427.7474  117215822.568 7  91337015.10544
      1716.647        1337.632
  22054071.999    22054072.2764   22054074.2204  115894927.875 7  90307748.74045
     -2519.613       -1963.332
  23143990.559    23143990.9274   23143992.6804  121622481.468 6  94770783.69043
       695.087         541.632
  21729078.196    21729078.6014   21729079.5984  114187074.960 7  88976954.04045
       333.854         260.150
 06  5  5 12 36  0.0000000  0 10G 1G 2G 4G 5G13G20G23G24G25G30
  24026779.097    24026778.7274   24026781.5254  126261553.942 6  98385648.66242
     -2921.596       -2276.587
  21330315.062    21330315.0564   21330314.1414  112091559.350 7  87344085.44245
      2396.966        1867.761
  20590600.165    20590600.4844   20590601.5144  108204329.257 8  84315077.24646
      -355.221        -276.793
  22282725.593    22282725.1374   22282726.5814  117096510.074 6  91244046.46944
     -2072.294       -1614.767
  23728034.988    23728035.4744   23728036.7254  124691648.217 5  97162361.55042
      3501.309        2728.266
  22934821.364    22934821.2664   22934822.0204  120523284.632 6  93914263.37943
     -3018.572       -2352.128
  22295689.530    22295689.4634   22295688.1534  117164639.332 7  91297132.03044
      1695.201        1320.964
  22068497.859    22068497.6444   22068499.5834  115970733.691 7  90366818.12945
     -2534.445       -1974.903
  23140081.574    23140081.3174   23140082.9744  121601934.305 6  94754772.92343
       674.253         525.405
  21727240.274    21727240.7864   21727241.9594  114177418.380 7  88969429.51645
       309.430         241.108
 06  5  5 12 36 30.0000000  0 10G 1G 2G 4G 5G13G20G23G24G25G30
  24043494.837    24043497.2944   24043498.7554  126349404.528 5  98454103.63742
     -2935.774       -2287.617
  21316682.197    21316682.1164   21316681.3914  112019919.023 8  87288261.74345
      2378.685        1853.523
  20592689.833    20592690.1724   20592691.2784  108215310.317 8  84323633.88346
      -377.108        -293.851
  22294611.331    22294610.8994   22294613.1104  117158970.655 7  91292717.02044
     -2092.167       -1630.275
  23708080.655    23708080.1694   23708081.9934  124586782.374 6  97080647.94442
      3489.379        2719.036
  22952095.080    22952094.4704   22952095.8664  120614055.205 6  93984993.66243
     -3033.287       -2363.573
  22286072.006    22286072.0134   22286070.4234  117114098.535 7  91257749.52644
      1673.811        1304.266
  22083007.783    22083007.6354   22083009.6964  116046984.641 7  90426234.43145
     -2549.209       -1986.396
  23136289.978    23136289.6664   23136291.7584  121582010.342 6  94739247.76743
       653.437         509.182
  21725542.385    21725542.6304   21725543.7654  114168493.769 8  88962475.31145
       285.090         222.155
 06  5  5 12 37  0.0000000  0 10G 1G 2G 4G 5G13G20G23G24G25G30
  24060292.517    24060293.0494   24060296.5824  126437673.379 5  98522884.49142
     -2949.377       -2298.155
  21303152.893    21303152.8654   21303152.1684  111948821.613 7  87232861.11845
      2360.598        1839.424
  20594903.159    20594903.4784   20594904.3264  108226941.529 8  84332697.21746
      -398.720        -310.685
  22306608.907    22306608.6084   22306610.1804  117222018.150 7  91341844.98444
     -2111.550       -1645.359
  23688191.333    23688191.8494   23688194.2464  124482270.378 6  96999210.04042
      3477.524        2709.764
  22969449.127    22969449.2574   22969451.5594  120705258.638 6  94056061.26443
     -3047.531       -2374.672
  22276575.314    22276575.4714   22276573.9824  117064194.323 7  91218863.05844
      1652.670        1287.809
  22097600.763    22097600.6244   22097603.0534  116123670.837 7  90485989.88244
     -2563.644       -1997.635
  23132616.065    23132616.1724   23132616.8064  121562702.337 7  94724202.58543
       633.141         493.344
  21723981.420    21723981.9804   21723982.9944  114160293.776 7  88956085.77945
       261.061         203.433
 06  5  5 12 37 30.0000000  0 10G 1G 2G 4G 5G13G20G23G24G25G30
  24077168.725    24077167.7764   24077170.7404  126526351.605 5  98591984.38542
     -2963.220       -2309.021
  21289726.151    21289726.0064   21289725.1594  111878262.932 8  87177880.33346
      2342.520        1825.343
  20597239.066    20597239.1494   20597240.2274  108239215.834 8  84342261.61346
      -420.431        -327.601
  22318716.399    22318716.4004   22318717.7364  117285643.766 7  91391423.30644
     -2130.854       -1660.422
  23668371.479    23668370.7544   23668372.1294  124378109.479 6  96918045.83042
      3465.685        2700.492
  22986885.819    22986885.6874   22986888.0524  120796885.396 6  94127458.69743
     -3061.831       -2385.864
  22267199.653    22267199.3734   22267197.8714  117014922.155 7  91180469.09144
      1631.288        1271.138
  22112275.061    22112274.7734   22112277.1524  116200783.820 7  90546077.84444
     -2578.134       -2008.940
  23129057.049    23129057.2044   23129059.3814  121544004.667 6  94709633.00343
       612.544         477.286
  21722558.026    21722558.4304   21722559.6564  114152812.133 7  88950255.92145
       237.002         184.671
 06  5  5 12 38  0.0000000  0 10G 1G 2G 4G 5G13G20G23G24G25G30
  24094121.320    24094120.7094   24094122.6024  126615438.325 5  98661402.56942
     -2976.544       -2319.391
  21276402.663    21276402.5094   21276401.4614  111808247.048 8  87123322.58645
      2324.421        1811.248
  20599697.184    20599697.6604   20599698.5534  108252134.975 8  84352328.51046
      -441.740        -344.189
  22330934.250    22330933.8164   22330935.8854  117349847.565 7  91441452.20944
     -2150.137       -1675.424
  23648618.126    23648618.2404   23648618.1834  124274303.738 6  96837158.24842
      3453.732        2691.243
  23004402.686    23004402.3724   23004404.3084  120888934.636 6  94199185.33243
     -3075.693       -2396.583
  22257944.465    22257944.3464   22257942.7874  116966285.821 7  91142570.58744
      1610.219        1254.724
  22127029.926    22127029.9524   22127032.3794  116278323.953 7  90606498.74644
     -2592.163       -2019.844
  23125616.991    23125617.0194   23125617.8054  121525919.845 6  94695540.94743
       592.270         461.520
  21721271.230    21721271.5904   21721272.8164  114146051.055 7  88944987.56645
       213.064         166.035
 06  5  5 12 38 30.0000000  0 10G 1G 2G 4G 5G13G20G23G24G25G30
  24111146.965    24111146.7254   24111149.9864  126704912.883 5  98731122.97142
     -2988.909       -2328.980
  21263179.087    21263179.1574   21263178.4814  111738757.618 7  87069174.86645
      2307.496        1798.055
  20602274.876    20602275.1214   20602276.1534  108265680.104 8  84362883.17746
      -461.985        -359.982
  22343258.050    22343257.7554   22343259.0834  117414609.211 7  91491915.85544
     -2168.031       -1689.369
  23628928.011    23628928.9834   23628929.9474  124170838.928 5  96756536.38642
      3443.171        2683.010
  23021995.773    23021995.6974   23021996.9074  120981385.961 6  94271225.25543
     -3088.435       -2406.577
  22248807.235    22248806.9304   22248805.6514  116918268.820 7  91105154.66144
      1590.166        1239.082
  22141862.985    22141862.9354   22141865.2924  116356270.545 7  90667236.28944
     -2604.999       -2029.889
  23122286.850    23122287.8644   23122290.2614  121508430.484 6  94681912.89443
       573.007         446.490
  21720118.692    21720119.0604   21720120.2904  114139993.341 7  88940267.30145
       190.158         148.176
 06  5  5 12 39  0.0000000  0 10G 1G 2G 4G 5G13G20G23G24G25G30
  24128246.143    24128247.3484   24128249.1564  126794770.794 5  98801142.09942
     -3002.157       -2339.369
  21250056.026    21250056.1434   21250055.2014  111669795.421 8  87015438.10846
      2289.314        1783.886
  20604971.251    20604971.4424   20604972.3814  108279848.958 8  84373923.82846
      -483.320        -376.608
  22355687.149    22355686.7694   22355688.1474  117479924.543 7  91542810.90344
     -2186.941       -1704.113
  23609304.821    23609305.7034   23609305.7014  124067715.922 6  96676180.88242
      3431.101        2673.554
  23039664.614    23039663.4744   23039665.0434  121074235.381 6  94343575.40643
     -3102.223       -2417.310
  22239787.850    22239787.7614   22239786.0924  116870871.532 7  91068221.66644
      1568.913        1222.556
  22156772.161    22156772.5224   22156774.5574  116434620.330 7  90728288.03444
     -2618.987       -2040.761
  23119073.740    23119073.6704   23119074.7104  121491535.508 6  94668748.03644
       552.577         430.568
  21719099.461    21719099.7094   21719100.8204  114134636.974 7  88936093.52445
       166.220         129.534
 06  5  5 12 39 30.0000000  0 10G 1G 2G 4G 5G13G20G23G24G25G30
  24145419.269    24145419.7604   24145422.2884  126885012.316 6  98871460.12142
     -3014.847       -2349.229
  21237034.352    21237034.2984   21237033.2874  111601365.175 8  86962115.87546
      2271.789        1770.209
  20607786.441    20607786.8094   20607787.7184  108294643.989 8  84385452.44046
      -503.905        -392.654
  22368221.624    22368221.4964   22368223.3474  117545794.195 7  91594137.85944
     -2205.278       -1718.397
  23589748.219    23589748.5934   23589747.5714  123964940.705 6  96596096.26642
      3419.680        2664.723
  23057408.101    23057408.9064   23057409.9764  121167482.674 6  94416235.53443
     -3115.233       -2427.448
  22230887.110    22230887.0454   22230885.6024  116824098.578 7  91031775.22244
      1548.328        1206.481
  22171758.912    22171758.9374   22171760.6734  116513374.467 7  90789654.90844
     -2632.258       -2051.123
  23115971.259    23115971.7824   23115973.1444  121475238.468 7  94656049.08043
       532.859         415.193
  21718213.750    21718214.5574   21718215.6044  114129985.065 7  88932468.68245
       142.985         111.410
 06  5  5 12 40  0.0000000  0 10G 1G 2G 4G 5G13G20G23G24G25G30
  24162662.635    24162662.5314   24162664.0724  126975618.410 6  98942062.24842
     -3026.839       -2358.554
  21224111.074    21224110.9254   21224110.0914  111533452.343 8  86909196.76546
      2254.512        1756.755
  20610717.926    20610718.2294   20610719.1964  108310048.252 8  84397455.77746
      -524.206        -408.463
  22380858.374    22380857.7794   22380859.6044  117612199.804 7  91645882.50444
     -2223.038       -1732.243
  23570253.471    23570254.0154   23570254.4754  123862499.986 6  96516272.43142
      3408.679        2656.104
  23075226.084    23075225.0404   23075226.1494  121261109.210 6  94489191.22743
     -3127.758       -2437.188
  22222102.728    22222102.4074   22222100.6264  116777935.344 7  90995803.88044
      1528.039        1190.688
  22186818.535    22186818.6294   22186820.4194  116592514.377 7  90851322.41344
     -2644.981       -2061.028
  23112981.866    23112982.1094   23112983.3794  121459523.469 7  94643803.65344
       513.532         400.164
  21717460.287    21717460.5074   21717461.4854  114126021.530 7  88929380.21045
       119.981          93.490
 06  5  5 12 40 30.0000000  0 10G 1G 2G 4G 5G13G20G23G24G25G30
  24179972.624    24179972.1044   24179974.9254  127066588.500 6  99012947.98442
     -3039.081       -2368.114
  21211286.866    21211286.7914   21211286.0034  111466061.243 8  86856684.10946
      2237.108        1743.198
  20613765.467    20613765.7614   20613766.7564  108326063.137 8  84409934.89246
      -544.481        -424.268
  22393596.769    22393596.7594   22393598.2374  117679140.797 6  91698044.24644
     -2240.757       -1746.045
  23550824.241    23550824.2324   23550825.8064  123760399.053 6  96436713.26042
      3397.113        2647.118
  23093113.876    23093113.7314   23093115.8534  121355114.344 6  94562442.00143
     -3140.364       -2447.030
  22213434.768    22213434.6184   22213433.2804  116732385.783 7  90960310.74744
      1507.526        1174.701
  22201951.937    22201952.0944   22201954.0034  116672040.144 7  90913290.57944
     -2657.733       -2070.953
  23110100.509    23110101.9154   23110103.8174  121444393.256 6  94632013.93043
       493.984         384.909
  21716836.701    21716837.7574   21716838.4574  114122748.648 7  88926829.89945
        96.964          75.560
 06  5  5 12 41  0.0000000  0 10G 1G 2G 4G 5G13G20G23G24G25G30
  24197353.213    24197351.6304   24197353.6124  127157918.090 6  99084113.85342
     -3051.216       -2377.579
  21198562.299    21198562.2594   21198561.0784  111399192.467 8  86804578.56646
      2219.217        1729.267
  20616928.773    20616928.9914   20616929.9844  108342686.417 8  84422888.09446
      -565.268        -440.464
  22406436.141    22406435.9294   22406437.7914  117746613.371 7  91750620.25344
     -2258.909       -1760.213
  23531459.699    23531460.0804   23531462.2644  123658638.939 6  96357419.73542
      3385.272        2637.837
  23111073.840    23111073.1334   23111075.0964  121449493.735 6  94635984.44643
     -3153.130       -2457.004
  22204883.930    22204883.7324   22204881.8674  116687449.616 7  90925295.57544
      1486.671        1158.449
  22217158.056    22217157.8414   22217160.3274  116751947.934 7  90975556.33744
     -2670.974       -2081.292
  23107334.352    23107334.1094   23107336.0434  121429846.352 6  94620678.67743
       474.254         369.570
  21716345.316    21716345.7044   21716346.9124  114120164.791 7  88924816.49745
        73.657          57.403
 06  5  5 12 41 30.0000000  0 10G 1G 2G 4G 5G13G20G23G24G25G30
  24214798.306    24214798.4054   24214802.1974  127249603.397 6  99155556.91742
     -3062.665       -2386.519
  21185936.974    21185936.9574   21185935.9584  111332846.689 8  86752880.56846
      2202.260        1716.054
  20620207.481    20620207.6364   20620208.7414  108359916.201 8  84436313.92446
      -584.980        -455.824
  22419376.358    22419376.5264   22419378.3784  117814613.842 6  91803607.56444
     -2275.965       -1773.485
  23512162.441    23512160.8334   23512162.4734  123557221.461 6  96278393.22542
      3374.307        2629.307
  23129103.263    23129103.5004   23129105.2804  121544243.562 6  94709815.52543
     -3165.052       -2466.274
  22196449.190    22196449.4584   22196447.8754  116643127.218 7  90890758.68244
      1466.631        1142.811
  22232436.106    22232435.9804   22232438.8064  116832234.919 7  91038117.61044
     -2683.092       -2090.716
  23104674.838    23104676.0314   23104678.3794  121415882.467 6  94609797.76543
       455.175         354.670
  21715984.683    21715985.0804   21715985.8864  114118268.901 7  88923339.19945
        51.160          39.867
 06  5  5 12 42  0.0000000  0 10G 1G 2G 4G 5G13G20G23G24G25G30
  24232314.981    24232313.2684   24232315.5904  127341638.417 6  99227272.48342
     -3073.555       -2394.962
  21173410.902    21173411.1664   21173410.1364  111267022.774 8  86701589.27646
      2185.444        1702.933
  20623600.812    20623601.1624   20623602.1324  108377748.505 8  84450209.20946
      -604.327        -470.905
  22432415.975    22432416.0044   22432417.7474  117883136.910 6  91857002.13344
     -2292.789       -1786.591
  23492926.729    23492926.3364   23492929.0624  123456146.880 6  96199633.93742
      3363.433        2620.881
  23147203.717    23147203.1304   23147206.1484  121639357.780 6  94783930.43943
     -3176.374       -2475.095
  22188131.522    22188131.7034   22188130.2584  116599417.164 7  90856698.90844
      1446.924        1127.466
  22247785.515    22247785.5344   22247787.7214  116912895.943 7  91100970.36644
     -2694.793       -2099.838
  23102130.133    23102130.2234   23102130.9724  121402498.724 6  94599368.89443
       436.657         340.250
  21715753.887    21715754.4544   21715755.8004  114117057.837 7  88922395.51045
        29.060          22.640
 06  5  5 12 42 30.0000000  0 10G 1G 2G 4G 5G13G20G23G24G25G30
  24249892.831    24249890.9994   24249893.1644  127434011.248 6  99299251.26542
     -3085.362       -2404.168
  21160982.886    21160983.0764   21160982.1894  111201713.158 8  86650698.73346
      2167.743        1689.156
  20627107.181    20627107.2894   20627108.5254  108396173.332 8  84464566.11146
      -624.556        -486.658
  22445552.551    22445552.2724   22445554.6744  117952170.963 6  91910794.93644
     -2310.365       -1800.300
  23473757.558    23473758.2974   23473759.5564  123355408.315 6  96121136.32642
      3351.672        2611.674
  23165370.370    23165370.4924   23165371.8614  121734824.539 6  94858319.89142
     -3188.677       -2484.650
  22179928.629    22179928.6574   22179927.8024  116556311.836 7  90823110.34644
      1426.228        1111.350
  22263203.885    22263203.5634   22263206.0344  116993919.442 7  91164105.50944
     -2707.351       -2109.609
  23099690.884    23099691.4014   23099693.7694  121389686.260 6  94589385.14343
       416.900         324.853
  21715652.428    21715652.5894   21715653.6204  114116522.401 7  88921978.29745
         5.902           4.601
 06  5  5 12 43  0.0000000  0 10G 1G 2G 4G 5G13G20G23G24G25G30
  24267533.185    24267534.0664   24267536.8594  127526724.797 6  99371495.56442
     -3096.687       -2413.026
  21148654.284    21148654.4974   21148653.6304  111136925.486 8  86600214.81946
      2150.584        1675.804
  20630726.963    20630727.2484   20630728.2564  108415195.730 8  84479388.72946
      -644.235        -501.988
  22458787.799    22458787.1454   22458788.5894  118021718.967 6  91964988.12044
     -2327.200       -1813.399
  23454653.053    23454652.1644   23454653.8484  123255015.031 5  96042907.89442
      3340.298        2602.817
  23183604.467    23183604.0884   23183606.3554  121830646.898 6  94932986.47842
     -3200.328       -2493.715
  22171842.915    22171842.6304   22171841.3364  116513818.639 7  90789998.73744
      1405.844        1095.486
  22278691.828    22278691.6614   22278693.9724  117075309.314 7  91227526.19344
     -2719.348       -2118.963
  23097364.548    23097364.0244   23097364.8364  121377451.270 6  94579851.39143
       397.798         309.988
  21715679.964    21715680.7034   21715681.0864  114116667.975 7  88922091.71245
       -16.540         -12.859
 06  5  5 12 43 30.0000000  0 10G 1G 2G 4G 5G13G20G23G24G25G30
  24285241.519    24285241.6744   24285243.3034  127619778.548 6  99444004.94342
     -3107.855       -2421.729
  21136425.775    21136426.0544   21136425.1564  111072664.026 8  86550140.93946
      2132.723        1661.858
  20634460.939    20634461.2074   20634462.1934  108434817.538 8  84494678.45546
      -664.510        -517.800
  22472119.818    22472119.2954   22472121.4464  118091781.068 6  92019581.94043
     -2344.542       -1826.912
  23435615.725    23435615.8604   23435615.8604  123154972.086 6  95964952.38342
      3328.319        2593.499
  23201907.357    23201905.7284   23201908.7024  121926824.637 6  95007930.01442
     -3212.276       -2503.061
  22163873.909    22163873.7694   22163872.4934  116471941.217 7  90757366.95444
      1385.167        1079.369
  22294249.615    22294249.4734   22294251.6754  117157065.502 7  91291232.29044
     -2731.771       -2128.654
  23095145.218    23095145.8504   23095146.5924  121365796.484 6  94570769.73843
       378.454         294.888
  21715837.583    21715838.1974   21715839.1564  114117497.101 7  88922737.73945
       -39.429         -30.733
 06  5  5 12 44  0.0000000  0 10G 1G 2G 4G 5G13G20G23G24G25G30
  24303011.147    24303011.2284   24303013.3764  127713160.646 6  99516770.15342
     -3118.815       -2430.212
  21124296.271    21124296.2974   21124295.1974  111008921.640 8  86500471.52646
      2115.452        1648.416
  20638306.923    20638307.2154   20638308.2684  108455028.378 8  84510427.12546
      -684.138        -533.073
  22485548.521    22485547.4794   22485549.4364  118162345.315 6  92074566.91243
     -2361.059       -1839.780
  23416643.502    23416643.7624   23416645.1544  123055273.343 6  95887265.06042
      3317.038        2584.692
  23220274.719    23220274.3974   23220276.1004  122023346.061 6  95083141.46342
     -3223.695       -2511.944
  22156021.143    22156020.4924   22156019.2314  116430672.199 7  90725209.23344
      1364.911        1063.569
  22309874.588    22309874.6864   22309877.2904  117239176.780 7  91355215.08144
     -2743.506       -2137.801
  23093036.615    23093036.5624   23093038.0794  121354713.103 7  94562133.41343
       359.361         280.010
  21716123.945    21716124.4004   21716125.3894  114119000.390 7  88923909.08545
       -61.945         -48.269
 06  5  5 12 44 30.0000000  0 10G 1G 2G 4G 5G13G20G23G24G25G30
  24320844.264    24320843.8244   24320846.4854  127806868.995 6  99589789.60542
     -3128.962       -2438.200
  21112265.957    21112265.8144   21112264.6494  110945700.963 7  86451208.68246
      2098.820        1635.455
  20642264.808    20642265.2954   20642266.4774  108475828.209 8  84526634.70746
      -702.964        -547.752
  22499071.476    22499071.0264   22499073.0684  118233410.537 6  92129942.38043
     -2376.988       -1852.196
  23397737.885    23397737.9254   23397738.7564  122955922.254 6  95809848.60342
      3306.299        2576.336
  23238706.379    23238705.8144   23238708.0754  122120209.125 6  95158619.18442
     -3234.293       -2520.202
  22148283.397    22148283.3494   22148282.3364  116390013.811 7  90693527.39944
      1345.287        1048.282
  22325567.063    22325566.9954   22325569.3704  117321642.028 7  91419473.69944
     -2754.448       -2146.327
  23091035.793    23091036.9174   23091037.6454  121344202.125 6  94553943.06944
       340.859         265.617
  21716538.661    21716538.8864   21716540.2474  114121178.642 7  88925606.33845
       -83.779         -65.278
 06  5  5 12 45  0.0000000  0 10G 1G 2G 4G 5G13G20G23G24G25G30
  24338737.457    24338734.7514   24338737.5134  127900892.402 6  99663054.56142
     -3140.292       -2447.005
  21100333.256    21100333.2744   21100332.2084  110882995.560 8  86402347.35046
      2080.806        1621.400
  20646333.393    20646333.7184   20646334.9384  108497208.009 8  84543294.26846
      -723.021        -563.413
  22512687.588    22512687.4024   22512689.6214  118304965.551 6  92185699.46443
     -2394.202       -1865.614
  23378896.859    23378897.2464   23378898.8384  122856913.625 6  95732699.06442
      3293.684        2566.500
  23257202.644    23257201.8054   23257203.2084  122217402.689 6  95234354.40242
     -3246.050       -2529.436
  22140661.665    22140661.1524   22140660.1344  116349958.911 7  90662315.82844
      1324.278        1031.876
  22341325.837    22341325.2244   22341327.4304  117404450.614 7  91483999.83444
     -2766.753       -2155.934
  23089143.080    23089142.9684   23089144.7484  121334255.495 6  94546192.50743
       321.270         250.336
  21717080.106    21717080.7254   21717081.3954  114124023.142 7  88927822.74645
      -106.803         -83.223
 06  5  5 12 45 30.0000000  0 10G 1G 2G 4G 5G13G20G23G24G25G30
  24356685.545    24356688.0484   24356689.3764  127995229.615 5  99736564.01842
     -3149.874       -2454.438
  21088499.438    21088499.5414   21088498.3074  110820808.687 8  86353890.08446
      2064.049        1608.356
  20650512.284    20650512.6184   20650513.7454  108519168.439 8  84560406.27546
      -741.863        -578.063
  22526396.741    22526396.3254   22526398.5594  118377009.302 6  92241837.35743
     -2409.790       -1877.767
  23360122.058    23360122.0574   23360122.9654  122758251.562 6  95655819.53842
      3282.641        2557.889
  23275759.583    23275759.7794   23275762.1244  122314925.264 6  95310345.93542
     -3256.415       -2537.462
  22133154.190    22133154.7924   22133152.9694  116310510.599 7  90631576.94544
      1304.620        1016.589
  22357148.518    22357148.4994   22357150.7554  117487602.066 7  91548793.16744
     -2777.552       -2164.329
  23087359.658    23087359.4334   23087360.0934  121324874.948 7  94538883.00844
       303.153         236.221
  21717748.238    21717748.6884   21717749.6994  114127535.275 7  88930559.41745
      -128.375        -100.016
 06  5  5 12 46  0.0000000  0 10G 1G 2G 4G 5G13G20G23G24G25G30
  24374699.179    24374698.1984   24374699.9374  128089876.111 6  99810314.51542
     -3160.371       -2462.652
  21076764.256    21076764.2614   21076763.4724  110759140.448 8  86305836.90546
      2046.551        1594.737
  20654801.256    20654801.6184   20654802.8504  108541707.214 8  84577969.01446
      -761.417        -593.303
  22540199.043    22540198.3984   22540200.4204  118449537.906 6  92298353.16343
     -2425.939       -1890.343
  23341413.246    23341414.5394   23341415.2724  122659937.604 6  95579211.25042
      3271.000        2548.871
  23294380.236    23294379.6934   23294382.2794  122412772.790 6  95386590.72042
     -3267.422       -2546.019
  22125763.545    22125763.2434   22125761.7264  116271668.590 7  90601310.45944
      1284.078        1000.584
  22373036.191    22373036.2984   22373038.9054  117571092.735 7  91613850.82544
     -2789.142       -2173.367
  23085680.768    23085680.2794   23085682.0424  121316059.113 7  94532013.52643
       283.976         221.294
  21718543.635    21718543.9534   21718544.8604  114131713.653 7  88933815.22045
      -150.764        -117.467
 06  5  5 12 46 30.0000000  0 10G 1G 2G 4G 5G13G20G23G24G25G30
  24392769.020    24392768.7234   24392772.3784  128184837.317 5  99884310.22242
     -3170.727       -2470.723
  21065129.767    21065129.7974   21065128.9324  110698000.978 7  86258195.82546
      2029.003        1581.047
  20659201.465    20659201.8704   20659203.0164  108564830.848 8  84595987.44446
      -780.737        -608.360
  22554094.091    22554093.2904   22554095.4204  118522556.719 6  92355250.93843
     -2442.252       -1903.056
  23322773.328    23322773.2774   23322775.1504  122561982.933 6  95502882.93142
      3258.885        2539.324
  23313062.654    23313061.9444   23313064.3974  122510950.740 6  95463093.02242
     -3278.289       -2554.519
  22118488.703    22118488.8284   22118487.5644  116233442.349 7  90571523.78944
      1263.760         984.742
  22388989.649    22388989.4844   22388991.9414  117654928.591 7  91679177.42544
     -2800.448       -2182.146
  23084113.448    23084113.1574   23084113.7244  121307816.289 6  94525590.53643
       264.918         206.441
  21719466.463    21719467.1994   21719468.3394  114136565.273 7  88937595.65645
      -173.038        -134.821
 06  5  5 12 47  0.0000000  0 10G 1G 2G 4G 5G13G20G23G24G25G30
  24410897.649    24410896.9674   24410899.4914  128280103.781 5  99958543.80342
     -3180.819       -2478.543
  21053594.953    21053595.0734   21053594.1804  110637385.261 8  86210962.80846
      2011.729        1567.586
  20663711.768    20663712.0214   20663713.3164  108588532.331 8  84614456.15746
      -799.702        -623.148
  22568080.810    22568079.9814   22568082.1034  118596056.704 6  92412523.64343
     -2458.168       -1915.438
  23304200.061    23304201.4824   23304201.6264  122464383.968 6  95426831.83242
      3247.089        2530.200
  23331805.745    23331806.0574   23331808.9984  122609449.701 6  95539845.45842
     -3288.804       -2562.741
  22111331.047    22111330.8974   22111329.2154  116195826.650 7  90542212.84744
      1243.546         969.009
  22405007.343    22405007.2724   22405009.1704  117739100.958 6  91744766.23644
     -2811.530       -2190.809
  23082651.912    23082651.8894   23082653.5594  121300140.006 7  94519608.94543
       246.464         192.018
  21720517.032    21720517.3234   21720518.1954  114142083.697 7  88941895.68745
      -195.062        -151.991
 06  5  5 12 47 30.0000000  0 11G 1G 2G 4G 5G 6G13G20G23G24G25G30
  24429081.699    24429082.1454   24429085.1434  128375666.434 5 100033008.19542
     -3190.585       -2486.151
  21042158.727    21042158.9984   21042158.1914  110577289.070 8  86164134.61246
      1994.298        1554.002
  20668330.730    20668330.9594   20668332.0834  108612804.271 8  84633369.34646
      -818.817        -638.048
  22582157.025    22582156.4714   22582158.7584  118670028.840 6  92470164.22543
     -2473.758       -1927.614
  24553368.626    24553367.8584   24553369.4124  129028809.782 5 100541954.46841
      3538.182        2756.997
  23285695.532    23285696.3514   23285696.9974  122367137.001 6  95351055.05042
      3235.450        2521.140
  23350609.319    23350609.2354   23350610.4734  122708260.521 6  95616840.89042
     -3299.144       -2570.780
  22104288.338    22104288.0954   22104286.8134  116158816.401 7  90513373.68944
      1223.172         953.136
  22421086.903    22421087.0154   22421089.3384  117823601.641 7  91810610.91244
     -2822.352       -2199.228
  23081296.900    23081297.4804   23081298.6194  121293024.409 6  94514064.28343
       227.467         177.251
  21721692.813    21721693.2394   21721694.0374  114148262.631 7  88946710.41245
      -217.237        -169.275
 06  5  5 12 48  0.0000000  0 11G 1G 2G 4G 5G 6G13G20G23G24G25G30
  24447323.109    24447322.5774   24447325.6174  128471522.720 5 100107701.35142
     -3199.929       -2493.423
  21030822.333    21030822.2564   21030821.5234  110517714.053 8  86117712.50746
      1977.185        1540.671
  20673057.747    20673058.1674   20673059.1694  108637646.289 8  84652726.82146
      -837.598        -652.676
  22596322.157    22596322.2534   22596324.2454  118744471.353 6  92528171.45543
     -2489.074       -1939.540
  24533181.194    24533181.4774   24533183.9064  128922726.806 5 100459292.38041
      3533.982        2753.688
  23267256.374    23267258.4974   23267258.0684  122270245.289 6  95275554.97542
      3223.763        2512.012
  23369472.154    23369471.0054   23369473.0244  122807380.875 6  95694077.45342
     -3309.169       -2578.542
  22097360.746    22097360.8994   22097359.3434  116122413.793 7  90485008.03544
      1203.252         937.596
  22437229.331    22437229.1234   22437231.6754  117908428.608 7  91876709.84944
     -2833.064       -2207.573
  23080050.324    23080050.6644   23080051.3784  121286469.946 6  94508956.85843
       209.165         162.992
  21722994.506    21722995.0894   21722995.7224  114155101.517 7  88952039.34045
      -238.855        -186.117
 06  5  5 12 48 30.0000000  0 11G 1G 2G 4G 5G 6G13G20G23G24G25G30
  24465620.370    24465618.7284   24465621.0054  128567670.191 6 100182621.42342
     -3209.886       -2501.245
  21019585.228    21019585.3304   21019584.2164  110458662.379 8  86071698.22246
      1959.748        1527.064
  20677893.533    20677893.8434   20677894.8464  108663057.147 8  84672527.49846
      -856.405        -667.325
  22610577.306    22610577.2814   22610579.4204  118819381.274 6  92586542.82243
     -2504.729       -1951.725
  24513019.672    24513021.1444   24513022.4294  128816786.706 5 100376741.65041
      3528.890        2749.754
  23248887.868    23248888.7924   23248888.8044  122173711.797 6  95200334.06142
      3211.991        2502.864
  23388392.339    23388391.7074   23388394.5994  122906808.373 6  95771553.38042
     -3319.339       -2586.541
  22090549.800    22090549.4994   22090547.9394  116086619.930 7  90457116.74845
      1182.979         921.759
  22453432.777    22453433.1294   22453435.6514  117993579.787 7  91943061.38444
     -2843.623       -2215.827
  23078909.088    23078909.1244   23078912.3524  121280476.889 6  94504286.92143
       190.241         148.226
  21724421.306    21724421.7314   21724422.6654  114162600.457 7  88957882.66745
      -261.004        -203.391
 06  5  5 12 49  0.0000000  0 11G 1G 2G 4G 5G 6G13G20G23G24G25G30
  24483969.538    24483968.7234   24483971.7394  128664100.375 5 100257761.79642
     -3219.427       -2508.615
  21008446.983    21008446.9534   21008446.0304  110400130.564 8  86026089.00646
      1941.832        1513.123
  20682836.087    20682836.4894   20682837.4064  108689030.624 8  84692766.60146
      -875.775        -682.416
  22624919.672    22624919.5074   22624921.2544  118894750.691 6  92645272.18343
     -2520.504       -1964.018
  24492887.957    24492887.7834   24492891.3424  128710985.627 5 100294299.15441
      3523.930        2745.932
  23230584.970    23230585.1654   23230587.3954  122077534.398 6  95125390.71942
      3199.206        2492.863
  23407369.624    23407368.8644   23407371.5704  123006534.707 6  95849262.15842
     -3329.784       -2594.594
  22083853.856    22083853.1194   22083851.6044  116051430.711 7  90429696.64144
      1162.275         905.667
  22469696.868    22469696.8914   22469699.8614  118079047.901 7  92009659.88544
     -2854.895       -2224.605
  23077875.519    23077876.2564   23077876.5914  121275039.765 7  94500050.15143
       171.532         133.685
  21725973.040    21725973.5994   21725974.4474  114170753.898 7  88964236.04945
      -283.165        -220.643
 06  5  5 12 49 30.0000000  0 11G 1G 2G 4G 5G 6G13G20G23G24G25G30
  24502375.223    24502374.8454   24502377.6644  128760823.055 5 100333130.08642
     -3228.905       -2516.033
  20997410.441    20997410.4904   20997409.4884  110342132.927 8  85980896.05746
      1924.262        1499.422
  20687887.971    20687888.1704   20687889.1694  108715578.278 8  84713453.06646
      -894.537        -697.051
  22639351.348    22639351.2894   22639353.4034  118970589.619 6  92704367.40143
     -2535.766       -1975.948
  24472783.752    24472784.4744   24472785.3374  128605339.276 5 100211977.41541
      3518.977        2742.032
  23212354.978    23212355.2704   23212355.2464  121981728.127 6  95050736.52442
      3187.240        2483.573
  23426405.212    23426405.2984   23426408.1454  123106569.559 6  95927211.36242
     -3339.666       -2602.396
  22077274.613    22077274.4634   22077273.0754  116016859.858 7  90402758.35145
      1141.985         889.857
  22486023.316    22486023.2364   22486025.9494  118164843.237 7  92076513.27744
     -2865.372       -2232.773
  23076948.330    23076948.9054   23076950.1534  121270171.470 6  94496256.61643
       152.785         119.069
  21727651.053    21727651.7354   21727652.8294  114179573.684 7  88971108.65045
      -305.111        -237.745
 06  5  5 12 50  0.0000000  0 11G 1G 2G 4G 5G 6G13G20G23G24G25G30
  24520835.253    24520835.4754   24520836.6514  128857831.947 6 100408721.43142
     -3238.823       -2523.741
  20986475.375    20986475.1534   20986473.9854  110284667.445 8  85936117.77346
      1906.074        1485.246
  20693047.989    20693048.3924   20693049.2954  108742695.677 8  84734583.49746
      -913.903        -712.129
  22653871.271    22653870.8224   22653872.9894  119046892.177 6  92763823.96243
     -2551.648       -1988.306
  24452707.804    24452709.2614   24452711.1724  128499845.571 5 100129774.57341
      3513.536        2737.771
  23194193.755    23194193.2344   23194194.3594  121886292.567 6  94976371.17142
      3174.505        2473.664
  23445499.268    23445498.8744   23445500.2004  123206907.264 6  96005396.57942
     -3350.097       -2610.451
  22070813.549    22070813.3664   22070811.3884  115982905.221 7  90376300.22044
      1121.069         873.566
  22502410.977    22502410.8784   22502413.3434  118250960.482 7  92143617.60444
     -2876.420       -2241.351
  23076130.135    23076130.1824   23076131.8644  121265868.504 6  94492903.62643
       133.564         104.060
  21729455.518    21729456.1374   21729457.2364  114189055.591 7  88978497.10545
      -327.604        -255.284
 06  5  5 12 50 30.0000000  0 11G 1G 2G 4G 5G 6G13G20G23G24G25G30
  24539346.899    24539347.4304   24539350.2744  128955114.386 6 100484525.90042
     -3246.860       -2530.001
  20975639.537    20975639.4634   20975638.4874  110227726.100 8  85891747.92246
      1889.511        1472.353
  20698314.583    20698314.9404   20698316.1424  108770371.572 8  84756149.07846
      -931.627        -725.932
  22668477.914    22668477.7794   22668478.4574  119123645.648 6  92823631.87943
     -2565.599       -1999.155
  24432661.573    24432661.8044   24432662.6014  128394496.831 5 100047684.64941
      3509.546        2734.769
  23176102.458    23176102.7514   23176102.5954  121791220.857 6  94902289.38242
      3163.178        2464.753
  23464648.326    23464647.9484   23464650.2474  123307534.679 6  96083807.51342
     -3358.724       -2617.192
  22064467.461    22064467.8464   22064465.8294  115949557.928 7  90350315.28044
      1101.676         858.449
  22518857.566    22518857.2844   22518860.0354  118337387.478 7  92210963.35644
     -2885.745       -2248.611
  23075417.920    23075417.6794   23075419.5154  121262121.156 7  94489983.58643
       115.903          90.333
  21731383.898    21731384.4234   21731385.5304  114199189.769 7  88986393.86645
      -348.352        -271.423
 06  5  5 12 51  0.0000000  0 11G 1G 2G 4G 5G 6G13G20G23G24G25G30
  24557912.069    24557913.1524   24557914.9394  129052670.928 5 100560543.97141
     -3256.929       -2537.860
  20964904.752    20964904.7224   20964903.6654  110171314.217 8  85847790.67146
      1871.094        1457.997
  20703688.144    20703688.3284   20703689.4804  108798608.735 8  84778152.09946
      -951.005        -741.034
  22683169.919    22683168.9434   22683170.6804  119200850.828 6  92883791.73343
     -2581.439       -2011.509
  24412644.280    24412642.8054   24412645.6934  128289298.781 5  99965712.14541
      3503.646        2730.108
  23158081.628    23158081.3144   23158081.6854  121696519.034 6  94828495.73742
      3149.945        2454.514
  23483851.720    23483852.6434   23483853.5654  123408452.536 5  96162444.70842
     -3369.193       -2625.312
  22058238.012    22058238.2634   22058236.7564  115916822.803 7  90324807.39645
      1080.475         841.924
  22535363.098    22535362.8574   22535365.5084  118424125.451 7  92278551.37744
     -2896.930       -2257.367
  23074810.150    23074809.3424   23074811.8724  121258932.467 6  94487498.65843
        96.563          75.244
  21733436.748    21733437.3384   21733438.5824  114209978.899 7  88994801.01445
      -370.972        -289.068
 06  5  5 12 51 30.0000000  0 11G 1G 2G 4G 5G 6G13G20G23G24G25G30
  24576529.562    24576529.5634   24576532.1474  129150506.271 5 100636779.23541
     -3266.561       -2545.339
  20954272.164    20954272.2364   20954271.1804  110115440.955 8  85804253.12646
      1852.696        1443.651
  20709169.223    20709169.6734   20709170.7424  108827413.535 8  84800597.38546
      -970.255        -756.040
  22697948.395    22697947.5564   22697948.7534  119278512.754 7  92944307.48343
     -2597.185       -2023.767
  24392654.525    24392655.5254   24392658.0674  128184261.083 5  99883864.66841
      3497.734        2725.520
  23140131.844    23140133.3794   23140133.0704  121602197.583 6  94754998.49642
      3136.977        2444.382
  23503111.923    23503112.3914   23503114.3054  123509665.786 6  96241312.09142
     -3379.360       -2633.277
  22052127.031    22052127.1654   22052125.3884  115884708.673 7  90299783.43144
      1059.485         825.577
  22551928.800    22551928.7094   22551931.2424  118511179.915 7  92346385.98344
     -2907.741       -2265.773
  23074311.221    23074312.1144   23074313.0144  121256310.584 6  94485455.51743
        77.231          60.219
  21735615.975    21735616.4974   21735617.8174  114221430.335 7  89003724.18145
      -393.539        -306.661
 06  5  5 12 52  0.0000000  0 11G 1G 2G 4G 5G 6G13G20G23G24G25G30
  24595200.385    24595200.2714   24595202.3194  129248618.944 5 100713230.64541
     -3275.033       -2551.949
  20943742.822    20943742.8844   20943741.7794  110060108.927 8  85761137.20846
      1835.404        1430.182
  20714758.999    20714759.2004   20714760.1814  108856786.119 8  84823485.06446
      -988.609        -770.358
  22712813.312    22712812.7724   22712813.9944  119356629.933 6  93005177.95843
     -2611.279       -2034.767
  24372697.563    24372698.2174   24372699.2074  128079387.244 5  99802144.83641
      3493.132        2721.853
  23122256.581    23122256.5004   23122257.6184  121508260.650 6  94681800.89342
      3124.902        2434.948
  23522428.618    23522428.1634   23522430.0964  123611172.986 6  96320408.49642
     -3388.446       -2640.305
  22046134.611    22046134.6164   22046132.8374  115853217.872 7  90275245.12644
      1039.182         809.732
  22568555.229    22568554.8714   22568557.6014  118598549.805 7  92414466.34244
     -2917.623       -2273.472
  23073920.823    23073921.1854   23073922.7774  121254256.751 6  94483855.04543
        58.897          45.912
  21737921.383    21737921.9074   21737922.9864  114233544.519 7  89013163.78745
      -414.835        -323.251
 06  5  5 12 52 30.0000000  0 11G 1G 2G 4G 5G 6G13G20G23G24G25G30
  24613921.122    24613921.2274   24613923.3764  129346997.414 6 100789889.15841
     -3284.080       -2558.999
  20933315.543    20933315.4804   20933314.4234  110005311.658 8  85718438.00746
      1817.104        1415.915
  20720454.665    20720454.8774   20720455.9014  108886716.793 8  84846807.64346
     -1007.608        -785.167
  22727763.504    22727762.7374   22727764.3574  119435191.329 6  93066394.66143
     -2626.497       -2046.617
  24352771.114    24352771.1184   24352774.2924  127974670.674 5  99720547.62241
      3487.504        2717.489
  23104452.460    23104452.6084   23104453.7494  121414702.795 6  94608898.73642
      3111.735        2424.717
  23541799.181    23541798.7134   23541801.3714  123712963.260 6  96399725.53242
     -3398.177       -2647.965
  22040259.255    22040259.3344   22040258.0134  115822343.115 7  90251186.85245
      1018.268         793.451
  22585238.870    22585239.0664   22585241.9044  118686224.659 6  92482784.39144
     -2928.139       -2281.668
  23073636.243    23073635.9474   23073638.8364  121252762.354 7  94482690.58043
        40.069          31.208
  21740351.182    21740351.4874   21740352.7464  114246312.347 7  89023112.74745
      -436.910        -340.467
 06  5  5 12 53  0.0000000  0 11G 1G 2G 4G 5G 6G13G20G23G24G25G30
  24632689.687    24632691.0174   24632692.2964  129445630.454 5 100866746.02941
     -3292.269       -2565.378
  20922988.508    20922988.3274   20922987.1594  109951042.232 8  85676150.13346
      1799.736        1402.391
  20726254.430    20726254.7814   20726255.8734  108917195.958 8  84870557.63446
     -1025.537        -799.135
  22742795.438    22742794.8424   22742795.7764  119514185.488 6  93127948.49243
     -2640.701       -2057.708
  24332871.940    24332872.5104   24332875.6334  127870104.774 5  99639067.80241
      3482.670        2713.744
  23086720.059    23086720.8724   23086721.3704  121321518.512 6  94536287.69942
      3099.535        2415.252
  23561220.812    23561220.2804   23561221.8804  123815024.831 6  96479253.90342
     -3406.865       -2654.647
  22034500.099    22034499.9034   22034498.2994  115792076.753 7  90227602.65545
       998.378         777.948
  22601979.782    22601979.1864   22601981.5794  118774194.022 6  92551331.85144
     -2937.542       -2288.984
  23073456.826    23073456.8914   23073458.4534  121251818.643 6  94481955.20443
        21.968          17.105
  21742903.363    21742903.9924   21742905.1314  114259724.727 7  89033563.96445
      -458.197        -357.043
 06  5  5 12 53 30.0000000  0 11G 1G 2G 4G 5G 6G13G20G23G24G25G30
  24651508.976    24651508.9464   24651510.8204  129544524.606 5 100943806.37641
     -3300.945       -2572.098
  20912763.714    20912763.8034   20912762.7804  109897311.631 8  85634282.08446
      1781.898        1388.494
  20732160.400    20732160.8284   20732161.7804  108948231.914 8  84894741.51246
     -1044.033        -813.530
  22757911.438    22757911.0074   22757911.4834  119593619.510 6  93189845.26043
     -2655.336       -2069.131
  24313005.546    24313005.7304   24313007.8204  127765701.302 5  99557714.52641
      3477.156        2709.487
  23069060.841    23069061.4874   23069062.4424  121228719.737 6  94463977.04842
      3086.526        2405.070
  23580696.063    23580694.7374   23580696.7384  123917364.514 6  96558999.02142
     -3416.111       -2661.889
  22028858.256    22028857.9924   22028856.5364  115762429.258 7  90204500.71845
       977.723         761.860
  22618777.013    22618776.8054   22618779.4814  118862464.848 7  92620114.20244
     -2947.618       -2296.848
  23073382.791    23073384.1144   23073385.7294  121251434.910 6  94481656.10343
         3.414           2.648
  21745580.044    21745580.4154   21745581.4554  114273790.514 7  89044524.32345
      -479.811        -373.869
 06  5  5 12 54  0.0000000  0 11G 1G 2G 4G 5G 6G13G20G23G24G25G30
  24670378.351    24670376.8814   24670381.3594  129643676.977 5 101021067.93242
     -3309.399       -2578.769
  20902642.104    20902642.0714   20902640.9674  109844121.556 8  85592835.32546
      1763.950        1374.491
  20738172.340    20738172.6054   20738173.5424  108979823.486 8  84919358.34346
     -1062.279        -827.769
  22773109.913    22773109.8294   22773110.8234  119673490.223 6  93252082.18343
     -2669.686       -2080.266
  24293170.251    24293169.5934   24293170.2304  127661462.222 5  99476489.28341
      3471.793        2705.326
  23051476.283    23051476.8794   23051477.3014  121136308.982 6  94391968.61342
      3073.902        2395.213
  23600222.136    23600221.3874   23600223.9054  124019979.825 6  96638959.01342
     -3425.055       -2668.928
  22023334.781    22023334.3194   22023332.8184  115733401.628 7  90181881.76645
       957.243         745.882
  22635631.365    22635631.5534   22635633.4044  118951035.155 7  92689129.92444
     -2957.296       -2304.401
  23073417.260    23073417.0964   23073419.4654  121251611.223 6  94481793.45243
       -15.240         -11.866
  21748380.961    21748381.1914   21748382.7804  114288509.248 7  89055993.44945
      -501.576        -390.848
 06  5  5 12 54 30.0000000  0 10G 2G 4G 5G 6G13G20G23G24G25G30
  20892621.270    20892621.6294   20892620.5604  109791463.689 8  85551803.18146
      1746.339        1360.817
  20744287.642    20744287.8404   20744288.8044  109011959.902 8  84944399.65546
     -1080.311        -841.789
  22788389.395    22788388.9264   22788390.9754  119753785.668 6  93314650.04043
     -2683.560       -2091.084
  24273364.140    24273363.8744   24273365.8754  127557380.459 5  99395386.66041
      3466.672        2701.271
  23033963.639    23033964.0884   23033964.5984  121044280.045 6  94320257.81142
      3061.262        2385.378
  23619798.513    23619799.6834   23619800.9764  124122858.573 6  96719124.17042
     -3433.658       -2675.556
  22017926.829    22017926.6854   22017925.3564  115704985.736 7  90159739.52245
       936.966         730.091
  22652540.535    22652540.1244   22652542.5774  119039893.538 7  92758370.21244
     -2966.781       -2311.770
  23073556.267    23073556.0674   23073556.7514  121252337.904 6  94482359.63243
       -33.512         -26.084
  21751303.812    21751304.6704   21751305.6894  114303870.417 7  89067963.16245
      -522.813        -407.384
 06  5  5 12 55  0.0000000  0 10G 2G 4G 5G 6G13G20G23G24G25G30
  20882703.145    20882703.2524   20882702.4464  109739343.129 8  85511189.75446
      1728.458        1346.834
  20750506.985    20750507.3164   20750508.3044  109044643.066 8  84969866.99446
     -1098.416        -855.923
  22803749.836    22803749.7904   22803750.9484  119834506.285 6  93377549.26443
     -2697.705       -2102.112
  24253587.652    24253588.3924   24253591.6594  127453461.116 5  99314410.63641
      3461.201        2697.049
  23016525.158    23016525.3464   23016526.0554  120952638.370 6  94248848.67442
      3048.333        2375.344
  23639426.550    23639426.5234   23639428.2854  124226000.868 6  96799494.73842
     -3442.423       -2682.424
  22012636.955    22012636.7424   22012635.0864  115677185.483 7  90138076.98244
       916.394         714.065
  22669504.464    22669504.4724   22669507.2544  119129040.404 7  92827835.12144
     -2976.283       -2319.188
  23073798.899    23073799.5464   23073801.0284  121253617.895 6  94483356.93243
       -52.028         -40.532
  21754349.927    21754350.2614   21754351.6714  114319876.747 7  89080435.63145
      -544.344        -424.176
 06  5  5 12 55 30.0000000  0 10G 2G 4G 5G 6G13G20G23G24G25G30
  20872887.009    20872886.9224   20872886.0724  109687757.422 8  85470993.07946
      1710.209        1332.634
  20756829.614    20756829.9444   20756830.9514  109077868.234 8  84995756.73646
     -1116.927        -870.317
  22819190.141    22819189.5364   22819191.7474  119915645.299 6  93440774.41143
     -2711.828       -2113.087
  24233844.604    24233844.8634   24233847.3184  127349702.447 5  99233559.74542
      3455.646        2692.705
  22999159.995    22999160.5404   22999161.0014  120861383.558 6  94177741.02942
      3034.970        2364.952
  23659103.571    23659102.9524   23659104.4674  124329400.093 6  96880065.44242
     -3451.356       -2689.375
  22007463.536    22007463.1244   22007461.4174  115649997.851 7  90116891.76745
       895.543         697.841
  22686522.666    22686522.9044   22686525.2524  119218470.366 7  92897520.75644
     -2986.185       -2326.889
  23074148.282    23074147.7264   23074149.5014  121255447.228 6  94484782.31843
       -70.596         -55.003
  21757517.726    21757518.0884   21757519.2884  114336523.249 7  89093406.94945
      -565.900        -440.957
 06  5  5 12 56  0.0000000  0 10G 2G 4G 5G 6G13G20G23G24G25G30
  20863176.436    20863176.3994   20863175.4994  109636728.370 8  85431230.13246
      1692.148        1318.574
  20763258.772    20763259.1244   20763260.0954  109111654.009 8  85022083.31946
     -1135.073        -884.480
  22834713.301    22834712.8174   22834715.1644  119997220.382 6  93504339.47143
     -2725.853       -2124.062
  24214134.137    24214134.3174   24214136.4504  127246126.747 5  99152851.45842
      3450.109        2688.404
  22981873.394    22981873.1874   22981874.5144  120770538.277 6  94106952.57943
      3021.927        2354.734
  23678832.616    23678831.5504   23678831.9344  124433073.735 6  96960850.02042
     -3459.734       -2695.863
  22002410.005    22002409.7124   22002408.3704  115623444.017 7  90096200.44745
       875.078         681.874
  22703598.114    22703597.8564   22703600.4894  119308201.382 7  92967441.08244
     -2995.414       -2334.077
  23074604.950    23074604.8314   23074606.0874  121257845.980 6  94486651.39143
       -88.990         -69.337
  21760810.917    21760811.2674   21760812.2844  114353829.527 7  89106892.36945
      -587.404        -457.713
 06  5  5 12 56 30.0000000  0 10G 2G 4G 5G 6G13G20G23G24G25G30
  20853568.049    20853568.0444   20853567.1414  109586235.310 8  85391884.87146
      1673.922        1304.353
  20769790.336    20769790.5604   20769791.5294  109145976.986 8  85048828.49546
     -1153.338        -898.704
  22850314.485    22850314.0394   22850316.9604  120079206.141 6  93568224.42643
     -2739.760       -2134.868
  24194454.990    24194455.7514   24194457.5104  127142713.978 5  99072270.07342
      3444.262        2683.896
  22964659.905    22964660.3344   22964660.9194  120680082.428 6  94036467.26443
      3008.415        2344.190
  23698607.325    23698606.5094   23698609.2864  124536997.253 6  97041829.46042
     -3468.399       -2702.631
  21997473.396    21997473.3524   21997472.2004  115597502.615 7  90075986.33845
       854.233         665.636
  22720726.134    22720725.4264   22720728.5314  119398209.003 7  93037576.93144
     -3004.987       -2341.536
  23075164.332    23075164.9244   23075166.5064  121260791.563 6  94488946.55043
      -107.555         -83.814
  21764225.367    21764225.8954   21764226.8714  114371772.538 7  89120873.94445
      -608.863        -474.429
 06  5  5 12 57  0.0000000  0 10G 2G 4G 5G 6G13G20G23G24G25G30
  20844062.046    20844062.0314   20844061.2174  109536281.495 8  85352959.86546
      1655.544        1290.043
  20776423.955    20776424.3064   20776425.2954  109180837.262 8  85075992.35746
     -1171.579        -912.928
  22865993.472    22865993.5974   22865995.6954  120161601.498 6  93632428.58443
     -2753.823       -2145.846
  24174808.062    24174807.8004   24174810.3524  127039467.751 5  98991818.53742
      3438.255        2679.141
  22947521.299    22947522.2054   22947522.8594  120590021.585 6  93966290.10743
      2994.736        2333.560
  23718430.168    23718430.3184   23718431.9564  124641169.063 6  97123002.31642
     -3477.179       -2709.442
  21992654.491    21992654.3034   21992652.7704  115572175.850 7  90056251.16245
       833.323         649.351
  22737905.735    22737906.1324   22737909.1194  119488492.214 7  93107927.52744
     -3014.658       -2349.075
  23075829.304    23075829.5684   23075831.3784  121264285.404 6  94491669.02043
      -126.111         -98.287
  21767760.865    21767761.5034   21767762.4604  114390352.949 7  89135352.19245
      -630.501        -491.304
 06  5  5 12 57 30.0000000  0 10G 2G 4G 5G 6G13G20G23G24G25G30
  20834663.016    20834662.9954   20834662.1324  109486888.380 8  85314471.71446
      1637.091        1275.660
  20783163.427    20783163.9694   20783164.8784  109216254.150 8  85103589.91446
     -1189.707        -927.040
  22881754.707    22881754.4094   22881755.8004  120244424.300 6  93696965.79043
     -2767.816       -2156.737
  24155197.183    24155197.5324   24155199.2424  126936410.751 5  98911514.51342
      3432.046        2674.271
  22930462.943    22930462.8844   22930464.5034  120500378.449 6  93896438.45843
      2981.256        2323.109
  23738304.412    23738303.7654   23738307.6304  124745607.373 6  97204382.88542
     -3485.649       -2716.164
  21987956.009    21987955.5334   21987954.4884  115547485.560 7  90037011.93445
       812.352         633.008
  22755141.777    22755142.1684   22755144.8534  119579069.508 6  93178507.28644
     -3024.008       -2356.356
  23076603.339    23076603.2534   23076605.1434  121268347.699 7  94494834.39243
      -144.965        -112.930
  21771422.188    21771422.3224   21771423.3594  114409590.374 7  89150342.40445
      -652.288        -508.258
 06  5  5 12 58  0.0000000  0 10G 2G 4G 5G 6G13G20G23G24G25G30
  20825365.684    20825365.3464   20825364.5824  109438029.481 8  85276399.78346
      1619.481        1261.939
  20790003.804    20790003.7554   20790004.7014  109252198.255 8  85131598.30346
     -1207.119        -940.609
  22897590.510    22897590.0004   22897591.9754  120327643.534 6  93761811.89143
     -2780.809       -2166.869
  24135616.821    24135616.6944   24135619.8974  126833516.936 5  98831337.65142
      3426.792        2670.173
  22913478.210    22913479.3184   22913479.6364  120411127.731 6  93826892.63643
      2968.356        2313.012
  23758223.169    23758223.3294   23758225.2414  124850280.173 5  97285946.07142
     -3493.097       -2721.916
  21983372.489    21983373.4204   21983371.9484  115523404.462 7  90018247.43445
       792.332         617.396
  22772428.901    22772428.7744   22772431.3544  119669910.798 7  93249292.73244
     -3032.433       -2362.921
  23077479.093    23077478.3474   23077480.8034  121272950.015 6  94498420.58643
      -162.657        -126.727
  21775202.091    21775202.6274   21775203.9984  114429456.036 7  89165822.12545
      -672.952        -524.356
 06  5  5 12 58 30.0000000  0 10G 2G 4G 5G 6G13G20G23G24G25G30
  20816172.154    20816171.9804   20816171.1854  109389717.445 8  85238754.04046
      1601.505        1247.904
  20796945.658    20796945.8434   20796946.9814  109288678.866 8  85160024.68046
     -1224.759        -954.356
  22913503.154    22913503.5124   22913505.4944  120411267.566 6  93826973.58443
     -2794.000       -2177.114
  24116069.802    24116070.4244   24116072.9094  126730799.395 5  98751298.18342
      3421.194        2665.812
  22896572.534    22896572.3124   22896573.0604  120322282.238 6  93757662.40243
      2954.942        2302.552
  23778188.404    23778188.7684   23778189.7454  124955196.147 6  97367698.63342
     -3500.937       -2728.010
  21978909.399    21978909.0624   21978907.6294  115499943.755 7  89999966.36545
       771.876         601.462
  22789766.989    22789766.6194   22789769.5944  119761024.682 7  93320290.68644
     -3041.439       -2369.950
  23078458.785    23078459.2584   23078461.0924  121278102.925 6  94502435.82043
      -180.690        -140.785
  21779104.097    21779104.6304   21779105.6424  114449959.611 7  89181798.95145
      -693.848        -540.663
 06  5  5 12 59  0.0000000  0 10G 2G 4G 5G 6G13G20G23G24G25G30
  20807084.136    20807084.0704   20807083.0824  109341959.822 8  85201540.37146
      1581.849        1232.617
  20803990.918    20803991.1034   20803992.0494  109325700.940 8  85188873.00246
     -1243.893        -969.270
  22929494.741    22929494.0884   22929495.7884  120495299.040 6  93892452.62443
     -2808.750       -2188.627
  24096558.178    24096558.7284   24096560.9914  126628265.977 5  98671402.05242
      3413.760        2660.082
  22879744.301    22879744.8264   22879745.1604  120233851.929 6  93688755.79643
      2939.877        2290.790
  23798200.054    23798199.7324   23798203.0504  125060358.823 6  97449643.43642
     -3510.122       -2735.147
  21974563.762    21974564.1024   21974562.5314  115477110.466 7  89982174.20145
       749.942         584.377
  22807158.042    22807157.9914   22807160.3354  119852414.509 6  93391503.36343
     -3051.710       -2377.913
  23079545.912    23079545.9204   23079547.2764  121283812.070 7  94506884.44643
      -200.246        -156.012
  21783128.162    21783128.6494   21783129.8194  114471106.210 7  89198276.78345
      -716.389        -558.209
 06  5  5 12 59 30.0000000  0 10G 2G 4G 5G 6G13G20G23G24G25G30
  20798100.695    20798100.5754   20798099.6814  109294751.408 8  85164754.58346
      1564.476        1219.069
  20811137.592    20811137.7774   20811138.8554  109363257.095 8  85218137.53646
     -1260.703        -982.347
  22945560.920    22945560.6354   22945562.7674  120579729.188 6  93958242.32443
     -2821.068       -2198.206
  24077082.473    24077081.7764   24077084.7454  126525912.898 5  98591646.42942
      3408.473        2655.975
  22862995.072    22862994.7744   22862995.8334  120145832.661 6  93620169.40643
      2926.936        2280.764
  23818257.844    23818257.9724   23818259.2634  125165759.387 6  97531773.66642
     -3517.537       -2740.914
  21970337.093    21970337.0504   21970336.0764  115454899.172 7  89964866.69245
       729.830         568.712
  22824599.499    22824599.6004   22824602.6244  119944072.522 6  93462925.08343
     -3059.869       -2384.306
  23080736.292    23080736.4614   23080738.7674  121290071.032 6  94511761.52843
      -218.116        -169.958
  21787273.307    21787273.6184   21787274.3884  114492888.789 7  89215250.20345
      -736.774        -574.100
 06  5  5 13  0  0.0000000  0 10G 2G 4G 5G 6G13G20G23G24G25G30
  20789222.445    20789222.2524   20789221.4314  109248095.895 8  85128399.69446
      1545.628        1204.392
  20818385.781    20818386.2234   20818387.3954  109401347.523 8  85247818.24346
     -1278.973        -996.600
  22961703.475    22961702.8694   22961705.4844  120664557.433 6  94024342.24743
     -2834.645       -2208.774
  24057638.807    24057638.9974   24057642.4664  126423744.134 5  98512034.37142
      3402.150        2651.029
  22846324.273    22846324.3664   22846324.9704  120058229.051 6  93551906.74243
      2912.675        2269.604
  23838359.437    23838358.7854   23838360.8854  125271396.749 6  97614088.40742
     -3525.661       -2747.226
  21966229.863    21966229.6434   21966228.0574  115433312.740 7  89948045.98945
       708.748         552.251
  22842093.103    22842092.9964   22842096.2684  120035998.774 6  93534555.88043
     -3069.102       -2391.508
  23082032.056    23082032.7224   23082034.4634  121296881.392 6  94517068.30343
      -236.602        -184.372
  21791539.594    21791539.8904   21791540.7574  114515308.535 7  89232720.14345
      -758.322        -590.903
 06  5  5 13  0 30.0000000  0 10G 2G 4G 5G 6G13G20G23G24G25G30
  20780450.491    20780450.2674   20780449.2994  109201999.060 8  85092480.09046
      1527.053        1189.896
  20825736.680    20825736.9434   20825738.0804  109439975.775 8  85277918.08646
     -1296.761       -1010.471
  22977921.810    22977921.7464   22977922.9154  120749785.116 6  94090753.36943
     -2847.635       -2218.940
  24038234.545    24038233.8344   24038236.4634  126321766.527 5  98432571.32042
      3395.964        2646.203
  22829734.997    22829734.8654   22829736.2154  119971048.649 6  93483973.82143
      2898.770        2258.772
  23858508.057    23858507.1104   23858509.4614  125377272.721 5  97696588.92542
     -3533.167       -2753.130
  21962240.716    21962241.3804   21962240.1974  115412356.288 7  89931716.26045
       687.899         536.014
  22859637.726    22859637.5884   22859639.9594  120128195.441 6  93606397.51743
     -3077.807       -2398.304
  23083434.550    23083434.6214   23083436.1324  121304247.384 7  94522808.01443
      -254.884        -198.620
  21795927.716    21795928.2254   21795929.2184  114538368.825 7  89250689.17245
      -779.475        -607.386
 06  5  5 13  1  0.0000000  0 10G 2G 4G 5G 6G13G20G23G24G25G30
  20771783.721    20771783.7464   20771782.8524  109156456.339 8  85056992.27946
      1508.701        1175.612
  20833188.302    20833188.5584   20833189.7384  109479133.972 8  85308431.01346
     -1314.188       -1024.049
  22994215.086    22994214.2304   22994215.4134  120835403.414 6  94157468.93243
     -2860.514       -2228.971
  24018863.331    24018863.8894   24018865.9814  126219975.924 5  98353253.95042
      3389.803        2641.363
  22813225.106    22813225.0564   22813225.6114  119884288.269 6  93416368.40643
      2884.899        2247.993
  23878698.948    23878698.6404   23878700.7404  125483378.964 6  97779269.03142
     -3540.720       -2759.039
  21958374.177    21958373.1654   21958370.9874  115392024.300 7  89915873.13145
       667.155         519.862
  22877231.687    22877231.2554   22877234.5404  120220653.945 6  93678443.12343
     -3086.386       -2404.985
  23084940.208    23084940.8584   23084942.7994  121312162.115 6  94528975.26543
      -273.191        -212.899
  21800436.416    21800437.0574   21800438.0064  114562062.302 7  89269151.60145
      -800.478        -623.740
 06  5  5 13  1 30.0000000  0 10G 2G 4G 5G 6G13G20G23G24G25G30
  20763224.909    20763224.7894   20763223.9494  109111478.853 8  85021944.90946
      1489.845        1160.915
  20840742.333    20840742.6274   20840743.8494  109518830.805 8  85339363.52746
     -1332.187       -1038.072
  23010582.645    23010582.9544   23010584.4004  120921419.484 6  94224494.40843
     -2873.819       -2239.340
  23999531.651    23999531.2554   23999534.6214  126118384.668 5  98274091.91542
      3383.037        2636.140
  22796796.907    22796797.1024   22796798.1144  119797960.375 6  93349100.03443
      2870.309        2236.600
  23898935.621    23898934.5434   23898937.5364  125589722.128 6  97862133.67142
     -3548.751       -2765.229
  21954624.043    21954624.4074   21954622.9234  115372327.642 7  89900525.09045
       645.876         503.285
  22894877.187    22894876.9164   22894879.6144  120313382.033 6  93750698.71743
     -3095.522       -2412.114
  23086553.389    23086553.3224   23086554.5184  121320635.610 6  94535577.94643
      -291.864        -227.446
  21805067.562    21805068.2034   21805069.0874  114586397.809 7  89288114.30145
      -821.901        -640.430
 06  5  5 13  2  0.0000000  0 10G 2G 4G 5G 6G13G20G23G24G25G30
  20754773.061    20754772.9434   20754771.9184  109067064.283 8  84987336.08346
      1470.919        1146.171
  20848398.058    20848398.2734   20848399.5184  109559061.653 8  85370712.20046
     -1350.044       -1051.976
  23027025.836    23027025.1624   23027026.7944  121007826.840 6  94291824.69043
     -2886.741       -2249.372
  23980236.676    23980236.3794   23980239.9974  126016991.533 5  98195084.31142
      3376.207        2630.789
  22780451.019    22780451.9024   22780452.3274  119712063.736 6  93282167.49343
      2855.851        2225.375
  23919215.716    23919215.4694   23919217.3934  125696296.595 6  97945178.67742
     -3556.415       -2771.184
  21950996.912    21950996.9194   21950994.8214  115353263.467 7  89885669.87245
       624.778         486.851
  22912572.812    22912573.3034   22912575.4264  120406374.508 6  93823160.34543
     -3104.219       -2418.848
  23088270.261    23088270.8784   23088273.3414  121329663.849 6  94542612.92243
      -310.406        -241.892
  21809819.681    21809820.1254   21809821.2114  114611371.422 7  89307574.25545
      -843.221        -657.049
 06  5  5 13  2 30.0000000  0 10G 2G 4G 5G 6G13G20G23G24G25G30
  20746426.512    20746426.5684   20746425.4764  109023202.590 8  84953158.09346
      1452.239        1131.610
  20856152.726    20856153.0104   20856154.2794  109599812.651 8  85402466.18446
     -1367.683       -1065.723
  23043539.515    23043539.7104   23043541.4344  121094610.907 6  94359448.58543
     -2899.615       -2259.416
  23960980.111    23960978.3094   23960981.3934  125915786.276 6  98116223.04742
      3369.934        2625.914
  22764186.360    22764186.5184   22764187.3824  119626589.743 6  93215564.38543
      2841.366        2214.049
  23939537.980    23939536.7524   23939538.7734  125803087.459 6  98028392.21242
     -3563.732       -2776.955
  21947487.670    21947487.3264   21947485.4334  115334820.145 7  89871298.46145
       603.855         470.540
  22930316.624    22930316.4534   22930318.7444  120499617.065 6  93895816.96043
     -3112.866       -2425.571
  23090092.533    23090092.7044   23090093.9624  121339234.340 6  94550070.47343
      -328.468        -255.923
  21814690.732    21814691.2884   21814692.4284  114636969.508 7  89327520.81445
      -864.118        -673.336
 06  5  5 13  3  0.0000000  0 10G 2G 4G 5G 6G13G20G23G24G25G30
  20738185.872    20738185.7694   20738184.7784  108979896.852 8  84919413.34546
      1434.466        1117.759
  20864006.667    20864006.8164   20864008.1044  109641084.687 8  85434626.23246
     -1384.156       -1078.576
  23060126.690    23060125.8414   23060127.3874  121181770.888 6  94427365.47743
     -2911.328       -2268.576
  23941756.672    23941756.4764   23941758.5184  125814773.509 5  98037511.86942
      3364.177        2621.452
  22748002.281    22748003.0624   22748003.0724  119541542.981 6  93149294.36443
      2828.091        2203.696
  23959900.071    23959899.1354   23959902.6404  125910093.830 6  98111773.71142
     -3570.062       -2781.838
  21944096.754    21944096.3064   21944094.6994  115317000.601 7  89857413.15145
       583.898         454.975
  22948107.728    22948107.5924   22948110.4394  120593108.519 6  93968667.06043
     -3120.267       -2431.371
  23092016.982    23092017.1244   23092018.4784  121349348.428 6  94557951.53443
      -345.808        -269.485
  21819681.332    21819681.3954   21819682.6644  114663193.153 7  89347954.78745
      -884.257        -689.040
 06  5  5 13  3 30.0000000  0 10G 2G 4G 5G 6G13G20G23G24G25G30
  20730050.640    20730050.6824   20730049.5714  108937146.629 8  84886101.44746
      1414.793        1102.429
  20871959.022    20871959.0674   20871960.2814  109682874.340 8  85467189.59246
     -1402.559       -1092.907
  23076783.271    23076782.5684   23076784.0304  121269301.796 6  94495571.30843
     -2924.920       -2279.200
  23922570.091    23922571.0164   23922574.1974  125713953.291 5  97958950.63542
      3356.463        2615.404
  22731899.942    22731900.1074   22731900.4524  119456923.123 7  93083356.48043
      2812.366        2191.413
  23980303.032    23980302.4414   23980304.7514  126017311.470 5  98195319.84642
     -3578.479       -2788.387
  21940824.397    21940823.9194   21940821.9234  115299803.264 7  89844012.64945
       561.841         437.793
  22965945.738    22965945.6564   22965947.9394  120686847.076 6  94041710.22743
     -3129.823       -2438.822
  23094044.944    23094045.0254   23094046.2244  121360004.020 6  94566254.56243
      -365.097        -284.498
  21824790.060    21824790.2224   21824790.9884  114690039.262 7  89368873.84344
      -906.094        -706.057
 06  5  5 13  4  0.0000000  0 10G 2G 4G 5G 6G13G20G23G24G25G30
  20722025.357    20722025.3974   20722024.1334  108894972.703 8  84853238.62046
      1396.154        1087.900
  20880013.196    20880013.3484   20880014.4224  109725199.850 8  85500170.62746
     -1419.700       -1106.271
  23093513.558    23093513.3244   23093514.6194  121357220.370 6  94564079.27643
     -2937.009       -2288.570
  23903427.190    23903424.6874   23903428.6054  125613347.225 5  97880556.26442
      3350.089        2610.453
  22715883.100    22715883.4104   22715883.2904  119372754.628 6  93017770.90243
      2798.195        2180.391
  24000750.440    24000749.0594   24000751.1374  126124756.858 6  98279043.38941
     -3585.030       -2793.515
  21937673.444    21937673.2034   21937671.6814  115283248.059 7  89831112.45645
       541.253         421.742
  22983833.167    22983833.2084   22983835.8454  120780848.359 6  94114957.97343
     -3137.568       -2444.898
  23096179.561    23096179.5274   23096180.5944  121371220.024 6  94574994.28843
      -383.090        -298.518
  21830020.447    21830021.0794   21830021.5674  114717526.199 7  89390292.20945
      -926.857        -722.233
 06  5  5 13  4 30.0000000  0 10G 2G 4G 5G 6G13G20G23G24G25G30
  20714105.356    20714105.3974   20714104.4574  108853354.270 8  84820808.77246
      1377.759        1073.568
  20888164.959    20888165.1704   20888166.1114  109768037.184 8  85533550.37446
     -1436.728       -1119.527
  23110312.856    23110312.5464   23110314.0434  121445501.765 6  94632870.01143
     -2949.059       -2297.972
  23884318.682    23884319.4164   23884320.7724  125512935.715 5  97802313.52542
      3343.615        2605.418
  22699948.397    22699948.5874   22699948.2864  119289016.436 6  92952520.39743
      2783.743        2169.150
  24021234.466    24021235.0344   24021235.7364  126232405.250 6  98362924.96142
     -3592.025       -2799.034
  21934641.623    21934641.2114   21934639.5524  115267313.870 7  89818696.20845
       520.410         405.505
  23001766.601    23001766.4664   23001768.5254  120875088.702 6  94188392.01843
     -3145.545       -2451.072
  23098415.741    23098415.6274   23098417.2394  121382973.883 6  94584153.15443
      -401.136        -312.568
  21835368.824    21835368.9614   21835369.6934  114745630.833 7  89412191.89845
      -947.343        -738.196
 06  5  5 13  5  0.0000000  0 10G 2G 4G 5G 6G13G20G23G24G25G30
  20706295.244    20706295.0634   20706294.1344  108812310.710 8  84788826.71646
      1358.791        1058.810
  20896417.336    20896417.4844   20896418.3934  109811403.390 8  85567342.17146
     -1454.073       -1133.043
  23127183.686    23127183.8364   23127184.5874  121534161.341 6  94701955.39743
     -2961.077       -2307.309
  23865250.653    23865252.5924   23865253.8504  125412739.276 5  97724238.44542
      3336.612        2599.974
  22684099.319    22684099.1214   22684099.4004  119205729.715 6  92887621.64943
      2769.093        2157.739
  24041760.238    24041760.9244   24041763.1844  126340272.572 6  98446977.17842
     -3598.787       -2804.259
  21931731.126    21931730.9534   21931729.2644  115252019.274 7  89806778.24345
       499.439         389.183
  23019748.340    23019748.7914   23019751.0874  120969584.109 6  94262024.66943
     -3153.776       -2457.457
  23100757.779    23100758.3594   23100760.2134  121395283.342 6  94593744.92443
      -419.346        -326.738
  21840837.407    21840837.8624   21840838.8634  114774370.035 7  89434586.05045
      -968.258        -754.471
 06  5  5 13  5 30.0000000  0 10G 2G 4G 5G 6G13G20G23G24G25G30
  20698591.471    20698591.3024   20698590.3114  108771827.248 8  84757281.19646
      1340.319        1044.386
  20904766.651    20904766.9184   20904767.8614  109855281.171 8  85601532.84046
     -1471.015       -1146.253
  23144123.779    23144123.6884   23144125.0974  121623179.748 6  94771320.31143
     -2973.039       -2316.634
  23846223.131    23846223.1224   23846225.1024  125312743.744 5  97646319.98442
      3330.183        2594.935
  22668333.004    22668333.5264   22668334.3694  119122881.004 6  92823064.14443
      2754.255        2146.183
  24062325.564    24062326.2284   24062326.3234  126448339.810 6  98531185.32242
     -3605.402       -2809.378
  21928939.307    21928939.1034   21928937.4734  115237348.632 7  89795346.51345
       478.740         373.031
  23037775.728    23037776.4404   23037777.4844  121064316.354 6  94335841.95743
     -3161.578       -2463.566
  23103202.883    23103203.0324   23103204.8814  121408131.476 7  94603756.45243
      -436.941        -340.487
  21846423.742    21846424.3554   21846425.2134  114803726.398 7  89457461.10045
      -988.465        -770.224
 06  5  5 13  6  0.0000000  0 10G 2G 4G 5G 6G13G20G23G24G25G30
  20690997.769    20690997.8624   20690996.7534  108731922.423 8  84726186.48746
      1320.577        1029.027
  20913216.822    20913216.8194   20913217.7624  109899685.407 8  85636133.48246
     -1488.873       -1160.161
  23161133.928    23161133.8214   23161136.3324  121712571.686 6  94840976.29643
     -2985.729       -2326.540
  23827235.978    23827236.7744   23827238.3464  125212968.465 5  97568573.06142
      3322.322        2588.821
  22652655.210    22652655.3434   22652655.7804  119040490.421 6  92758863.64843
      2738.714        2134.047
  24082931.086    24082930.1144   24082933.1984  126556622.032 6  98615561.14242
     -3612.821       -2815.110
  21926269.721    21926269.4794   21926267.9954  115223319.441 7  89784414.50145
       457.031         356.144
  23055851.265    23055851.4344   23055853.3554  121159300.725 6  94409855.66543
     -3170.297       -2470.373
  23105753.038    23105753.5344   23105755.5594  121421535.237 6  94614200.93843
      -455.898        -355.240
  21852130.641    21852131.3164   21852132.3154  114833716.106 7  89480829.66844
     -1010.067        -787.065
 06  5  5 13  6 30.0000000  0 10G 2G 4G 5G 6G13G20G23G24G25G30
  20683512.781    20683512.8524   20683511.9264  108692587.882 8  84695536.08546
      1300.717        1013.572
  20921764.743    20921764.9884   20921765.9654  109944605.341 8  85671135.98446
     -1506.805       -1174.138
  23178214.242    23178214.3904   23178215.5324  121802324.803 6  94910913.82743
     -2998.804       -2336.753
  23808291.596    23808290.2584   23808292.2954  125113405.826 5  97490991.73942
      3314.076        2582.364
  22637062.692    22637062.6584   22637062.9134  118958550.440 7  92695014.35043
      2722.860        2121.682
  24103575.223    24103575.3714   24103576.1524  126665105.996 6  98700094.02342
     -3620.416       -2821.115
  21923720.772    21923720.2794   21923718.8394  115209922.558 7  89773975.20845
       435.143         339.072
  23073971.827    23073971.6294   23073973.6844  121254525.343 6  94484056.66143
     -3179.017       -2477.153
  23108408.591    23108408.8394   23108409.8774  121435484.239 6  94625070.28643
      -474.867        -370.039
  21857956.062    21857956.6564   21857957.5764  114864328.139 7  89504683.18444
     -1031.689        -803.907
 06  5  5 13  7  0.0000000  0 10G 2G 4G 5G 6G13G20G23G24G25G30
  20676138.280    20676138.3924   20676137.4704  108653835.087 8  84665339.11346
      1281.768         998.792
  20930412.499    20930412.6294   20930413.6444  109990049.781 8  85706547.20646
     -1523.850       -1187.403
  23195363.472    23195362.7974   23195365.2924  121892445.967 6  94981138.02843
     -3010.456       -2345.746
  23789386.384    23789386.7984   23789389.1264  125014068.624 5  97413586.15742
      3307.073        2576.923
  22621557.880    22621558.3934   22621558.8274  118877074.845 7  92631526.98543
      2707.722        2109.947
  24124258.389    24124257.8594   24124260.3864  126773799.631 5  98784790.22041
     -3626.890       -2826.164
  21921293.467    21921293.2684   21921291.9694  115197168.946 7  89764037.29945
       414.053         322.648
  23092140.028    23092139.8414   23092141.1384  121349997.937 6  94558450.77843
     -3186.902       -2483.284
  23111167.551    23111168.3704   23111169.7954  121449988.007 6  94636371.92043
      -493.013        -384.146
  21863901.486    21863901.8384   21863902.8524  114895571.225 7  89529028.41044
     -1052.220        -819.893
 06  5  5 13  7 30.0000000  0 10G 2G 4G 5G 6G13G20G23G24G25G30
  20668871.655    20668871.5884   20668870.6154  108615647.562 8  84635582.48446
      1263.537         984.571
  20939156.343    20939156.6914   20939157.6374  110035999.796 8  85742352.38946
     -1540.070       -1200.059
  23212578.525    23212578.9374   23212580.6564  121982915.457 6  95051633.74342
     -3021.245       -2354.233
  23770523.317    23770523.4944   23770525.6914  124914941.698 5  97336344.40042
      3300.828        2572.066
  22606139.156    22606139.8894   22606139.9594  118796048.230 7  92568389.39043
      2693.500        2098.835
  24144978.694    24144978.3474   24144981.5814  126882683.723 5  98869635.10441
     -3632.369       -2830.452
  21918985.181    21918985.6144   21918984.0764  115185041.738 7  89754587.53545
       393.782         306.831
  23110351.245    23110351.3464   23110353.8144  121445699.820 6  94633023.75943
     -3193.643       -2488.498
  23114031.154    23114030.8554   23114032.4494  121465028.762 6  94648091.98243
      -510.272        -397.637
  21869962.867    21869963.8424   21869964.7934  114927427.004 7  89553851.06444
     -1071.935        -835.280
 06  5  5 13  8  0.0000000  0 10G 2G 4G 5G 6G13G20G23G24G25G30
  20661711.708    20661711.7204   20661710.6514  108578021.561 8  84606263.42646
      1244.449         969.724
  20947995.363    20947995.4954   20947996.5934  110082448.463 8  85778546.23946
     -1557.026       -1213.269
  23229859.820    23229859.0254   23229860.5804  122073724.662 6  95122394.22843
     -3032.927       -2363.310
  23751699.694    23751699.8584   23751701.9994  124816021.697 5  97259263.91342
      3293.665        2566.515
  22590805.550    22590805.3954   22590806.1774  118715467.490 7  92505599.08643
      2677.985        2086.760
  24165732.955    24165731.8284   24165735.7034  126991748.835 5  98954620.85042
     -3639.031       -2835.656
  21916796.041    21916796.1414   21916794.5284  115173535.814 7  89745621.97645
       372.684         290.405
  23128604.984    23128604.7174   23128606.9184  121541622.322 6  94707768.41643
     -3201.617       -2494.759
  23116993.593    23116994.0124   23116995.1354  121480600.284 7  94660225.63743
      -528.283        -411.647
  21876140.766    21876140.8274   21876142.0614  114959888.639 7  89579145.80844
     -1092.485        -851.268
 06  5  5 13  8 30.0000000  0 10G 2G 4G 5G 6G13G20G23G24G25G30
  20654661.267    20654660.9774   20654660.0904  108540969.771 8  84577391.87746
      1225.533         954.975
  20956930.853    20956931.2074   20956932.1744  110129405.944 8  85815136.50746
     -1573.604       -1226.175
  23247206.127    23247206.1974   23247207.6344  122164882.389 6  95193426.18142
     -3044.382       -2372.269
  23732918.358    23732917.3654   23732920.8014  124717322.775 5  97182355.67042
      3286.076        2560.561
  22575558.572    22575559.0914   22575560.4714  118635347.961 6  92443168.35243
      2662.959        2075.071
  24186524.149    24186522.8874   24186525.4254  127101005.197 5  99039755.72441
     -3645.029       -2840.275
  21914727.376    21914727.0304   21914725.4834  115162662.876 7  89737149.53245
       351.910         274.223
  23146902.232    23146901.7644   23146904.4274  121637776.163 6  94782693.53843
     -3208.852       -2500.408
  23120059.697    23120059.9994   23120061.9924  121496713.865 6  94672781.67943
      -546.264        -425.656
  21882435.631    21882435.5814   21882436.5944  114992966.528 7  89604920.80244
     -1112.901        -867.196
 06  5  5 13  9  0.0000000  0 10G 2G 4G 5G 6G13G20G23G24G25G30
  20647719.497    20647719.1684   20647718.3754  108504491.603 8  84548967.49846
      1205.499         939.357
  20965962.738    20965963.1574   20965964.1444  110176868.273 8  85852120.03746
     -1591.345       -1240.028
  23264618.427    23264618.0314   23264619.6224  122256383.782 6  95264725.95042
     -3056.462       -2381.669
  23714177.292    23714178.8424   23714180.2944  124618844.837 5  97105619.68242
      3278.152        2554.391
  22560400.001    22560400.8024   22560401.1344  118555689.423 6  92381096.77343
      2646.780        2062.451
  24207350.817    24207349.8384   24207351.6934  127210447.438 5  99125035.46741
     -3651.774       -2845.502
  21912778.178    21912778.0814   21912776.5574  115152421.430 7  89729169.27245
       330.048         257.180
  23165242.763    23165242.0324   23165245.4124  121734157.024 6  94857795.57843
     -3217.190       -2506.903
  23123229.800    23123229.2214   23123231.0344  121513366.502 7  94685757.76943
      -564.874        -440.178
  21888846.659    21888846.8004   21888847.6954  115026657.156 7  89631173.24044
     -1134.049        -883.677
 06  5  5 13  9 30.0000000  0 10G 2G 4G 5G 6G13G20G23G24G25G30
  20640888.443    20640888.3464   20640887.4314  108468595.779 8  84520996.85946
      1186.590         924.595
  20975091.635    20975092.2304   20975093.1064  110224842.101 8  85889502.27946
     -1607.769       -1252.818
  23282097.042    23282096.2164   23282098.4434  122348233.741 6  95336297.30642
     -3067.627       -2390.369
  23695482.304    23695481.5034   23695485.4374  124520598.105 5  97029063.80242
      3270.802        2548.653
  22545331.836    22545332.0714   22545332.4554  118476502.724 7  92319392.95643
      2631.711        2050.719
  24228212.980    24228211.5744   24228213.9694  127320081.286 6  99210464.46641
     -3657.566       -2850.106
  21910951.036    21910950.9084   21910949.4294  115142819.670 7  89721687.44145
       309.288         240.988
  23183627.273    23183626.8144   23183629.8534  121830770.065 6  94933078.40843
     -3224.246       -2512.415
  23126500.394    23126501.4744   23126503.9174  121530565.450 6  94699159.56943
      -582.664        -454.018
  21895375.337    21895375.9274   21895376.7894  115060966.900 7  89657908.11944
     -1154.280        -899.448
 06  5  5 13 10  0.0000000  0 10G 2G 4G 5G 6G13G20G23G24G25G30
  20634167.747    20634167.8154   20634166.8464  108433278.336 8  84493476.72746
      1167.886         910.063
  20984317.012    20984317.3904   20984318.3714  110273320.969 8  85927278.07046
     -1624.048       -1265.486
  23299640.405    23299640.0024   23299642.1304  122440424.390 6  95408134.01742
     -3078.349       -2398.729
  23676829.870    23676830.8394   23676831.6344  124422580.065 5  96952686.13442
      3263.836        2543.241
  22530352.318    22530352.2784   22530353.3724  118397785.623 6  92258054.98243
      2616.481        2038.837
  24249110.191    24249110.5304   24249112.2254  127429898.532 6  99296036.24241
     -3663.085       -2854.304
  21909244.781    21909244.4494   21909243.2274  115133853.125 7  89714700.57545
       288.611         224.894
  23202054.933    23202054.4994   23202057.2804  121927608.092 6  95008536.48243
     -3231.252       -2517.871
  23129878.338    23129877.6174   23129879.2844  121548305.241 6  94712982.78043
      -600.014        -467.553
  21902021.073    21902021.0434   21902022.4264  115095889.765 7  89685120.75744
     -1173.958        -914.748
 06  5  5 13 10 30.0000000  0 10G 2G 4G 5G 6G13G20G23G24G25G30
  20627556.670    20627556.5094   20627555.5724  108398536.000 8  84466404.78546
      1148.346         894.835
  20993637.043    20993637.4494   20993638.3844  110322298.854 8  85965442.77846
     -1641.030       -1278.732
  23317247.499    23317246.4744   23317249.4744  122532948.559 6  95480230.72242
     -3089.849       -2407.658
  23658221.753    23658220.6354   23658222.1494  124324788.176 5  96876484.67342
      3255.938        2537.092
  22515461.139    22515461.6384   22515462.5944  118319535.641 7  92197080.96443
      2600.493        2026.351
  24270042.141    24270040.0564   24270042.3154  127539892.341 5  99381745.50841
     -3669.365       -2859.149
  21907658.224    21907658.2844   21907656.6314  115125517.213 7  89708205.14545
       267.352         208.324
  23220524.366    23220524.4834   23220527.4024  122024665.280 6  95084165.48443
     -3238.959       -2523.857
  23133354.702    23133355.0564   23133357.1454  121566580.347 6  94727223.13443
      -617.943        -481.520
  21908781.786    21908782.6184   21908783.5364  115131419.498 7  89712806.29444
     -1194.520        -930.784
 06  5  5 13 11  0.0000000  0 10G 2G 4G 5G 6G13G20G23G24G25G30
  20621054.712    20621054.5704   20621053.4434  108364368.184 8  84439780.51746
      1129.540         880.163
  21003051.478    21003051.7434   21003052.5614  110371771.719 8  86003993.13946
     -1657.186       -1291.300
  23334916.435    23334915.9394   23334917.8844  122625801.345 6  95552583.49342
     -3100.137       -2415.728
  23639655.241    23639655.2634   23639656.7664  124227222.657 5  96800459.57242
      3248.760        2531.501
  22500659.463    22500660.2994   22500661.1644  118241753.135 6  92136471.10343
      2585.131        2014.348
  24291005.807    24291004.6574   24291006.6474  127650058.454 5  99467589.24941
     -3674.629       -2863.339
  21906192.071    21906191.5244   21906190.2174  115117810.033 7  89702199.58045
       246.645         192.191
  23239034.824    23239034.8224   23239037.9984  122121937.256 6  95159961.87343
     -3245.715       -2529.148
  23136933.483    23136933.7764   23136935.9804  121585388.242 6  94741878.63743
      -635.457        -495.123
  21915657.777    21915658.1404   21915659.2054  115167552.725 7  89740962.02644
     -1214.127        -946.051
 06  5  5 13 11 30.0000000  0 10G 2G 4G 5G 6G13G20G23G24G25G30
  20614664.589    20614664.4624   20614663.3434  108330787.912 8  84413614.12346
      1108.977         864.143
  21012562.043    21012562.2064   21012563.2374  110421750.095 8  86042937.29346
     -1674.933       -1305.151
  23352650.195    23352648.4534   23352651.6604  122718992.019 6  95625199.63942
     -3112.492       -2425.307
  23621135.077    23621135.9114   23621136.0254  124129898.037 5  96724622.22442
      3239.499        2524.302
  22485950.444    22485950.4534   22485951.2874  118164454.063 7  92076238.40243
      2567.949        2000.975
  24312004.164    24312002.7634   24312005.6824  127760406.182 5  99553574.39541
     -3681.903       -2868.995
  21904847.636    21904847.1304   21904845.5274  115110744.390 7  89696693.94145
       224.246         174.748
  23257587.848    23257587.9994   23257590.4334  122219433.944 6  95235933.25843
     -3254.260       -2535.779
  23140617.318    23140616.6564   23140618.7364  121604740.215 6  94756958.10143
      -654.784        -510.243
  21922650.638    21922651.0324   21922651.8864  115204300.139 7  89769596.39944
     -1235.686        -962.867
 06  5  5 13 12  0.0000000  0 10G 2G 4G 5G 6G13G20G23G24G25G30
  20608386.461    20608386.4474   20608385.3844  108297797.167 8  84387907.20146
      1089.820         849.220
  21022168.587    21022168.9514   21022169.8604  110472233.135 7  86082274.77546
     -1691.212       -1317.818
  23370448.092    23370445.9894   23370448.8864  122812518.130 6  95698077.09242
     -3123.108       -2433.567
  23602660.841    23602660.6724   23602663.2334  124032817.161 6  96648974.81342
      3231.923        2518.383
  22471333.665    22471333.9014   22471334.7654  118087640.198 7  92016383.39843
      2552.251        1988.775
  24333035.578    24333035.7804   24333037.7184  127870933.668 5  99639699.62141
     -3687.238       -2873.208
  21903625.157    21903624.7164   21903623.0704  115104320.801 8  89691688.54845
       203.374         158.466
  23276182.722    23276183.1554   23276185.6084  122317153.494 6  95312078.22943
     -3261.028       -2541.052
  23144401.713    23144402.1574   23144405.0014  121624636.088 6  94772461.37843
      -672.267        -523.809
  21929759.831    21929760.6164   21929761.5054  115241660.573 7  89798708.39344
     -1255.572        -978.378
 06  5  5 13 12 30.0000000  0 10G 2G 4G 5G 6G13G20G23G24G25G30
  20602218.879    20602219.0114   20602217.8484  108265386.707 8  84362652.24846
      1070.570         834.216
  21031869.420    21031869.5334   21031870.5054  110523209.755 8  86121996.83146
     -1707.478       -1330.496
  23388306.138    23388306.0894   23388308.4674  122906367.689 6  95771206.73042
     -3133.782       -2441.934
  23584231.620    23584232.2304   23584232.8464  123935972.935 5  96573511.78042
      3223.964        2512.165
  22456807.232    22456808.1304   22456808.2034  118011305.236 7  91956901.46144
      2536.372        1976.393
  24354101.797    24354100.4604   24354104.3904  127981629.006 5  99725955.52941
     -3692.825       -2877.621
  21902522.774    21902522.8074   21902521.1454  115098530.201 7  89687176.42145
       182.385         142.115
  23294819.193    23294819.2954   23294821.5244  122415084.883 6  95388388.26943
     -3268.007       -2546.475
  23148290.650    23148290.9734   23148292.6104  121645065.740 6  94788380.59443
      -690.127        -537.748
  21936984.163    21936984.3354   21936985.3354  115279623.277 7  89828289.66744
     -1275.582        -993.948
 06  5  5 13 13  0.0000000  0 10G 2G 4G 5G 6G13G20G23G24G25G30
  20596161.262    20596161.4414   20596160.4614  108233553.334 8  84337846.87146
      1051.430         819.303
  21041662.671    21041662.7854   21041663.7324  110574673.647 8  86162098.53346
     -1723.659       -1343.095
  23406225.218    23406225.1994   23406228.4094  123000532.666 6  95844582.02242
     -3144.161       -2450.011
  23565847.753    23565847.9284   23565851.3594  123839362.917 6  96498231.31142
      3216.318        2506.219
  22442372.457    22442372.5904   22442373.5214  117935447.512 7  91897791.62844
      2520.477        1963.994
  24375196.579    24375196.7754   24375197.6134  128092485.279 5  99812337.16941
     -3698.091       -2881.602
  21901540.454    21901540.5404   21901538.9774  115093367.961 7  89683153.82945
       161.421         125.777
  23313493.622    23313493.6614   23313496.9194  122513221.545 6  95464858.40043
     -3274.799       -2551.812
  23152277.807    23152278.3774   23152280.1744  121666023.643 6  94804711.44543
      -707.516        -551.291
  21944322.041    21944322.1144   21944323.3604  115318182.745 7  89858336.12044
     -1295.345       -1009.360
 06  5  5 13 13 30.0000000  0 10G 2G 4G 5G 6G13G20G23G24G25G30
  20590216.397    20590216.3084   20590215.1154  108202310.795 8  84313502.02346
      1031.034         803.422
  21051550.515    21051550.7894   21051551.7784  110626635.488 8  86202588.26546
     -1740.849       -1356.513
  23424205.906    23424205.3524   23424207.6704  123095022.600 6  95918210.54342
     -3155.500       -2458.845
  23547510.297    23547511.3804   23547512.9964  123743001.590 6  96423144.57142
      3207.503        2499.377
  22428031.068    22428030.9324   22428031.5254  117860081.363 7  91839064.83144
      2503.569        1950.830
  24396323.600    24396322.6224   24396325.8664  128203511.214 5  99898850.79241
     -3704.149       -2886.329
  21900680.403    21900680.3324   21900678.6334  115088846.788 7  89679630.82445
       139.551         108.738
  23332208.916    23332209.3584   23332212.1294  122611573.523 6  95541496.35943
     -3282.356       -2557.696
  23156369.253    23156369.3804   23156370.8704  121687521.223 6  94821462.78043
      -726.037        -565.713
  21951774.272    21951775.3674   21951776.0454  115357348.590 7  89888854.96544
     -1316.146       -1025.579
 06  5  5 13 14  0.0000000  0 10G 2G 4G 5G 6G13G20G23G24G25G30
  20584383.840    20584383.6804   20584382.5294  108171659.888 8  84289618.13246
      1012.082         788.634
  21061533.007    21061533.1294   21061534.1404  110679093.456 8  86243464.57546
     -1756.669       -1368.838
  23442248.205    23442247.9674   23442249.6184  123189834.605 6  95992090.03442
     -3165.434       -2466.553
  23529221.520    23529221.2904   23529223.7514  123646891.165 5  96348253.36542
      3199.553        2493.169
  22413783.152    22413782.9324   22413784.4684  117785209.407 7  91780723.13344
      2487.588        1938.368
  24417483.958    24417482.8734   24417484.1874  128314705.059 5  99985495.38541
     -3709.263       -2890.366
  21899942.078    21899941.5954   21899940.2244  115084966.181 7  89676606.95645
       118.690          92.493
  23350966.012    23350965.5734   23350968.9284  122710138.564 6  95618300.37743
     -3288.871       -2562.746
  23160563.559    23160563.4464   23160564.8664  121709557.668 6  94838634.03643
      -743.611        -579.432
  21959342.984    21959343.2994   21959344.4764  115397119.628 7  89919845.37644
     -1335.557       -1040.672
 06  5  5 13 14 30.0000000  0 10G 2G 4G 5G 6G13G20G23G24G25G30
  20578663.024    20578663.0064   20578661.9884  108141598.338 8  84266193.56246
       991.318         772.454
  21071608.745    21071609.0584   21071609.9744  110732042.863 8  86284723.92546
     -1774.093       -1382.420
  23460351.009    23460350.1904   23460351.4154  123284962.228 6  96066215.38242
     -3176.949       -2475.556
  23510979.702    23510979.9324   23510981.6944  123551030.440 6  96273556.70842
      3190.166        2485.825
  22399629.078    22399629.7254   22399630.0744  117710830.142 7  91722765.14744
      2470.103        1924.743
  24438674.343    24438673.5334   24438676.2524  128426060.114 5 100072265.45841
     -3715.581       -2895.212
  21899324.662    21899324.6034   21899323.0934  115081723.410 7  89674080.10045
        96.388          75.114
  23369761.564    23369761.9764   23369764.2554  122808910.803 6  95695265.63042
     -3296.732       -2568.853
  23164857.408    23164858.4554   23164859.5074  121732128.622 6  94856221.78243
      -762.386        -594.087
  21967025.641    21967025.9074   21967026.7384  115437490.877 7  89951303.42644
     -1356.613       -1057.108
 06  5  5 13 15  0.0000000  0 10G 2G 4G 5G 6G13G20G23G24G25G30
  20573055.311    20573055.3994   20573054.3424  108112130.878 8  84243232.03146
       972.280         757.625
  21081778.313    21081778.8174   21081779.8254  110785485.417 8  86326367.50646
     -1789.729       -1394.608
  23478512.691    23478512.1814   23478514.7124  123380406.719 5  96140587.72342
     -3186.861       -2483.317
  23492787.108    23492787.0284   23492788.3474  123455425.653 6  96199059.52242
      3182.625        2479.948
  22385570.379    22385570.8874   22385571.1714  117636950.745 7  91665196.77844
      2454.156        1912.326
  24459895.387    24459894.8024   24459897.5524  128537578.381 5 100159162.79441
     -3720.019       -2898.750
  21898830.050    21898829.7704   21898827.8964  115079121.944 7  89672052.98345
        75.975          59.185
  23388597.031    23388597.5524   23388600.5094  122907892.612 6  95772394.17942
     -3303.043       -2573.802
  23169255.577    23169255.5104   23169257.5964  121755237.014 7  94874228.32243
      -779.204        -607.193
  21974822.744    21974823.0734   21974823.8644  115478464.641 7  89983231.02244
     -1375.770       -1072.034
 06  5  5 13 15 30.0000000  0 10G 2G 4G 5G 6G13G20G23G24G25G30
  20567560.793    20567560.8494   20567559.5904  108083256.234 8  84220732.38846
       952.240         742.001
  21092041.645    21092041.9374   21092042.8154  110839416.900 8  86368391.84846
     -1806.269       -1407.480
  23496734.507    23496734.3504   23496736.9604  123476162.834 6  96215202.90842
     -3197.374       -2491.464
  23474643.153    23474642.5324   23474644.0454  123360076.815 5  96124761.71742
      3173.634        2473.024
  22371607.144    22371607.3194   22371607.7754  117563570.882 7  91608017.62744
      2437.287        1899.202
  24481146.740    24481146.8764   24481146.7544  128649255.095 5 100246183.70441
     -3725.515       -2903.034
  21898456.780    21898456.4414   21898454.5744  115077159.846 7  89670524.04845
        54.393          42.395
  23407472.051    23407472.5904   23407474.7794  123007079.737 6  95849682.64643
     -3309.938       -2579.146
  23173754.855    23173754.7254   23173755.7604  121778879.881 6  94892651.32743
      -797.339        -621.314
  21982733.684    21982733.8404   21982734.6414  115520037.259 7  90015625.31544
     -1396.042       -1087.821
 06  5  5 13 16  0.0000000  0 10G 2G 4G 5G 6G13G20G23G24G25G30
  20562177.734    20562177.8634   20562176.7184  108054968.500 8  84198690.01847
       932.852         726.912
  21102395.839    21102396.3284   21102397.3814  110893829.914 8  86410791.60446
     -1821.992       -1419.724
  23515014.480    23515013.5184   23515015.9004  123572220.881 6  96290053.23042
     -3207.010       -2498.965
  23456545.929    23456546.1944   23456548.5184  123264979.670 6  96050660.04742
      3165.613        2466.742
  22357737.342    22357737.6624   22357738.3114  117490686.675 7  91551224.67344
      2421.028        1886.507
  24502426.726    24502425.4764   24502428.7644  128761080.801 5 100333320.63741
     -3729.936       -2906.473
  21898203.494    21898203.2024   21898201.9904  115075830.514 7  89669488.18745
        33.592          26.187
  23426384.221    23426383.5964   23426386.7264  123106463.553 6  95927124.50243
     -3316.131       -2583.996
  23178353.680    23178353.7984   23178354.7404  121803049.741 6  94911484.98643
      -814.528        -634.704
  21990756.746    21990757.0984   21990758.1404  115562199.826 7  90048479.16844
     -1415.393       -1102.905
 06  5  5 13 16 30.0000000  0 10G 2G 4G 5G 6G13G20G23G24G25G30
  20556904.960    20556905.0124   20556904.0494  108027259.254 8  84177098.21846
       913.805         712.064
  21112839.926    21112840.0734   21112841.2414  110948713.020 8  86453557.60346
     -1837.461       -1431.792
  23533348.393    23533348.0604   23533350.6604  123668569.013 6  96365129.66142
     -3216.504       -2506.424
  23438497.280    23438496.2644   23438498.1474  123170127.212 5  95976749.05142
      3157.607        2460.480
  22343960.765    22343961.4294   22343961.6424  117418291.478 7  91494812.83744
      2404.786        1873.865
  24523732.560    24523731.1184   24523735.2494  128873043.356 5 100420563.93041
     -3734.446       -2909.963
  21898068.770    21898069.1944   21898067.4774  115075124.791 7  89668938.27345
        13.001          10.117
  23445332.164    23445331.4814   23445332.9284  123206032.303 6  96004710.36842
     -3322.242       -2588.734
  23183052.099    23183051.9264   23183053.6604  121827736.269 6  94930721.21743
      -831.510        -647.932
  21998890.361    21998890.7794   21998891.3234  115604942.024 7  90081784.78444
     -1434.493       -1117.783
 06  5  5 13 17  0.0000000  0 10G 2G 4G 5G 6G13G20G23G24G25G30
  20551744.399    20551744.3894   20551743.3704  108000139.794 8  84155966.15646
       893.382         696.142
  21123374.764    21123374.9784   21123376.1414  111004074.230 8  86496696.21846
     -1854.053       -1444.703
  23551738.164    23551738.6234   23551742.3674  123765213.791 6  96440437.20042
     -3227.217       -2514.698
  23420494.923    23420495.2924   23420497.7894  123075531.367 6  95903038.00442
      3148.214        2453.112
  22330279.580    22330279.8644   22330280.5534  117346397.125 7  91438791.23044
      2387.340        1860.257
  24545064.783    24545065.6724   24545067.6684  128985150.105 5 100507919.52641
     -3740.052       -2914.309
  21898055.492    21898055.1084   21898053.7404  115075052.141 7  89668881.66345
        -8.908          -6.935
  23464315.886    23464316.3254   23464317.5004  123305793.696 6  96082446.39842
     -3329.282       -2594.247
  23187849.789    23187849.3284   23187850.6914  121852948.132 6  94950366.82743
      -849.976        -662.316
  22007135.528    22007136.0144   22007137.1144  115648271.824 7  90115548.28444
     -1454.896       -1133.701
 06  5  5 13 17 30.0000000  0  9G 2G 4G 5G 6G13G23G24G25G30
  20546697.947    20546697.9074   20546696.9404  107973620.105 8  84135301.39146
       873.654         680.781
  21134001.831    21134002.3214   21134003.5064  111059921.503 8  86540213.55146
     -1869.938       -1457.087
  23570188.116    23570187.9244   23570190.8294  123862162.350 6  96515981.57342
     -3236.763       -2522.170
  23402546.232    23402546.3744   23402548.4174  122981204.056 6  95829536.18442
      3139.698        2446.489
  22316696.352    22316696.5844   22316697.3094  117275015.993 7  91383169.55144
      2370.638        1847.267
  21898164.065    21898163.5234   21898162.4434  115075622.330 7  89669325.97545
       -29.841         -23.245
  23483337.921    23483337.3604   23483340.3044  123405755.386 6  96160338.40643
     -3335.579       -2599.094
  23192748.795    23192748.4074   23192749.9024  121878694.336 6  94970428.79843
      -867.097        -675.644
  22015494.206    22015494.9304   22015495.7384  115692197.059 7  90149775.76744
     -1474.258       -1148.756
 06  5  5 13 18  0.0000000  0  9G 2G 4G 5G 6G13G23G24G25G30
  20541766.180    20541766.2414   20541765.1654  107947704.098 8  84115107.14546
       852.656         664.407
  21144722.014    21144722.4164   21144723.6044  111116255.646 8  86584110.26846
     -1887.116       -1470.469
  23588693.601    23588694.1184   23588696.2024  123959413.939 6  96591761.90942
     -3247.895       -2530.825
  23384648.151    23384648.5324   23384650.0324  122887150.423 6  95756247.63242
      3129.397        2438.499
  22303211.425    22303211.9644   22303212.7534  117204152.899 7  91327951.57644
      2352.237        1832.897
  21898395.216    21898394.7974   21898393.4034  115076837.720 7  89670273.01745
       -52.504         -40.907
  23502398.486    23502397.9004   23502401.2164  123505918.263 6  96238387.23442
     -3343.365       -2605.202
  23197750.099    23197750.4584   23197751.5764  121904976.439 6  94990908.36143
      -886.236        -690.569
  22023966.464    22023967.1714   22023967.8594  115736718.400 7  90184467.71444
     -1495.131       -1165.046
 06  5  5 13 18 30.0000000  0  9G 2G 4G 5G 6G13G23G24G25G30
  20536949.540    20536949.4284   20536948.3774  107922392.038 8  84095383.52846
       834.130         649.981
  21155534.484    21155534.8854   21155536.0324  111173074.713 8  86628384.86246
     -1901.568       -1481.735
  23607257.733    23607257.9974   23607259.5134  124056965.711 6  96667776.31942
     -3256.529       -2537.564
  23366802.949    23366802.7264   23366804.5994  122793372.147 6  95683173.61542
      3121.721        2432.483
  22289825.761    22289825.7504   22289826.5144  117133809.833 7  91273138.79244
      2336.516        1820.674
  21898749.059    21898748.8124   21898747.2864  115078697.581 7  89671722.26245
       -72.243         -56.286
  23521496.510    23521496.0374   23521499.8034  123606279.938 6  96316591.05743
     -3348.286       -2609.043
  23202852.335    23202852.6974   23202853.8604  121931792.875 6  95011804.25743
      -902.242        -703.035
  22032551.861    22032552.4644   22032553.1864  115781834.005 7  90219622.69444
     -1513.349       -1179.218
 06  5  5 13 19  0.0000000  0  9G 2G 4G 5G 6G13G23G24G25G30
  20532243.814    20532243.8334   20532242.9014  107897664.601 8  84076115.45347
       813.860         634.189
  21166435.200    21166435.2164   21166436.4424  111230356.526 8  86673020.01646
     -1917.693       -1494.303
  23625874.346    23625874.3864   23625875.5024  124154794.246 6  96744006.37842
     -3266.164       -2545.064
  23349006.576    23349006.7274   23349008.1164  122699851.335 6  95610300.27942
      3112.545        2425.365
  22276535.965    22276535.6874   22276536.3284  117063969.533 7  91218717.85744
      2319.002        1807.023
  21899222.346    21899221.8154   21899220.1494  115081181.824 7  89673657.98345
       -93.750         -73.040
  23540628.872    23540628.5004   23540632.0144  123706817.959 6  96394932.22242
     -3354.771       -2614.083
  23208052.479    23208053.4304   23208055.2964  121959122.502 6  95033100.08843
      -920.037        -716.914
  22041246.085    22041246.2964   22041247.2054  115827521.365 7  90255223.17944
     -1532.977       -1194.533
 06  5  5 13 19 30.0000000  0  9G 2G 4G 5G 6G13G23G24G25G30
  20527654.022    20527653.7894   20527652.5174  107873543.263 9  84057319.70746
       793.848         618.554
  21177426.996    21177427.1574   21177428.5034  111288119.867 8  86718030.39146
     -1933.524       -1506.655
  23644546.135    23644546.3274   23644548.1114  124252917.072 6  96820465.69442
     -3275.516       -2552.363
  23331262.472    23331263.1864   23331264.4844  122606611.041 6  95537645.54342
      3103.312        2418.165
  22263345.042    22263344.9304   22263345.8454  116994654.302 7  91164706.02144
      2301.668        1793.505
  21899817.616    21899817.3674   21899815.8704  115084311.270 7  89676096.59345
      -115.239         -89.825
  23559797.542    23559797.2074   23559800.8664  123807550.993 6  96473425.47742
     -3361.073       -2619.019
  23213355.977    23213355.2384   23213357.4384  121986984.853 6  95054811.00843
      -937.742        -730.764
  22050052.280    22050053.1474   22050053.8244  115873799.969 7  90291284.38144
     -1552.495       -1209.726
 06  5  5 13 20  0.0000000  0  9G 2G 4G 5G 6G13G23G24G25G30
  20523176.415    20523176.2924   20523175.1414  107850013.976 8  84038985.20146
       773.566         602.785
  21188507.330    21188507.5454   21188509.1534  111346348.552 8  86763403.35246
     -1949.589       -1519.150
  23663271.283    23663270.6084   23663273.8704  124351317.108 6  96897140.98642
     -3285.416       -2560.073
  23313570.490    23313571.2404   23313573.4844  122513638.613 5  95465199.48942
      3093.683        2410.677
  22250252.527    22250252.7644   22250253.7484  116925852.200 7  91111093.95044
      2283.864        1779.635
  21900533.202    21900532.6224   21900530.8544  115088071.109 7  89679026.35145
      -136.771        -106.574
  23578999.537    23579000.1864   23579002.9894  123908462.288 5  96552057.68742
     -3367.497       -2624.023
  23218756.422    23218755.9454   23218757.6404  122015364.443 6  95076924.94843
      -955.497        -744.528
  22058968.606    22058968.8144   22058969.8014  115920653.165 7  90327793.32244
     -1572.198       -1225.081
 06  5  5 13 20 30.0000000  0  9G 2G 4G 5G 6G13G23G24G25G30
  20518815.112    20518815.1174   20518814.0534  107827095.629 8  84021126.70846
       753.694         587.292
  21199679.511    21199679.8984   21199681.3624  111405058.902 8  86809151.63946
     -1965.080       -1531.233
  23682052.446    23682052.3424   23682053.5974  124450009.095 6  96974043.71742
     -3294.390       -2567.032
  23295933.498    23295933.8674   23295935.6174  122420954.772 6  95392978.37042
      3084.615        2403.585
  22237261.764    22237261.4064   22237261.8674  116857583.386 7  91057897.39344
      2266.596        1766.203
  21901371.764    21901371.3464   21901370.0364  115092479.008 7  89682461.08545
      -157.875        -123.018
  23598239.795    23598240.0314   23598243.9144  124009568.005 6  96630841.27142
     -3373.494       -2628.718
  23224258.330    23224258.2404   23224259.4474  122044278.288 6  95099455.25643
      -972.774        -757.998
  22067996.569    22067997.1174   22067998.4274  115968097.009 7  90364762.53944
     -1591.332       -1239.992
 06  5  5 13 21  0.0000000  0  9G 2G 4G 5G 6G13G23G24G25G30
  20514566.998    20514567.1344   20514565.9234  107804772.134 8  84003731.82946
       733.806         571.805
  21210939.882    21210940.0384   21210941.5054  111464231.431 8  86855260.01045
     -1980.434       -1543.195
  23700885.007    23700883.6104   23700886.6924  124548973.165 6  97051158.46542
     -3303.577       -2574.234
  23278348.223    23278348.6794   23278350.2074  122328544.337 6  95320970.24342
      3075.399        2396.426
  22224369.607    22224369.9014   22224369.9984  116789833.299 7  91005105.04844
      2249.413        1752.752
  21902330.074    21902330.2564   21902328.6894  115097517.015 7  89686386.78545
      -178.689        -139.230
  23617513.013    23617513.5794   23617516.0004  124110848.499 6  96709760.99642
     -3379.091       -2633.038
  23229858.621    23229857.8944   23229860.1404  122073707.748 6  95122387.27043
      -989.883        -771.315
  22077134.125    22077133.8524   22077135.4144  116016112.618 7  90402177.27544
     -1610.371       -1254.844
 06  5  5 13 21 30.0000000  0  9G 2G 4G 5G 6G13G23G24G25G30
  20510434.464    20510434.2224   20510433.2494  107783054.420 8  83986808.83046
       713.655         556.083
  21222289.587    21222290.0844   21222291.6024  111523875.658 7  86901736.02945
     -1996.069       -1555.371
  23719769.698    23719769.0524   23719772.2464  124648217.228 6  97128491.59442
     -3312.791       -2581.408
  23260818.217    23260818.3154   23260819.7764  122236420.213 6  95249185.21842
      3065.893        2388.988
  22211578.124    22211578.3944   22211578.6794  116722614.895 7  90952727.06844
      2231.682        1738.986
  21903410.788    21903410.9474   21903409.1074  115103195.958 7  89690811.91145
      -200.019        -155.852
  23636820.718    23636821.1304   23636824.5344  124212313.197 5  96788824.49142
     -3385.191       -2637.854
  23235559.076    23235558.5444   23235560.1164  122103662.483 6  95145728.60743
     -1007.302        -784.897
  22086380.852    22086381.5664   22086382.6054  116064708.567 7  90440044.23444
     -1629.641       -1269.853
 06  5  5 13 22  0.0000000  0  9G 2G 4G 5G 6G13G23G24G25G30
  20506415.833    20506415.8094   20506414.7844  107761937.100 8  83970353.78446
       693.411         540.325
  21233727.836    21233728.0064   21233729.4194  111583982.882 8  86948572.80845
     -2011.802       -1567.644
  23738706.099    23738705.6864   23738707.8824  124747731.352 5  97206034.95442
     -3322.084       -2588.570
  23243340.462    23243341.4194   23243343.0774  122144578.324 6  95177620.13442
      3056.297        2381.526
  22198887.234    22198887.6604   22198887.9164  116655923.849 7  90900760.01344
      2213.702        1724.941
  21904612.526    21904612.3044   21904610.6724  115109508.904 7  89695731.08045
      -221.390        -172.506
  23656162.206    23656161.8754   23656165.1654  124313952.944 5  96868024.31442
     -3391.267       -2642.543
  23241357.227    23241357.0914   23241359.0514  122134135.107 6  95169473.48043
     -1024.644        -798.434
  22095737.792    22095738.1954   22095738.9304  116113876.815 7  90478357.14744
     -1648.880       -1284.849
 06  5  5 13 22 30.0000000  0  9G 2G 4G 5G 6G13G23G24G25G30
  20502512.491    20502512.3884   20502511.2984  107741424.603 8  83954370.03447
       673.597         524.881
  21245254.361    21245254.5134   21245255.9514  111644555.221 8  86995771.99045
     -2026.852       -1579.353
  23757695.827    23757695.3674   23757697.0044  124847517.129 6  97283790.13242
     -3330.968       -2595.578
  23225918.997    23225919.4094   23225921.0164  122053024.655 6  95106279.62543
      3046.752        2374.090
  22186297.364    22186298.0174   22186298.1394  116589766.344 7  90849208.80944
      2196.279        1711.398
  21905934.884    21905934.8484   21905933.2234  115116459.706 7  89701147.25645
      -242.339        -188.832
  23675537.736    23675537.4154   23675540.7814  124415769.342 6  96947361.75242
     -3396.789       -2646.793
  23247255.262    23247255.3444   23247256.9804  122165128.135 6  95193623.87843
     -1041.909        -811.906
  22105202.932    22105203.4354   22105204.5034  116163619.021 7  90517117.26044
     -1667.860       -1299.621
 06  5  5 13 23  0.0000000  0  9G 2G 4G 5G 6G13G23G24G25G30
  20498723.785    20498723.5854   20498722.4884  107721514.209 8  83938855.52046
       653.153         508.957
  21256868.292    21256868.7464   21256869.8854  111705587.533 7  87043329.68245
     -2042.492       -1591.551
  23776734.043    23776734.3904   23776735.5284  124947567.675 6  97361751.55142
     -3339.651       -2602.282
  23208551.862    23208551.4574   23208553.1174  121961757.984 6  95035162.72843
      3037.236        2366.692
  22173809.493    22173809.9214   22173810.0014  116524140.833 7  90798072.03644
      2178.334        1697.380
  21907378.080    21907378.3164   21907376.5424  115124044.377 7  89707057.35445
      -263.647        -205.438
  23694945.070    23694944.3734   23694948.7654  124517756.904 6  97026832.40442
     -3402.584       -2651.278
  23253250.837    23253251.1134   23253252.4614  122196636.994 6  95218176.23943
     -1059.027        -825.221
  22114777.344    22114777.6234   22114778.8904  116213929.854 7  90556320.50344
     -1686.812       -1314.382
 06  5  5 13 23 30.0000000  0  9G 2G 4G 5G 6G13G23G24G25G30
  20495049.698    20495049.6924   20495048.7214  107702208.210 8  83923811.91946
       633.119         493.329
  21268570.255    21268570.0454   21268571.2784  111767079.598 7  87091245.70445
     -2057.720       -1603.415
  23795823.565    23795823.1224   23795825.4084  125047881.827 5  97439918.35442
     -3348.559       -2609.262
  23191238.863    23191239.3514   23191241.6214  121870782.861 6  94964273.10243
      3027.258        2358.904
  22161423.560    22161423.7504   22161424.1794  116459051.939 7  90747353.51644
      2160.296        1683.355
  21908942.712    21908942.4574   21908941.2054  115132264.389 7  89713462.55645
      -284.989        -222.081
  23714385.095    23714385.1574   23714388.9614  124619916.135 6  97106437.03642
     -3408.525       -2655.962
  23259344.468    23259345.4194   23259346.9594  122228662.319 6  95243131.04043
     -1076.428        -838.773
  22124458.768    22124459.6174   22124460.5924  116264809.179 7  90595966.74044
     -1705.789       -1329.193
 06  5  5 13 24  0.0000000  0  9G 2G 4G 5G 6G13G23G24G25G30
  20491493.648    20491493.5314   20491492.5244  107683520.157 8  83909249.78746
       612.496         477.268
  21280361.251    21280361.3534   21280362.6674  111829042.282 8  87139528.30845
     -2073.340       -1615.583
  23814964.385    23814964.9094   23814966.3484  125148469.816 6  97518298.50342
     -3357.615       -2616.323
  23173985.138    23173985.2994   23173987.3564  121780113.887 6  94893621.95843
      3017.050        2350.938
  22149142.741    22149143.0074   22149142.9754  116394514.308 7  90697064.44444
      2141.979        1669.103
  21910630.289    21910630.1474   21910628.7404  115141132.487 7  89720372.76845
      -306.537        -238.853
  23733859.962    23733860.7734   23733864.2464  124722257.664 5  97186183.71342
     -3414.388       -2660.527
  23265538.762    23265540.2774   23265541.4424  122261215.697 6  95268497.31343
     -1094.033        -852.487
  22134251.328    22134251.7144   22134252.8714  116316268.067 7  90636064.57844
     -1725.042       -1344.161
 06  5  5 13 24 30.0000000  0  9G 2G 4G 5G 6G13G23G24G25G30
  20488052.641    20488052.4584   20488051.5614  107665437.222 8  83895159.08746
       591.718         461.085
  21292238.928    21292239.1254   21292240.1244  111891460.237 7  87188165.60545
     -2089.156       -1627.905
  23834155.338    23834153.9334   23834156.2044  125249315.375 5  97596879.46942
     -3366.642       -2623.382
  23156787.842    23156788.8534   23156790.5594  121689740.183 6  94823200.92843
      3006.513        2342.735
  22136964.106    22136964.3594   22136964.9014  116330516.848 7  90647196.27644
      2123.213        1654.431
  21912438.346    21912438.3734   21912436.7404  115150634.154 7  89727776.60745
      -328.293        -255.795
  23753367.906    23753367.0914   23753370.8794  124824765.542 6  97266059.82642
     -3420.815       -2665.600
  23271832.493    23271832.3644   23271834.0694  122294282.593 6  95294263.71943
     -1111.784        -866.310
  22144150.616    22144150.9294   22144152.9354  116368290.964 7  90676601.94044
     -1744.417       -1359.276
 06  5  5 13 25  0.0000000  0  9G 2G 4G 5G 6G13G23G24G25G30
  20484729.753    20484729.6424   20484728.7374  107647975.158 8  83881552.16346
       571.896         445.641
  21304205.604    21304205.9934   21304207.4334  111954346.962 8  87237168.20645
     -2103.841       -1639.349
  23853396.633    23853395.9614   23853398.7274  125350430.879 5  97675670.89942
     -3374.984       -2629.896
  23139649.777    23139649.9214   23139652.1814  121599679.096 6  94753023.49643
      2996.878        2335.227
  22124891.953    22124891.9484   22124892.6754  116267076.929 7  90597762.62244
      2105.500        1640.647
  21914369.822    21914369.6254   21914368.3434  115160784.578 7  89735685.99745
      -348.987        -271.938
  23772907.396    23772907.9654   23772911.6064  124927453.487 5  97346076.45442
     -3425.806       -2669.457
  23278225.166    23278225.9784   23278226.5764  122327876.820 6  95320440.99543
     -1128.422        -879.275
  22154160.431    22154160.8424   22154161.8174  116420890.626 7  90717588.61144
     -1762.781       -1373.601
 06  5  5 13 25 30.0000000  0 10G 2G 4G 5G 6G10G13G23G24G25G30
  20481523.149    20481523.0464   20481522.1404  107631123.781 8  83868421.15447
       550.596         429.021
  21316259.784    21316259.7734   21316261.3124  112017689.567 8  87286526.03445
     -2119.960       -1651.922
  23872687.199    23872685.9904   23872688.2144  125451801.535 5  97754660.91042
     -3384.190       -2636.950
  23122570.080    23122570.1324   23122571.7234  121509921.850 6  94683082.78943
      2985.930        2326.721
  24331320.628    24331322.7834   24331324.8224  127861914.145 5  99632708.95041
      4080.655        3179.662
  22112924.313    22112924.4134   22112925.2384  116204185.674 7  90548756.34944
      2086.148        1625.600
  21916422.951    21916422.5814   21916421.3064  115171572.160 7  89744091.87645
      -371.269        -289.295
  23792480.285    23792480.8804   23792483.5184  125030307.975 6  97426222.72642
     -3432.313       -2674.533
  23284715.647    23284715.6274   23284718.0524  122361986.234 6  95347019.74443
     -1146.533        -893.339
  22164277.043    22164277.6264   22164278.6394  116474054.266 7  90759014.78644
     -1782.411       -1388.882
 06  5  5 13 26  0.0000000  0 10G 2G 4G 5G 6G10G13G23G24G25G30
  20478434.884    20478434.7414   20478433.8064  107614894.782 8  83855775.20147
       530.711         413.545
  21328401.948    21328402.1714   21328403.2794  112081497.282 8  87336246.28845
     -2134.546       -1663.283
  23892027.614    23892026.8304   23892029.3614  125553436.224 5  97833856.67842
     -3392.367       -2643.386
  23105549.941    23105550.1304   23105552.6854  121420481.944 6  94613389.34743
      2976.067        2319.028
  24308032.949    24308031.2354   24308035.1104  127739531.073 5  99537345.62341
      4077.151        3176.853
  22101063.588    22101063.9764   22101064.3294  116141856.400 7  90500188.02444
      2068.384        1611.705
  21918598.997    21918598.7624   21918597.4624  115183007.566 7  89753002.59645
      -391.821        -305.321
  23812086.989    23812086.9344   23812090.9394  125133338.309 6  97506506.04542
     -3437.167       -2678.345
  23291306.152    23291306.4684   23291308.9934  122396620.667 6  95374007.61043
     -1163.070        -906.284
  22174503.397    22174503.3984   22174504.1054  116527791.497 7  90800887.98544
     -1800.737       -1403.141
 06  5  5 13 26 30.0000000  0 10G 2G 4G 5G 6G10G13G23G24G25G30
  20475462.602    20475462.4384   20475461.4404  107599274.695 8  83843603.72447
       510.054         397.431
  21340629.284    21340629.8104   21340631.1424  112145754.084 8  87386316.44545
     -2149.789       -1675.146
  23911415.495    23911414.0044   23911416.5484  125655317.857 5  97913244.80942
     -3400.635       -2649.836
  23088587.744    23088588.4524   23088591.4614  121331347.547 6  94543933.96543
      2965.625        2310.876
  24284764.466    24284762.4384   24284767.8754  127617257.214 5  99442067.28441
      4073.321        3173.978
  22089307.607    22089307.8414   22089308.3204  116080077.468 7  90452048.56744
      2049.620        1597.102
  21920895.668    21920895.2484   21920893.8454  115195076.680 7  89762407.08545
      -413.248        -322.005
  23831724.157    23831723.0464   23831726.5544  125236528.746 6  97586914.21442
     -3442.814       -2682.678
  23297994.747    23297994.4874   23297996.4144  122431764.971 6  95401392.79843
     -1180.412        -919.810
  22184834.508    22184835.0074   22184836.0394  116582085.645 7  90843195.15644
     -1819.552       -1417.830
 06  5  5 13 27  0.0000000  0 10G 2G 4G 5G 6G10G13G23G24G25G30
  20472605.102    20472604.7824   20472603.9814  107584258.457 8  83831902.66446
       490.265         382.037
  21352941.340    21352941.5644   21352942.6344  112210452.990 7  87436731.11945
     -2164.134       -1686.324
  23930848.112    23930847.9714   23930850.2334  125757437.986 6  97992818.70142
     -3408.100       -2655.656
  23071683.302    23071684.3764   23071685.4384  121242515.627 6  94474714.28343
      2955.869        2303.271
  24261515.354    24261515.3054   24261518.4734  127495090.109 5  99346872.28441
      4070.213        3171.649
  22077655.017    22077655.6174   22077656.2754  116018845.881 7  90404335.59344
      2031.706        1583.146
  21923311.816    21923311.3714   21923309.8864  115207773.104 7  89772300.42545
      -433.822        -338.045
  23851389.204    23851389.1684   23851392.8224  125339871.264 6  97667440.60742
     -3447.450       -2686.277
  23304778.038    23304777.2604   23304779.4554  122467412.254 6  95429169.90843
     -1196.710        -932.494
  22195270.580    22195271.6224   22195272.7884  116636929.384 7  90885930.54344
     -1837.484       -1431.817
 06  5  5 13 27 30.0000000  0 10G 2G 4G 5G 6G10G13G23G24G25G30
  20469864.086    20469864.0124   20469862.9444  107569854.234 8  83820678.55147
       469.433         365.791
  21365338.454    21365338.7844   21365340.0494  112275599.489 8  87487494.60645
     -2179.516       -1698.326
  23950326.679    23950326.0714   23950328.7304  125859802.197 6  98072583.07842
     -3416.646       -2662.295
  23054840.153    23054839.3864   23054841.1904  121153995.970 6  94405737.89443
      2944.856        2294.697
  24238291.921    24238290.5844   24238294.2964  127373039.676 5  99251768.09841
      4065.947        3168.285
  22066109.215    22066109.4054   22066110.2774  115958171.177 7  90357056.77744
      2012.632        1568.294
  21925848.077    21925848.3374   21925846.8144  115221104.090 7  89782688.21645
      -455.551        -354.984
  23871085.669    23871085.2284   23871086.8164  125443372.108 6  97748090.42242
     -3453.248       -2690.812
  23311659.208    23311657.9034   23311660.2464  122503568.920 6  95457343.94143
     -1214.319        -946.200
  22205812.655    22205813.7564   22205814.7144  116692328.303 7  90929098.52644
     -1856.315       -1446.479
 06  5  5 13 28  0.0000000  0 10G 2G 4G 5G 6G10G13G23G24G25G30
  20467241.139    20467240.9024   20467240.1134  107556070.393 8  83809937.93947
       448.571         349.531
  21377821.779    21377821.9124   21377823.1174  112341199.420 8  87538611.38845
     -2194.810       -1710.252
  23969854.002    23969852.7724   23969856.6254  125962414.190 5  98152540.40742
     -3425.045       -2668.847
  23038055.935    23038056.4854   23038058.1714  121065798.668 6  94337012.71643
      2933.924        2286.186
  24215089.301    24215090.0264   24215092.4814  127251116.093 5  99156762.96941
      4061.359        3164.686
  22054671.262    22054671.3474   22054671.6794  115898062.225 7  90310218.57144
      1993.539        1553.409
  21928507.373    21928506.7364   21928505.7194  115235076.643 7  89793575.95645
      -477.076        -371.757
  23890812.072    23890812.2024   23890813.9814  125547036.525 6  97828867.66042
     -3458.819       -2695.170
  23318637.019    23318636.6594   23318638.0574  122540241.198 6  95485919.71743
     -1231.701        -959.804
  22216461.348    22216461.6614   22216463.4584  116748287.665 7  90972703.19444
     -1875.207       -1461.209
 06  5  5 13 28 30.0000000  0 10G 2G 4G 5G 6G10G13G23G24G25G30
  20464734.415    20464734.2864   20464733.3404  107542898.039 8  83799673.84046
       428.191         333.653
  21390389.115    21390389.3284   21390390.6904  112407241.248 7  87590072.48245
     -2209.439       -1721.639
  23989424.475    23989423.3314   23989426.3484  126065262.240 5  98232681.70142
     -3432.945       -2675.035
  23021332.230    23021332.9014   23021334.6214  120977916.689 6  94268533.27743
      2923.294        2277.887
  24191910.509    24191911.1354   24191914.6104  127129312.310 5  99061851.09341
      4057.416        3161.633
  22043338.930    22043339.4454   22043339.7304  115838513.015 7  90263816.70644
      1974.904        1538.884
  21931286.420    21931286.1814   21931284.6284  115249681.062 7  89804956.07445
      -498.057        -388.105
  23910568.374    23910566.9364   23910570.2494  125650852.896 6  97909763.07242
     -3463.781       -2699.053
  23325711.543    23325711.2604   23325713.1034  122577418.475 6  95514888.98943
     -1248.416        -972.771
  22227214.773    22227215.3204   22227217.2014  116804796.277 6  91016735.84944
     -1893.544       -1475.503
 06  5  5 13 29  0.0000000  0 10G 2G 4G 5G 6G10G13G23G24G25G30
  20462346.122    20462345.9244   20462345.0784  107530347.576 8  83789894.25647
       407.430         317.483
  21403042.262    21403042.5314   21403043.8904  112473733.884 8  87641884.94645
     -2224.312       -1733.226
  24009041.885    24009042.2814   24009046.0084  126168353.503 6  98313012.45742
     -3441.020       -2681.332
  23004671.200    23004671.4534   23004673.3614  120890362.348 6  94200309.08543
      2912.383        2269.413
  24168757.146    24168757.1754   24168761.1294  127007640.797 5  98967042.21941
      4053.007        3158.192
  22032115.678    22032115.9964   22032117.2654  115779535.461 7  90217860.25444
      1955.988        1524.144
  21934187.503    21934187.0704   21934185.6054  115264926.677 7  89816835.79445
      -519.237        -404.603
  23930354.074    23930353.8884   23930357.1634  125754830.357 6  97990784.30242
     -3468.846       -2702.955
  23332883.253    23332883.5194   23332886.2804  122615109.757 6  95544258.81443
     -1265.394        -986.062
  22238074.518    22238074.9544   22238076.3094  116861862.475 7  91061203.02844
     -1912.066       -1489.910
 06  5  5 13 29 30.0000000  0 10G 2G 4G 5G 6G10G13G23G24G25G30
  20460078.068    20460077.9424   20460076.9344  107518428.787 8  83780606.86746
       387.144         301.670
  21415782.387    21415782.7044   21415784.0234  112540683.906 7  87694053.78445
     -2238.950       -1744.630
  24028707.864    24028708.3284   24028709.4324  126271694.368 5  98393537.78942
     -3448.621       -2687.198
  22988075.092    22988074.9074   22988077.0584  120803147.230 6  94132349.30043
      2901.965        2261.250
  24145632.251    24145631.4224   24145634.0074  126886113.333 5  98872345.56941
      4048.671        3154.787
  22021003.395    22021003.7374   22021004.4434  115721140.291 7  90172357.47944
      1936.976        1509.325
  21937212.135    21937211.8744   21937210.4354  115280822.063 7  89829221.81745
      -540.330        -421.030
  23950172.249    23950171.6314   23950174.0764  125858976.948 6  98071937.75542
     -3474.144       -2707.072
  23340155.444    23340155.8824   23340157.5704  122653322.792 6  95574035.19043
     -1282.068        -999.008
  22249041.680    22249041.5024   22249042.6314  116919493.075 7  91106109.99644
     -1930.012       -1503.916
 06  5  5 13 30  0.0000000  0 10G 2G 4G 5G 6G10G13G23G24G25G30
  20457925.524    20457925.3564   20457924.4404  107507117.451 8  83771792.87746
       366.638         285.695
  21428604.471    21428604.8764   21428606.1744  112608065.134 7  87746558.63245
     -2253.658       -1756.098
  24048415.847    24048414.7374   24048417.1164  126375257.072 5  98474235.89042
     -3456.086       -2693.051
  22971538.656    22971538.9744   22971540.1334  120716248.945 6  94064636.35643
      2890.972        2252.705
  24122529.842    24122528.7094   24122533.0164  126764707.913 5  98777743.90041
      4044.491        3151.555
  22009998.357    22009998.0284   22009998.5624  115663305.255 7  90127291.16444
      1918.009        1494.563
  21940355.639    21940355.5664   21940354.0904  115297341.996 7  89842094.48445
      -561.506        -437.537
  23970017.371    23970016.6074   23970021.3424  125963264.600 6  98153201.13742
     -3479.149       -2711.106
  23347521.709    23347521.3574   23347523.8794  122692031.389 6  95604197.72343
     -1298.873       -1012.110
  22260110.652    22260111.0514   22260112.3154  116977661.047 7  91151435.69244
     -1948.148       -1518.011
 06  5  5 13 30 30.0000000  0 10G 2G 4G 5G 6G10G13G23G24G25G30
  20455892.338    20455892.1654   20455891.2664  107496432.502 8  83763466.92446
       345.096         268.923
  21441512.361    21441512.3744   21441513.7114  112675894.087 8  87799412.31045
     -2269.088       -1768.105
  24068167.468    24068167.9204   24068170.9184  126479057.792 6  98555119.61242
     -3464.546       -2699.657
  22955066.739    22955067.0664   22955069.0144  120629688.256 6  93997186.42943
      2879.021        2243.378
  24099453.947    24099453.8824   24099456.5734  126643445.855 5  98683253.97841
      4038.997        3147.260
  21999102.571    21999103.2204   21999103.4384  115606050.907 7  90082677.33844
      1897.956        1478.926
  21943621.536    21943621.5364   21943620.0874  115314504.364 7  89855467.76145
      -583.532        -454.702
  23989893.143    23989892.9384   23989895.9744  126067709.576 6  98234586.73442
     -3484.778       -2715.446
  23354984.148    23354984.5364   23354987.1504  122731252.923 6  95634759.92243
     -1316.736       -1026.044
  22271285.002    22271285.1844   22271286.3564  117036383.176 7  91197193.24344
     -1967.263       -1532.933
 06  5  5 13 31  0.0000000  0 10G 2G 4G 5G 6G10G13G23G24G25G30
  20453976.464    20453976.3454   20453975.3344  107486364.784 8  83755621.91447
       325.154         253.369
  21454502.387    21454502.7154   21454504.3264  112744159.286 8  87852605.94145
     -2282.854       -1778.843
  24087963.467    24087963.2444   24087964.7044  126583083.656 5  98636178.70242
     -3471.503       -2705.031
  22938657.999    22938657.3074   22938659.6274  120543458.058 6  93929994.04843
      2868.574        2235.211
  24076403.690    24076403.9674   24076406.4244  126522320.002 5  98588870.21441
      4034.951        3144.052
  21988316.999    21988316.8224   21988317.8824  115549369.979 7  90038510.38444
      1879.724        1464.756
  21947008.271    21947007.9744   21947006.2714  115332299.600 7  89869334.24645
      -603.770        -470.465
  24009795.763    24009795.9484   24009798.5524  126172301.331 5  98316086.78242
     -3488.864       -2718.608
  23362544.327    23362544.3954   23362546.4594  122770976.444 6  95665713.31743
     -1332.499       -1038.329
  22282562.551    22282562.7334   22282563.8764  117095647.366 7  91243373.10844
     -1984.625       -1546.480
 06  5  5 13 31 30.0000000  0 10G 2G 4G 5G 6G10G13G23G24G25G30
  20452179.011    20452178.9864   20452178.0534  107476919.042 8  83748261.48546
       303.854         236.767
  21467576.399    21467576.7414   21467578.1284  112812863.069 7  87906141.30545
     -2297.952       -1790.606
  24107801.671    24107802.3254   24107804.2474  126687336.512 5  98717414.86542
     -3479.575       -2711.369
  22922313.326    22922313.0624   22922315.4594  120457565.038 6  93863064.43943
      2856.722        2226.003
  24053381.383    24053381.6384   24053383.5904  126401337.355 5  98494598.11741
      4029.469        3139.833
  21977641.394    21977641.4604   21977642.2294  115493268.486 7  89994794.85444
      1859.812        1449.216
  21950515.667    21950514.8764   21950513.4584  115350730.207 7  89883695.77745
      -625.424        -487.334
  24029726.488    24029726.4164   24029728.9514  126277041.864 5  98397702.73142
     -3494.473       -2722.917
  23370198.801    23370199.7914   23370202.1014  122811204.891 6  95697060.16443
     -1349.912       -1051.872
  22293943.517    22293943.6044   22293945.1904  117155455.778 7  91289977.00544
     -2003.307       -1560.997
 06  5  5 13 32  0.0000000  0 10G 2G 4G 5G 6G10G13G23G24G25G30
  20450499.322    20450499.0794   20450498.1384  107468091.292 8  83741382.64246
       283.803         221.147
  21480732.484    21480732.7044   21480734.3484  112881999.175 8  87960013.62145
     -2311.788       -1801.410
  24127682.577    24127682.4084   24127684.0684  126791808.040 5  98798821.12542
     -3486.020       -2716.395
  22906032.547    22906032.1194   22906033.8744  120372006.602 6  93796395.52343
      2846.266        2217.849
  24030386.565    24030385.6644   24030389.2094  126280495.415 5  98400435.51841
      4025.679        3136.851
  21967075.170    21967075.7604   21967075.9544  115437744.048 7  89951528.95444
      1841.062        1434.586
  21954142.468    21954142.3144   21954140.7284  115369791.023 7  89898548.34345
      -645.920        -503.309
  24049686.296    24049685.8384   24049687.3634  126381924.552 6  98479429.52042
     -3498.532       -2726.125
  23377949.326    23377949.5124   23377951.5944  122851932.084 6  95728795.63443
     -1365.949       -1064.384
  22305427.596    22305427.0924   22305428.1304  117215801.565 6  91336999.58544
     -2020.598       -1574.489
 06  5  5 13 32 30.0000000  0 10G 2G 4G 5G 6G10G13G23G24G25G30
  20448938.192    20448938.0374   20448937.0494  107459888.203 8  83734990.74046
       262.881         204.822
  21493971.676    21493971.9104   21493973.6124  112951572.029 7  88014226.27245
     -2326.562       -1812.926
  24147605.209    24147604.6994   24147607.7574  126896502.918 5  98880401.56342
     -3493.623       -2722.215
  22889816.706    22889816.0704   22889818.2734  120286791.981 6  93729994.54143
      2834.727        2208.865
  24007420.510    24007418.5774   24007420.7794  126159803.998 5  98306390.41141
      4020.362        3132.755
  21956620.967    21956621.3614   21956621.5984  115382805.352 7  89908719.58444
      1821.359        1419.244
  21957890.625    21957890.4464   21957888.9504  115389488.138 7  89913896.74045
      -667.282        -519.983
  24069672.032    24069672.6274   24069675.5024  126486954.116 5  98561270.64542
     -3503.663       -2730.157
  23385795.321    23385795.6154   23385797.5224  122893163.337 6  95760923.86243
     -1382.684       -1077.410
  22317014.281    22317014.1464   22317015.3014  117276689.461 7  91384444.67244
     -2038.726       -1588.628
 06  5  5 13 33  0.0000000  0 10G 2G 4G 5G 6G10G13G23G24G25G30
  20447496.307    20447496.1624   20447495.2484  107452311.094 8  83729086.55347
       241.642         188.299
  21507293.661    21507293.9974   21507295.4964  113021580.546 7  88068778.46045
     -2341.419       -1824.478
  24167569.623    24167569.8934   24167571.7444  127001418.386 5  98962153.73842
     -3501.258       -2728.253
  22873666.261    22873665.9754   22873667.9564  120201923.910 6  93663863.59243
      2822.572        2199.422
  23984482.094    23984482.0164   23984482.5534  126039265.540 5  98212464.27841
      4014.885        3128.454
  21946278.484    21946278.9094   21946279.2144  115328454.949 7  89866368.63144
      1801.222        1403.548
  21961759.997    21961759.8594   21961758.4934  115409821.631 7  89929740.99845
      -689.073        -536.930
  24089686.254    24089686.4784   24089689.8794  126592129.942 6  98643225.85642
     -3508.866       -2734.149
  23393737.843    23393737.3364   23393740.0844  122934897.999 6  95793444.37543
     -1400.061       -1090.942
  22328703.017    22328703.5114   22328704.3274  117338117.923 7  91432310.97544
     -2057.069       -1602.920
 06  5  5 13 33 30.0000000  0 10G 2G 4G 5G 6G10G13G23G24G25G30
  20446174.221    20446174.0934   20446173.0274  107445363.203 8  83723672.62247
       221.164         172.332
  21520698.965    21520699.5704   21520700.9104  113092025.774 7  88123670.82445
     -2355.329       -1835.319
  24187575.881    24187577.3214   24187577.4904  127106555.351 5  99044078.61241
     -3508.127       -2733.603
  22857583.216    22857583.3584   22857585.3504  120117408.185 6  93598007.22743
      2811.388        2190.669
  23961574.121    23961574.9574   23961576.1364  125918886.426 5  98118662.53641
      4010.118        3124.756
  21936048.626    21936048.9594   21936049.5364  115274697.888 7  89824479.99044
      1782.106        1388.630
  21965750.550    21965750.5364   21965748.9914  115430793.640 7  89946082.76745
      -709.625        -552.965
  24109728.850    24109729.0324   24109730.9164  126697452.435 6  98725295.28642
     -3513.081       -2737.499
  23401776.156    23401775.5834   23401777.8184  122977137.755 6  95826358.47643
     -1416.389       -1103.687
  22340495.241    22340496.1384   22340497.3954  117400087.883 6  91480599.28244
     -2074.597       -1616.593
 06  5  5 13 34  0.0000000  0 10G 2G 4G 5G 6G10G13G23G24G25G30
  20444971.118    20444971.0944   20444970.1114  107439041.019 8  83718746.14747
       200.279         156.062
  21534186.719    21534186.7704   21534188.2774  113162901.972 7  88178898.90745
     -2369.716       -1846.532
  24207623.749    24207625.4354   24207626.8284  127211907.046 5  99126170.81541
     -3515.471       -2739.299
  22841568.002    22841566.9594   22841568.5384  120033243.208 6  93532424.17443
      2799.737        2181.616
  23938697.244    23938697.7664   23938698.2564  125798665.530 5  98024984.01241
      4004.686        3120.512
  21925931.647    21925932.0664   21925932.5834  115221532.475 7  89783052.38044
      1762.327        1373.236
  21969862.649    21969862.4404   21969861.0884  115452399.951 7  89962918.72345
      -730.726        -569.396
  24129797.746    24129797.7654   24129800.9574  126802916.323 5  98807474.88542
     -3517.834       -2741.131
  23409908.595    23409908.7204   23409910.5374  123019877.445 6  95859662.13243
     -1432.821       -1116.500
  22352389.323    22352390.0904   22352391.6954  117462593.084 7  91529304.61144
     -2092.417       -1630.454
 06  5  5 13 34 30.0000000  0 10G 2G 4G 5G 6G10G13G23G24G25G30
  20443886.576    20443886.3804   20443885.5964  107433341.206 8  83714304.73247
       178.976         139.474
  21547755.179    21547755.3204   21547756.5354  113234203.466 7  88234458.42745
     -2384.362       -1857.933
  24227711.406    24227712.0124   24227715.1714  127317466.485 5  99208424.85041
     -3522.750       -2745.017
  22825618.142    22825617.5334   22825619.7814  119949427.313 6  93467113.07443
      2787.281        2171.885
  23915850.101    23915849.4094   23915853.0764  125678601.346 5  97931427.60041
      3998.890        3116.031
  21915926.875    21915927.0794   21915927.5294  115168956.799 7  89742084.33144
      1742.081        1357.465
  21974094.173    21974093.5394   21974092.4024  115474636.224 7  89980245.71545
      -752.282        -586.206
  24149892.764    24149893.2664   24149896.3034  126908516.068 6  98889760.31142
     -3522.666       -2744.968
  23418136.008    23418135.7604   23418137.6304  123063111.561 6  95893351.03143
     -1449.971       -1129.841
  22364384.457    22364385.3184   22364387.0004  117525627.321 6  91578422.11444
     -2110.644       -1644.627
 06  5  5 13 35  0.0000000  0 10G 2G 4G 5G 6G10G13G23G24G25G30
  20442921.696    20442921.5594   20442920.5674  107428270.610 8  83710353.63446
       158.448         123.466
  21561405.103    21561405.4004   21561406.7554  113305935.540 7  88290353.59345
     -2398.388       -1868.884
  24247839.736    24247838.4774   24247841.3294  127423237.943 5  99290844.12041
     -3529.599       -2750.293
  22809736.541    22809736.0684   22809737.7474  119865969.720 6  93402081.21643
      2775.680        2162.886
  23893034.221    23893032.7834   23893034.6054  125558703.076 5  97838000.36641
      3993.397        3111.767
  21906035.941    21906036.2714   21906036.7324  115116979.390 7  89701582.40744
      1722.408        1342.112
  21978446.228    21978446.0704   21978444.4384  115497507.720 7  89998067.61445
      -773.155        -602.470
  24170015.316    24170015.3564   24170017.7154  127014256.679 6  98972155.71542
     -3527.214       -2748.471
  23426458.813    23426458.7274   23426459.8164  123106845.523 6  95927429.43143
     -1466.355       -1142.605
  22376481.788    22376481.9944   22376483.2744  117589195.167 7  91627955.38744
     -2128.009       -1658.197
 06  5  5 13 35 30.0000000  0 10G 2G 4G 5G 6G10G13G23G24G25G30
  20442075.097    20442074.8684   20442073.9394  107423821.047 8  83706886.37947
       136.827         106.604
  21575135.286    21575135.5164   21575137.0824  113378087.139 7  88346575.55145
     -2413.155       -1880.378
  24268005.594    24268005.5454   24268007.8964  127529209.910 5  99373419.60641
     -3536.787       -2755.960
  22793922.090    22793921.2104   22793923.1084  119782864.360 6  93337323.82743
      2763.300        2153.216
  23870247.945    23870249.1914   23870250.2564  125438965.196 5  97744698.17541
      3987.438        3107.075
  21896257.710    21896257.8624   21896258.6644  115065593.932 7  89661541.84344
      1701.888        1326.157
  21982917.653    21982917.4364   21982916.1734  115521005.341 7  90016377.47745
      -794.674        -619.222
  24190161.003    24190159.7604   24190161.8634  127120127.486 5  99054652.50041
     -3532.240       -2752.385
  23434874.863    23434874.6094   23434875.7064  123151069.392 6  95961889.56143
     -1483.232       -1155.781
  22388677.720    22388678.4294   22388679.7634  117653286.248 7  91677896.42544
     -2146.109       -1672.301
 06  5  5 13 36  0.0000000  0 10G 2G 4G 5G 6G10G13G23G24G25G30
  20441349.034    20441348.9664   20441348.0304  107420006.267 8  83703913.78246
       116.426          90.714
  21588947.497    21588947.6834   21588948.9914  113450669.759 7  88403133.34245
     -2426.751       -1890.988
  24288211.127    24288210.0714   24288213.7644  127635392.826 5  99456159.45242
     -3543.070       -2760.868
  22778177.168    22778177.1384   22778179.0794  119700126.388 6  93272852.69943
      2751.526        2144.046
  23847496.113    23847495.0434   23847497.9874  125319403.442 5  97651533.16641
      3982.318        3103.111
  21886595.145    21886595.2084   21886595.4954  115014815.215 7  89621973.91644
      1682.261        1310.855
  21987510.906    21987510.3794   21987508.7644  115545141.089 7  90035184.57245
      -815.402        -635.381
  24210335.153    24210333.9374   24210337.2694  127226139.443 5  99137259.11542
     -3536.270       -2755.500
  23443385.122    23443384.8504   23443387.0834  123195794.899 6  95996740.59443
     -1499.569       -1168.518
  22400975.341    22400976.0594   22400977.1544  117717911.226 7  91728253.56844
     -2163.259       -1685.647
 06  5  5 13 36 30.0000000  0 10G 2G 4G 5G 6G10G13G23G24G25G30
  20440744.124    20440744.0374   20440743.0644  107416827.696 8  83701437.03847
        95.403          74.345
  21602841.375    21602841.5094   21602842.6884  113523682.661 8  88460026.56645
     -2440.975       -1902.054
  24308458.250    24308457.1554   24308460.4464  127741785.154 5  99539062.48541
     -3549.721       -2766.065
  22762503.632    22762503.3484   22762504.4004  119617759.490 6  93208670.75143
      2739.506        2134.676
  23824778.393    23824778.5114   23824781.5994  125200021.380 5  97558508.17642
      3976.290        3098.393
  21877048.212    21877048.3134   21877048.8474  114964646.863 7  89582881.82344
      1661.964        1295.027
  21992225.293    21992224.8204   21992223.1334  115569915.588 7  90054489.38445
      -836.505        -651.812
  24230534.461    24230535.0034   24230537.5124  127332292.338 5  99219975.66342
     -3540.999       -2759.142
  23451991.279    23451991.4564   23451993.1274  123241021.565 6  96031982.12043
     -1515.861       -1181.192
  22413374.972    22413375.0054   22413376.6124  117783069.001 7  91779025.82544
     -2180.675       -1699.225
 06  5  5 13 37  0.0000000  0 10G 2G 4G 5G 6G10G13G23G24G25G30
  20440259.195    20440259.0324   20440258.0384  107414278.723 8  83699450.77347
        74.283          57.891
  21616815.512    21616815.7394   21616816.8394  113597117.594 8  88517248.60845
     -2455.096       -1913.078
  24328741.435    24328740.3874   24328743.5414  127848377.742 5  99622121.50941
     -3556.509       -2771.224
  22746898.740    22746899.5194   22746900.2444  119535759.961 6  93144775.04543
      2727.050        2125.000
  23802094.482    23802093.4444   23802097.5674  125080815.696 6  97465620.67442
      3970.401        3093.852
  21867616.766    21867616.9034   21867617.1864  114915083.767 7  89544261.23544
      1641.817        1279.364
  21997059.759    21997059.5654   21997058.0454  115595321.745 7  90074286.40945
      -857.587        -668.240
  24250760.445    24250759.5994   24250763.3604  127438578.008 5  99302795.68741
     -3545.155       -2762.406
  23460691.205    23460691.6764   23460692.8264  123286741.752 6  96067608.23243
     -1532.442       -1194.141
  22425873.886    22425874.2074   22425875.4824  117848751.295 7  91830206.83343
     -2198.182       -1712.854
 06  5  5 13 37 30.0000000  0 10G 2G 4G 5G 6G10G13G23G24G25G30
  20439893.733    20439893.5464   20439892.5564  107412357.491 8  83697953.66546
        52.798          41.157
  21630869.149    21630869.2754   21630870.7084  113670970.322 7  88574796.22445
     -2469.438       -1924.213
  24349061.846    24349062.8194   24349064.7644  127955165.510 5  99705332.65241
     -3563.556       -2776.803
  22731364.553    22731364.7434   22731366.6084  119454127.521 6  93081165.39743
      2714.106        2114.871
  23779445.112    23779444.0474   23779446.3724  124961786.379 5  97372870.58542
      3963.927        3088.804
  21858300.212    21858300.1864   21858300.8584  114866125.746 7  89506112.21544
      1621.116        1263.212
  22002013.701    22002013.8754   22002012.2094  115621356.084 7  90094572.91245
      -878.966        -684.904
  24271010.466    24271010.5674   24271013.7184  127544991.941 6  99385715.59642
     -3549.872       -2766.133
  23469484.276    23469485.2644   23469486.0524  123332951.515 6  96103615.85743
     -1549.107       -1207.067
  22438471.767    22438472.1604   22438472.7594  117914952.747 7  91881792.35443
     -2216.083       -1726.822
 06  5  5 13 38  0.0000000  0 10G 2G 4G 5G 6G10G13G23G24G25G30
  20439647.258    20439647.2694   20439646.0884  107411062.908 8  83696944.87047
        32.125          25.037
  21645001.431    21645001.9304   21645003.0074  113745236.998 7  88632666.24745
     -2483.032       -1934.842
  24369420.697    24369420.8764   24369422.2264  128062144.586 5  99788693.00941
     -3569.706       -2781.635
  22715901.157    22715900.9714   22715902.2184  119372863.011 6  93017842.42443
      2702.063        2105.489
  23756827.977    23756826.8844   23756829.2574  124842934.920 5  97280259.20842
      3958.129        3084.252
  21849098.880    21849098.8584   21849099.4584  114817773.006 8  89468434.75244
      1601.063        1247.585
  22007087.369    22007086.9754   22007085.4594  115648016.248 7  90115347.08545
      -899.689        -701.061
  24291284.691    24291284.2034   24291287.8254  127651531.213 5  99468733.16042
     -3553.917       -2769.268
  23478371.202    23478370.9344   23478372.1954  123379647.889 6  96140002.62743
     -1565.220       -1219.645
  22451167.373    22451167.9534   22451169.0184  117981670.269 7  91933780.05243
     -2233.060       -1740.034
 06  5  5 13 38 30.0000000  0 10G 2G 4G 5G 6G10G13G23G24G25G30
  20439519.516    20439519.4634   20439518.4024  107410391.459 8  83696421.66647
        11.947           9.325
  21659211.908    21659212.2504   21659213.5804  113819912.883 7  88690855.29245
     -2495.845       -1944.797
  24389812.765    24389812.4864   24389813.4574  128169308.513 5  99872197.51541
     -3574.767       -2785.541
  22700506.597    22700506.3124   22700508.4104  119291965.353 6  92954805.36143
      2690.549        2096.554
  23734244.896    23734244.0924   23734245.9134  124724260.147 5  97187785.47941
      3953.434        3080.570
  21840012.637    21840012.9974   21840013.5004  114770024.036 7  89431227.77444
      1581.745        1232.544
  22012278.847    22012278.2024   22012276.9704  115675297.822 7  90136605.43745
      -919.553        -716.524
  24311580.067    24311579.1164   24311582.2364  127758190.621 5  99551844.30741
     -3556.694       -2771.388
  23487348.593    23487348.3354   23487349.5694  123426825.898 6  96176764.70743
     -1580.427       -1231.480
  22463960.477    22463960.9664   22463961.9484  118048897.652 7  91986165.02343
     -2249.225       -1752.630
 06  5  5 13 39  0.0000000  0 10G 2G 4G 5G 6G10G13G23G24G25G30
  20439511.316    20439511.2144   20439510.2984  107410349.102 8  83696388.77447
        -9.158          -7.123
  21673501.029    21673501.0294   21673502.2844  113895001.318 7  88749365.74345
     -2509.960       -1955.807
  24410240.538    24410240.2264   24410242.5354  128276659.738 5  99955847.73541
     -3581.644       -2790.891
  22685183.406    22685183.6464   22685184.9304  119211442.542 6  92892060.33843
      2677.767        2086.581
  23711696.682    23711695.9994   23711697.9794  124605770.567 5  97095455.98542
      3946.374        3075.072
  21831042.158    21831042.7954   21831043.2294  114722885.858 7  89394496.69044
      1560.995        1216.364
  22017589.071    22017589.1694   22017587.4354  115703205.424 7  90158351.61145
      -940.756        -733.060
  24331899.802    24331901.0354   24331904.6244  127864973.912 6  99635052.10542
     -3561.550       -2775.213
  23496418.450    23496418.7244   23496420.0674  123474489.608 6  96213905.25243
     -1596.912       -1244.327
  22476850.639    22476851.0294   22476852.9464  118116638.347 7  92038949.92843
     -2266.636       -1766.204
 06  5  5 13 39 30.0000000  0 10G 2G 4G 5G 6G10G13G23G24G25G30
  20439621.923    20439621.8824   20439620.9754  107410931.210 8  83696842.37247
       -30.119         -23.477
  21687866.676    21687866.9814   21687868.2114  113970495.892 7  88808192.68945
     -2523.577       -1966.433
  24430703.076    24430702.9574   24430705.3124  128384191.202 5 100039638.37541
     -3587.647       -2795.603
  22669931.284    22669931.2104   22669933.4114  119131292.280 6  92829605.61243
      2665.154        2076.742
  23689183.697    23689182.4714   23689186.0904  124487464.285 5  97003269.27142
      3940.175        3070.251
  21822188.140    21822188.3184   21822188.8034  114676356.393 7  89358240.00244
      1540.482        1200.393
  22023017.841    22023017.9504   22023015.9594  115731733.807 7  90180581.47345
      -961.611        -749.306
  24352242.735    24352242.3824   24352247.8754  127971874.971 5  99718351.63042
     -3565.596       -2778.388
  23505579.923    23505579.9344   23505580.7724  123522633.052 6  96251419.65043
     -1613.028       -1256.940
  22489838.095    22489838.2624   22489839.6294  118184885.472 6  92092129.42743
     -2283.582       -1779.417
 06  5  5 13 40  0.0000000  0 10G 2G 4G 5G 6G10G13G23G24G25G30
  20439852.766    20439852.9334   20439851.9304  107412144.766 8  83697788.04346
       -51.482         -40.109
  21702311.105    21702311.5944   21702312.7694  114046401.235 7  88867339.68145
     -2537.487       -1977.265
  24451201.087    24451200.7494   24451202.3884  128491907.041 5 100123572.74241
     -3593.966       -2800.510
  22654751.596    22654751.3954   22654753.7134  119051523.724 6  92767448.33743
      2652.150        2066.604
  23666708.175    23666705.8354   23666708.4414  124369350.814 5  96911232.89042
      3933.222        3064.815
  21813451.410    21813451.6924   21813451.9514  114630443.762 7  89322463.92545
      1519.590        1184.087
  22028565.863    22028565.8364   22028564.2454  115760888.352 7  90203299.29445
      -982.752        -765.774
  24372609.074    24372608.2414   24372613.3014  128078898.433 5  99801746.36241
     -3569.935       -2781.761
  23514833.756    23514833.7594   23514834.6084  123571261.187 6  96289311.68343
     -1629.439       -1269.695
  22502922.820    22502922.5364   22502923.4444  118253643.213 7  92145706.81343
     -2300.879       -1792.919
 06  5  5 13 40 30.0000000  0 10G 2G 4G 5G 6G10G13G23G24G25G30
  20440204.611    20440204.3694   20440203.6404  107413992.288 8  83699227.66047
       -72.053         -56.133
  21716833.585    21716834.2184   21716835.4934  114122718.335 7  88926807.58145
     -2550.571       -1987.454
  24471734.161    24471734.2094   24471736.7004  128599807.247 5 100207650.84241
     -3599.591       -2804.908
  22639646.207    22639645.9314   22639647.7194  118972141.864 6  92705592.37143
      2639.727        2056.968
  23644267.215    23644267.8734   23644269.6214  124251435.464 5  96819350.84142
      3927.204        3060.135
  21804832.631    21804832.8234   21804833.1894  114585152.401 7  89287172.02045
      1499.535        1168.468
  22034234.104    22034233.4434   22034231.4524  115790670.775 7  90226506.36345
     -1002.987        -781.555
  24392999.097    24392999.5674   24393002.8084  128186044.929 6  99885237.14042
     -3573.288       -2784.430
  23524179.928    23524179.9744   23524181.1774  123620375.220 6  96327582.37043
     -1644.995       -1281.805
  22516104.657    22516104.4694   22516105.2784  118322912.456 6  92199682.91943
     -2317.306       -1805.685
 06  5  5 13 41  0.0000000  0 10G 2G 4G 5G 6G10G13G23G24G25G30
  20440675.587    20440675.5894   20440674.6864  107416467.993 8  83701156.73747
       -93.632         -72.952
  21731433.471    21731433.6094   21731434.9604  114199439.145 8  88986590.03445
     -2564.827       -1998.564
  24492300.455    24492298.9824   24492302.8454  128707882.984 5 100291865.72741
     -3606.209       -2810.038
  22624613.189    22624612.9024   22624615.2034  118893143.011 6  92644034.82043
      2626.234        2046.403
  23621866.314    23621866.7614   23621868.9364  124133714.848 6  96727620.60442
      3919.870        3054.487
  21796331.511    21796331.7884   21796331.5874  114540478.057 8  89252360.93645
      1478.060        1151.716
  22040019.036    22040018.8224   22040017.1024  115821073.867 7  90250197.06145
     -1024.506        -798.333
  24413409.124    24413409.2174   24413413.3134  128293306.813 5  99968817.78341
     -3578.143       -2788.165
  23533616.402    23533616.5814   23533618.7824  123669967.537 6  96366225.73643
     -1661.617       -1294.763
  22529381.090    22529381.3764   22529382.1414  118392684.095 6  92254050.40343
     -2334.723       -1819.266
 06  5  5 13 41 30.0000000  0 10G 2G 4G 5G 6G10G13G23G24G25G30
  20441267.146    20441267.0334   20441266.1144  107419575.778 8  83703578.38947
      -113.952         -88.790
  21746109.981    21746110.0764   21746111.5454  114276565.340 7  89046688.39545
     -2577.612       -2008.528
  24512899.252    24512898.5214   24512902.5144  128816134.822 5 100376217.71041
     -3611.321       -2814.021
  22609654.324    22609654.1784   22609655.8604  118814532.944 6  92582780.23143
      2613.869        2036.791
  23599503.980    23599503.6024   23599506.1464  124016194.999 6  96636046.67042
      3913.862        3049.716
  21787948.217    21787948.8884   21787948.9604  114496425.941 7  89218034.62144
      1457.995        1136.112
  22045923.398    22045922.9444   22045921.1354  115852100.415 7  90274373.61445
     -1044.651        -814.014
  24433843.778    24433843.9954   24433848.1694  128400686.236 5 100052489.88141
     -3581.340       -2790.665
  23543144.835    23543145.2174   23543146.9744  123720040.106 6  96405243.33343
     -1677.120       -1306.844
  22542754.463    22542754.1334   22542755.2434  118462959.899 6  92308810.85343
     -2350.823       -1831.785
 06  5  5 13 42  0.0000000  0 10G 2G 4G 5G 6G10G13G23G24G25G30
  20741769.297    20741769.0904   20741767.9824  108998725.146 8  84934084.44947
      -134.977        -105.196
  22060652.995    22060653.5014   22060654.6724  115929501.845 7  90334690.89045
     -2590.888       -2018.866
  24833322.527    24833322.6144   24833324.3604  130499966.422 5 101688294.22941
     -3616.946       -2818.415
  22894560.390    22894560.5864   22894562.5124  120311726.415 6  93749424.52143
      2601.005        2026.744
  23876970.344    23876969.1434   23876972.6034  125474292.246 5  97772226.28742
      3907.173        3044.574
  22079475.230    22079475.1624   22079475.6894  116028408.825 8  90411787.50744
      1437.282        1119.945
  22351736.154    22351735.6924   22351733.9394  117459158.066 7  91526626.40245
     -1065.145        -829.975
  24754089.729    24754089.6334   24754093.1554  130083587.198 6 101363841.25642
     -3585.210       -2793.638
  23852556.347    23852555.0074   23852556.3824  125345999.184 6  97672224.44843
     -1692.772       -1319.029
  22856013.036    22856012.6384   22856013.7224  120109144.366 7  93591552.00943
     -2367.346       -1844.670
 06  5  5 13 42 30.0000000  0 10G 2G 4G 5G 6G10G13G23G24G25G30
  20742600.255    20742600.2334   20742599.2404  109003092.309 8  84937487.37946
      -156.709        -122.119
  22075482.214    22075482.4554   22075483.3634  116007428.188 7  90395412.75245
     -2604.718       -2029.647
  24853987.338    24853984.8944   24853987.2784  130608558.403 5 101772911.38641
     -3622.763       -2822.959
  22879749.989    22879750.1664   22879752.0204  120233896.572 6  93688777.92943
      2587.284        2016.078
  23854684.149    23854683.6584   23854686.6594  125357177.865 5  97680968.37342
      3900.014        3038.983
  22071329.484    22071329.5794   22071329.7014  115985601.692 7  90378431.35045
      1415.941        1103.331
  22357875.706    22357875.6724   22357874.0584  117491423.506 7  91551768.30345
     -1086.386        -846.538
  24774564.732    24774566.3224   24774569.6064  130191191.153 5 101447688.41542
     -3589.072       -2796.650
  23862265.235    23862264.3424   23862266.1464  125397022.806 6  97711983.09443
     -1709.156       -1331.859
  22869575.249    22869575.5734   22869575.9544  120180416.284 7  93647088.55743
     -2384.428       -1858.002
 06  5  5 13 43  0.0000000  0 10G 2G 4G 5G 6G10G13G23G24G25G30
  20743550.478    20743550.3164   20743549.5764  109008085.114 8  84941377.71946
      -177.505        -138.313
  22090385.777    22090386.1984   22090387.3954  116085747.829 7  90456441.04545
     -2617.749       -2039.793
  24874681.875    24874680.4594   24874683.4024  130717312.547 5 101857654.84141
     -3628.190       -2827.115
  22865012.930    22865013.1594   22865015.8774  120156456.496 6  93628435.02344
      2574.237        2005.904
  23832437.395    23832436.0884   23832438.3564  125240266.526 5  97589868.65042
      3893.174        3033.605
  22063301.315    22063301.6724   22063301.9674  115943415.664 8  90345559.13945
      1395.254        1087.215
  22364132.471    22364132.4224   22364130.7524  117524302.998 7  91577388.65144
     -1106.834        -862.462
  24795062.261    24795060.4854   24795065.8014  130298901.220 5 101531618.24041
     -3592.602       -2799.434
  23872063.423    23872062.8394   23872064.8314  125448515.725 6  97752107.44243
     -1724.833       -1344.015
  22883231.303    22883231.3454   22883231.7164  120252178.618 7  93703007.21843
     -2400.764       -1870.721
 06  5  5 13 43 30.0000000  0 10G 2G 4G 5G 6G10G13G23G24G25G30
  20744618.806    20744618.7144   20744617.8514  109013699.443 8  84945752.56446
      -197.607        -153.973
  22105363.219    22105363.5604   22105364.5004  116164454.121 7  90517770.62645
     -2630.117       -2049.439
  24895406.016    24895406.8094   24895409.2154  130826221.274 5 101942518.73241
     -3632.894       -2830.865
  22850350.944    22850350.9714   22850352.7014  120079403.670 6  93568393.91744
      2561.841        1996.232
  23810227.600    23810226.7034   23810228.2404  125123556.196 6  97498925.65042
      3886.831        3028.684
  22055391.444    22055391.4984   22055391.9284  115901847.352 7  90313168.14945
      1375.085        1071.495
  22370505.444    22370505.0184   22370503.0514  117557790.440 7  91603482.75745
     -1126.553        -877.834
  24815578.062    24815577.7684   24815581.4444  130406710.984 5 101615625.67242
     -3595.466       -2801.610
  23881950.506    23881949.9054   23881951.4094  125500471.486 6  97792592.43743
     -1739.677       -1355.579
  22896978.786    22896979.8134   22896980.3744  120324424.429 6  93759302.65143
     -2416.307       -1882.840
 06  5  5 13 44  0.0000000  0  9G 2G 4G 6G10G13G23G24G25G30
  20745808.275    20745808.2104   20745807.2834  109019949.769 9  84950622.88247
      -219.653        -171.150
  22120416.766    22120416.7444   22120418.3884  116243560.369 7  90579411.89145
     -2644.242       -2060.453
  22835764.992    22835764.8844   22835767.1634  120002755.665 6  93508668.17844
      2547.451        1985.000
  23788059.564    23788059.4614   23788061.5964  125007064.558 5  97408152.94342
      3878.786        3022.435
  22047602.200    22047602.3554   22047602.9344  115860914.531 7  90281272.44345
      1353.293        1054.524
  22376996.193    22376995.6504   22376993.7844  117591899.943 7  91630061.58544
     -1147.917        -894.484
  24836115.621    24836115.6284   24836117.8774  130514633.719 6 101699721.22042
     -3599.831       -2805.070
  23891927.035    23891927.8044   23891929.4934  125552903.776 6  97833448.75643
     -1756.281       -1368.527
  22910821.238    22910821.2414   22910822.2014  120397166.545 7  93815984.82543
     -2433.702       -1896.401
 06  5  5 13 44 30.0000000  0  9G 2G 4G 6G10G13G23G24G25G30
  20747118.802    20747118.6344   20747117.7054  109026835.648 8  84955988.38147
      -240.117        -187.111
  22135545.388    22135545.7644   22135547.0434  116323063.792 7  90641362.57345
     -2656.665       -2070.127
  22821256.734    22821256.8594   22821258.9724  119926514.203 6  93449259.25844
      2534.583        1974.969
  23765934.515    23765933.2054   23765936.4624  124890794.035 5  97317552.61342
      3872.329        3017.408
  22039933.691    22039933.9214   22039934.3684  115820617.428 7  90249872.10845
      1332.614        1038.411
  22383605.311    22383604.5134   22383602.9814  117626629.627 7  91657123.62044
     -1168.105        -910.202
  24856672.263    24856672.2154   24856678.8664  130622666.856 5 101783902.73142
     -3602.582       -2807.166
  23901995.849    23901995.8464   23901996.9654  125605810.308 6  97874674.61243
     -1771.599       -1380.481
  22924756.997    22924757.3964   22924758.4824  120470401.530 6  93873051.05143
     -2449.282       -1908.526
 06  5  5 13 45  0.0000000  0  9G 2G 4G 6G10G13G23G24G25G30
  20748549.921    20748549.6874   20748548.9044  109034354.689 8  84961847.06146
      -260.768        -203.194
  22150749.236    22150749.7014   22150751.0634  116402960.355 7  90703619.64345
     -2669.366       -2080.021
  22806825.477    22806825.7534   22806828.2634  119850679.350 6  93390167.15644
      2521.396        1964.722
  23743851.531    23743850.6284   23743852.3264  124774744.935 6  97227124.74742
      3864.932        3011.611
  22032386.311    22032386.5834   22032386.9184  115780955.400 7  90218966.60245
      1311.799        1022.184
  22390330.491    22390330.8214   22390328.9904  117661976.170 7  91684666.36944
     -1188.164        -925.853
  24877252.203    24877249.6994   24877254.9924  130730806.743 5 101868167.47241
     -3606.113       -2810.051
  23912152.852    23912153.2224   23912154.9734  125659187.077 6  97916266.87443
     -1786.642       -1392.197
  22938786.177    22938786.5164   22938787.7974  120544125.399 6  93930498.20343
     -2465.191       -1920.927
 06  5  5 13 45 30.0000000  0  9G 2G 4G 6G10G13G23G24G25G30
  20750098.416    20750098.2694   20750097.3694  109042492.911 8  84968188.62846
      -281.910        -219.681
  22166024.848    22166024.9984   22166026.4414  116483233.314 7  90766169.96645
     -2682.292       -2090.085
  22792469.701    22792469.9114   22792472.3634  119775238.657 6  93331382.23744
      2507.792        1954.122
  23721806.670    23721806.9984   23721809.6124  124658905.471 6  97136860.27042
      3857.672        3005.987
  22024957.384    22024957.6254   22024957.5264  115741915.295 8  90188545.72645
      1290.676        1005.741
  22397171.897    22397171.2864   22397169.7414  117697923.673 7  91712677.38544
     -1208.567        -941.750
  24897847.803    24897846.9144   24897851.5014  130839036.696 5 101952502.41241
     -3609.180       -2812.376
  23922396.086    23922396.3574   23922398.5534  125713017.754 6  97958212.85643
     -1802.103       -1404.264
  22952904.693    22952905.6504   22952907.2724  120618320.207 6  93988312.28143
     -2481.205       -1933.401
 06  5  5 13 46  0.0000000  0  9G 2G 4G 6G10G13G23G24G25G30
  20751768.986    20751768.5954   20751767.7634  109051271.074 8  84975028.87246
      -303.413        -236.423
  22181375.734    22181375.5934   22181377.0614  116563902.090 7  90829028.69045
     -2695.704       -2100.541
  22778193.621    22778193.3984   22778195.7634  119700215.719 6  93272922.78644
      2493.656        1943.094
  23699807.665    23699807.2264   23699809.6634  124543299.467 5  97046777.70642
      3849.550        2999.613
  22017650.910    22017651.2324   22017651.7704  115703520.283 7  90158627.55345
      1268.843         988.716
  22404130.357    22404129.7974   22404128.9054  117734492.196 7  91741172.28444
     -1229.499        -958.048
  24918463.712    24918463.2044   24918467.0504  130947376.344 6 102036922.78142
     -3613.277       -2815.528
  23932730.056    23932729.9084   23932732.5234  125767321.991 6  98000527.81043
     -1818.170       -1416.726
  22967117.033    22967117.6444   22967119.3574  120693005.330 6  94046508.39643
     -2497.713       -1946.229
 06  5  5 13 46 30.0000000  0  9G 2G 4G 6G10G13G23G24G25G30
  20753559.023    20753558.8024   20753557.9614  109060678.443 8  84982359.33746
      -324.311        -252.697
  22196799.632    22196799.6504   22196800.7874  116644954.214 7  90892186.16145
     -2708.346       -2110.401
  22763995.417    22763995.1994   22763997.2324  119625602.708 6  93214782.78444
      2480.022        1932.501
  23677852.188    23677851.7754   23677854.6414  124427919.635 5  96956871.41242
      3842.115        2993.853
  22010465.547    22010465.8264   22010466.6774  115665761.200 8  90129204.89045
      1247.683         972.232
  22411204.711    22411204.5934   22411203.3594  117771670.267 7  91770142.20744
     -1249.708        -973.807
  24939098.346    24939098.8644   24939103.1874  131055813.589 5 102121419.03741
     -3616.469       -2817.986
  23943151.423    23943151.7904   23943153.8084  125822087.613 6  98043202.31243
     -1833.406       -1428.627
  22981419.377    22981421.2634   22981422.6194  120768167.863 6  94105076.56143
     -2513.494       -1958.563
 06  5  5 13 47  0.0000000  0  9G 2G 4G 6G10G13G23G24G25G30
  20755468.011    20755467.9354   20755467.0864  109070710.834 8  84990176.83247
      -345.037        -268.894
  22212295.628    22212295.3214   22212296.4404  116726384.048 7  90955637.96445
     -2720.681       -2120.005
  22749873.998    22749874.4454   22749876.5894  119551397.600 6  93156960.67544
      2466.560        1922.004
  23655938.888    23655938.5474   23655940.7324  124312764.079 6  96867139.80642
      3834.687        2988.095
  22003401.060    22003401.2454   22003401.7134  115628635.662 7  90100275.90345
      1226.861         955.987
  22418394.637    22418394.4844   22418393.3424  117809452.546 7  91799582.91644
     -1269.521        -989.242
  24959751.082    24959751.3774   24959754.3254  131164342.923 5 102205987.07541
     -3619.269       -2820.245
  23953659.696    23953660.0924   23953662.1904  125877308.970 6  98086231.92443
     -1848.401       -1440.355
  22995812.521    22995813.4674   22995814.3874  120843801.136 6  94164011.53243
     -2529.024       -1970.684
 06  5  5 13 47 30.0000000  0  9G 2G 4G 6G10G13G23G24G25G30
  20757497.674    20757497.4224   20757496.4524  109081376.094 8  84998487.40246
      -366.379        -285.478
  22227863.553    22227863.7284   22227865.2694  116808197.201 7  91019388.39145
     -2733.841       -2130.250
  22735832.833    22735833.4374   22735835.0924  119477610.911 6  93099464.57544
      2452.172        1910.799
  23634070.023    23634069.9974   23634071.3644  124197843.937 6  96777591.65442
      3826.377        2981.615
  21996458.493    21996458.6084   21996459.4024  115592153.104 8  90071847.93845
      1205.008         938.978
  22425700.521    22425700.6754   22425699.0354  117847845.470 7  91829499.46044
     -1290.290       -1005.407
  24980422.545    24980422.7174   24980427.8424  131272971.710 5 102290633.15641
     -3623.023       -2823.226
  23964256.940    23964256.3084   23964258.2594  125932992.442 6  98129621.59843
     -1864.125       -1452.562
  23010295.769    23010296.5774   23010298.0374  120919910.853 6  94223317.78343
     -2545.250       -1983.290
 06  5  5 13 48  0.0000000  0  9G 2G 4G 6G10G13G23G24G25G30
  20759648.194    20759648.0014   20759647.0354  109092677.725 8  85007293.97446
      -387.601        -302.053
  22243505.383    22243505.3394   22243507.2544  116890395.394 7  91083438.96945
     -2746.636       -2140.234
  22721872.856    22721872.8694   22721874.8004  119404247.879 7  93042298.59844
      2438.003        1899.728
  23612247.216    23612246.2384   23612249.0324  124083164.972 5  96688231.43642
      3818.186        2975.229
  21989639.420    21989639.3464   21989640.4114  115556318.174 7  90043924.64345
      1183.424         922.138
  22433123.071    22433122.8924   22433121.8094  117886850.997 7  91859893.33044
     -1310.638       -1021.282
  25001112.676    25001113.8714   25001118.0284  131381699.730 5 102375356.46741
     -3626.175       -2825.627
  23974939.735    23974940.4154   23974942.1134  125989139.246 6  98173372.33743
     -1879.598       -1464.603
  23024870.118    23024870.5454   23024872.1694  120996497.409 6  94282995.57943
     -2561.050       -1995.606
 06  5  5 13 48 30.0000000  0  9G 2G 4G 6G10G13G23G24G25G30
  20761918.385    20761918.3404   20761917.5144  109104609.695 8  85016591.75046
      -408.260        -318.126
  22259219.082    22259219.0294   22259220.7134  116972970.637 7  91147783.25944
     -2758.891       -2149.789
  22707992.535    22707992.3304   22707994.1744  119331305.408 7  92985460.32644
      2424.332        1889.061
  23590470.377    23590469.6904   23590471.3764  123968724.503 6  96599057.12142
      3810.456        2969.152
  21982942.437    21982942.7194   21982943.3244  115521126.600 8  90016502.61345
      1162.196         905.618
  22440661.198    22440661.0694   22440659.2794  117926462.077 7  91890759.05644
     -1330.581       -1036.818
  25021821.606    25021819.7254   25021824.0794  131490520.178 5 102460151.65741
     -3629.226       -2828.044
  23985711.400    23985712.5654   23985713.9514  126045742.298 6  98217478.57843
     -1894.569       -1476.300
  23039533.515    23039534.0444   23039534.9864  121073552.840 6  94343038.73743
     -2576.364       -2007.577
 06  5  5 13 49  0.0000000  0  9G 2G 4G 6G10G13G23G24G25G30
  20764307.467    20764307.3504   20764306.2924  109117163.238 8  85026373.77147
      -428.936        -334.244
  22275002.705    22275002.6414   22275004.1464  117055913.061 7  91212413.69344
     -2770.973       -2159.215
  22694190.866    22694191.0294   22694193.0654  119258777.474 7  92928945.07144
      2410.423        1878.250
  23568737.072    23568736.5234   23568739.1814  123854516.892 6  96510064.12842
      3802.821        2963.274
  21976366.885    21976367.2404   21976368.0494  115486571.736 7  89989576.74145
      1141.089         889.153
  22448312.355    22448312.3604   22448310.8274  117966669.740 7  91922089.64544
     -1350.349       -1052.215
  25042545.563    25042543.4954   25042547.6964  131599423.141 5 102545010.97241
     -3631.686       -2829.932
  23996567.932    23996568.2184   23996569.6904  126102791.693 6  98261932.64343
     -1909.378       -1487.835
  23054284.778    23054284.8744   23054286.0134  121151066.636 6  94403439.06443
     -2591.662       -2019.489
 06  5  5 13 49 30.0000000  0  9G 2G 4G 6G10G13G23G24G25G30
  20766815.480    20766815.4194   20766814.3564  109130343.967 8  85036644.50647
      -449.900        -350.561
  22290856.536    22290856.4264   22290857.8824  117139225.817 7  91277332.69944
     -2783.421       -2168.903
  22680469.614    22680469.5654   22680471.2114  119186671.721 7  92872758.76544
      2396.350        1867.286
  23547050.125    23547049.4134   23547052.8514  123740550.564 6  96421259.18542
      3794.646        2956.881
  21969913.857    21969913.9184   21969914.6894  115452660.256 7  89963152.17545
      1119.433         872.277
  22456078.101    22456077.8384   22456076.2844  118007477.390 7  91953887.77744
     -1370.448       -1067.888
  25063284.630    25063284.3994   25063288.5064  131708412.457 5 102629937.52341
     -3634.589       -2832.095
  24007509.835    24007509.9694   24007512.6084  126160290.826 6  98306737.14443
     -1924.210       -1499.362
  23069122.482    23069122.2814   23069123.7784  121229041.534 6  94464198.64743
     -2606.783       -2031.242
 06  5  5 13 50  0.0000000  0  8G 2G 4G 6G10G13G23G25G30
  20769442.635    20769442.6634   20769441.6754  109144150.314 8  85047402.75446
      -471.138        -367.111
  22306780.327    22306780.4564   22306781.6214  117222905.994 7  91342538.04344
     -2795.890       -2178.604
  22666828.929    22666828.8894   22666830.5464  119114989.359 7  92816902.36244
      2382.059        1856.138
  23525409.654    23525408.8634   23525411.6704  123626826.977 6  96332643.27842
      3786.240        2950.327
  21963582.813    21963583.2884   21963584.2214  115419392.319 7  89937229.11245
      1097.771         855.420
  22463957.737    22463957.1694   22463955.4634  118048883.230 7  91986152.08944
     -1390.512       -1083.495
  24018536.477    24018536.5004   24018538.6444  126218237.012 6  98351889.97743
     -1939.251       -1511.085
  23084048.093    23084047.9744   23084049.2614  121307473.688 6  94525314.50143
     -2622.389       -2043.406
 06  5  5 13 50 30.0000000  0  8G 2G 4G 6G10G13G23G25G30
  20772190.072    20772189.7794   20772189.0194  109158587.062 8  85058652.14046
      -491.307        -382.839
  22322774.518    22322774.5614   22322775.8384  117306956.813 7  91408032.20344
     -2807.350       -2187.565
  22653270.496    22653270.3254   22653272.0334  119043737.923 6  92761381.76544
      2368.204        1845.330
  23503816.548    23503815.0654   23503818.5324  123513354.651 6  96244223.41042
      3778.705        2944.408
  21957376.294    21957376.5704   21957376.9614  115386774.563 7  89911812.68345
      1076.925         839.149
  22471951.161    22471950.9114   22471949.3104  118090890.524 7  92018884.99844
     -1409.715       -1098.493
  24029649.349    24029649.1464   24029650.8864  126276633.526 6  98397393.72443
     -1953.481       -1522.176
  23099060.438    23099060.6394   23099062.0764  121386366.275 6  94586789.22243
     -2636.963       -2054.777
 06  5  5 13 51  0.0000000  0  8G 2G 4G 6G10G13G23G25G30
  20775055.049    20775054.9244   20775054.0674  109173643.013 8  85070384.04446
      -512.312        -399.205
  22338836.726    22338837.0074   22338838.1894  117391365.182 7  91473804.89644
     -2819.740       -2197.208
  22639791.580    22639791.5774   22639793.9344  118972908.653 7  92706190.17144
      2353.826        1834.168
  23482269.007    23482268.8504   23482271.1164  123400124.576 5  96155992.26942
      3770.084        2937.705
  21951291.266    21951291.4864   21951291.9334  115354797.362 7  89886895.37045
      1055.025         822.098
  22480056.400    22480056.6554   22480055.1584  118133486.841 7  92052076.91844
     -1429.861       -1114.166
  24040844.757    24040845.1314   24040847.2874  126335467.810 6  98443238.61743
     -1968.522       -1533.909
  23114158.677    23114158.5424   23114159.6274  121465705.385 6  94648611.82143
     -2652.191       -2066.653
 06  5  5 13 51 30.0000000  0  8G 2G 4G 6G10G13G23G25G30
  20778041.045    20778040.7344   20778039.9154  109189333.924 8  85082610.77946
      -533.779        -415.930
  22354969.814    22354970.3264   22354971.2114  117476144.716 7  91539866.82944
     -2832.253       -2206.952
  22626397.045    22626396.9924   22626399.0714  118902519.449 7  92651341.48344
      2338.740        1822.387
  23460772.234    23460770.3924   23460772.8834  123287155.112 6  96067964.12142
      3761.392        2930.952
  21945331.224    21945331.7434   21945332.0114  115323477.778 8  89862490.48445
      1032.871         804.833
  22488277.365    22488277.2484   22488275.5714  118176686.685 7  92085739.12044
     -1450.233       -1130.041
  24052127.177    24052126.5294   24052128.4994  126394753.526 6  98489435.27043
     -1983.941       -1545.911
  23129343.985    23129343.8434   23129344.6874  121545504.183 6  94710792.65043
     -2667.663       -2078.682
 06  5  5 13 52  0.0000000  0  8G 2G 4G 6G10G13G23G25G30
  20781147.028    20781146.8344   20781145.9844  109205657.327 8  85095330.39146
      -554.958        -432.438
  22371172.788    22371173.0004   22371173.9574  117561291.713 7  91606215.11944
     -2844.487       -2216.500
  22613086.997    22613086.3594   22613087.8964  118832570.822 7  92596836.09544
      2324.021        1810.918
  23439324.370    23439323.6544   23439327.0194  123174447.752 6  95980140.30342
      3752.332        2923.894
  21939496.156    21939496.5954   21939496.9004  115292814.962 8  89838597.37545
      1010.970         787.765
  22496612.767    22496611.8264   22496610.8514  118220486.392 7  92119868.67344
     -1470.108       -1145.538
  24063493.349    24063494.1424   24063494.9524  126454487.007 6  98535980.81143
     -1998.676       -1557.371
  23144615.479    23144614.9684   23144615.9674  121625758.207 6  94773328.19143
     -2682.908       -2090.602
 06  5  5 13 52 30.0000000  0  8G 2G 4G 6G10G13G23G25G30
  20784374.127    20784373.9744   20784373.0034  109222615.373 8  85108544.45646
      -576.205        -448.996
  22387445.602    22387445.6634   22387447.4724  117646806.904 7  91672850.31144
     -2857.030       -2226.263
  22599859.952    22599860.5444   22599862.2244  118763067.155 7  92542677.38844
      2309.035        1799.253
  23417926.507    23417927.0224   23417929.2514  123062007.529 6  95892524.57242
      3743.189        2916.773
  21933787.182    21933787.3384   21933787.9574  115262812.942 8  89815219.16645
       988.722         770.430
  22505061.593    22505061.2224   22505059.7564  118264887.556 7  92154466.93244
     -1490.369       -1161.334
  24074945.142    24074945.8644   24074948.2514  126514669.174 6  98582875.98243
     -2013.987       -1569.354
  23159972.879    23159974.0714   23159975.2924  121706467.688 6  94836218.74743
     -2698.217       -2102.529
 06  5  5 13 53  0.0000000  0  8G 2G 4G 6G10G13G23G25G30
  20787717.018    20787716.9064   20787716.0194  109240182.646 8  85122233.24446
      -596.447        -464.767
  22403783.371    22403783.5564   22403785.5084  117732663.011 7  91739751.12444
     -2868.254       -2235.000
  22586714.080    22586714.5634   22586716.0814  118693985.894 6  92488847.82944
      2294.973        1788.292
  23396577.022    23396576.5484   23396578.8494  122949812.090 6  95805099.55642
      3735.116        2910.489
  21928198.921    21928199.3014   21928199.9414  115233447.658 7  89792337.10245
       967.499         753.896
  22513619.978    22513619.8414   22513618.0794  118309863.297 7  92189512.92844
     -1509.495       -1176.235
  24086478.444    24086479.0774   24086480.6674  126575273.056 6  98630099.76043
     -2027.848       -1580.135
  23175413.259    23175412.8994   23175414.6174  121787604.742 6  94899442.41843
     -2712.348       -2113.545
 06  5  5 13 53 30.0000000  0  8G 2G 4G 6G10G13G23G25G30
  20791179.496    20791179.3064   20791178.5084  109258377.620 8  85136411.13546
      -617.591        -481.245
  22420189.394    22420189.8674   22420191.5144  117818877.005 7  91806930.77344
     -2880.285       -2244.385
  22573653.154    22573652.6714   22573654.8734  118625348.131 7  92435363.82644
      2279.944        1776.580
  23375278.563    23375277.4704   23375279.5594  122837883.354 6  95717882.34342
      3726.122        2903.463
  21922736.070    21922736.3584   21922736.8574  115204738.937 7  89769966.67645
       945.449         736.706
  22522291.473    22522291.0804   22522289.9094  118355431.187 7  92225020.36644
     -1529.329       -1191.692
  24098094.571    24098094.8154   24098096.7964  126636315.693 6  98677665.43043
     -2042.460       -1591.520
  23190937.965    23190937.8974   23190938.9824  121869185.467 6  94963011.74743
     -2727.227       -2125.131
 06  5  5 13 54  0.0000000  0  8G 2G 4G 6G10G13G23G25G30
  20794762.097    20794761.9634   20794761.0584  109277204.753 8  85151081.67246
      -638.331        -497.407
  22436664.540    22436664.3674   22436666.0614  117905451.782 7  91874391.57644
     -2892.100       -2253.583
  22560677.324    22560677.7424   22560679.7294  118557160.977 7  92382230.97044
      2265.293        1765.173
  23354030.635    23354030.5784   23354032.2324  122726229.019 6  95630879.10942
      3716.940        2896.328
  21917399.003    21917399.4424   21917399.7314  115176693.504 7  89748113.11745
       923.497         719.606
  22531075.895    22531075.6594   22531074.4924  118401594.315 7  92260991.59944
     -1548.929       -1206.950
  24109794.835    24109795.3994   24109796.5514  126697799.884 6  98725575.14842
     -2057.025       -1602.865
  23206548.089    23206546.9634   23206548.3084  121951212.502 6  95026928.81343
     -2741.891       -2136.536
 06  5  5 13 54 30.0000000  0  8G 2G 4G 6G10G13G23G25G30
  20798462.314    20798462.1274   20798461.2074  109296649.605 8  85166233.55646
      -658.539        -513.152
  22453205.006    22453205.0434   22453206.4284  117992371.066 7  91942120.82844
     -2903.052       -2262.111
  22547785.058    22547785.0974   22547787.1454  118489412.172 7  92329439.71944
      2250.904        1753.938
  23332833.733    23332833.0674   23332834.5574  122614837.290 6  95544080.40942
      3708.635        2889.816
  21912186.156    21912185.9994   21912186.6974  115149297.990 8  89726765.96245
       902.340         703.136
  22539971.105    22539970.9484   22539969.4144  118448336.931 7  92297414.38144
     -1567.704       -1221.578
  24121576.574    24121575.5754   24121578.0544  126759709.714 6  98773816.55342
     -2070.654       -1613.510
  23222238.379    23222238.4124   23222239.8134  122033668.843 6  95091180.42643
     -2755.766       -2147.317
 06  5  5 13 55  0.0000000  0  8G 2G 4G 6G10G13G23G25G30
  20802282.274    20802282.3034   20802281.4334  109316725.089 8  85181876.80446
      -679.866        -529.772
  22469812.969    22469812.8004   22469814.5854  118079646.578 7  92010127.72844
     -2915.173       -2271.565
  22534979.783    22534979.6534   22534981.1664  118422117.763 7  92277002.52744
      2235.248        1741.751
  23311689.686    23311688.7834   23311691.2244  122503724.513 6  95457499.07142
      3698.896        2882.249
  21907099.075    21907099.6444   21907100.2934  115122567.098 7  89705936.66745
       879.800         685.549
  22548978.322    22548978.2704   22548977.1734  118495671.182 7  92334298.15544
     -1587.847       -1237.290
  24133440.525    24133440.1484   24133442.3464  126822056.930 6  98822398.74043
     -2085.789       -1625.306
  23238013.246    23238012.9314   23238013.8414  122116565.741 6  95155775.38743
     -2770.695       -2158.998
 06  5  5 13 55 30.0000000  0  8G 2G 4G 6G10G13G23G25G30
  20806221.804    20806221.8064   20806220.9514  109337427.239 8  85198008.34646
      -700.809        -546.084
  22486487.500    22486487.7254   22486489.0944  118167272.658 7  92078407.73944
     -2927.025       -2280.795
  22522260.316    22522260.1514   22522261.6934  118355276.229 7  92224918.19344
      2220.315        1730.115
  23290598.511    23290598.3934   23290599.0064  122392889.785 6  95371134.40442
      3689.649        2875.037
  21902138.750    21902138.5704   21902139.5124  115096498.211 8  89685623.22845
       857.572         668.246
  22558097.413    22558097.4494   22558095.7074  118543591.673 7  92371638.79344
     -1607.402       -1252.514
  24145386.403    24145387.2434   24145389.0704  126884836.004 6  98871317.50043
     -2100.033       -1636.378
  23253869.741    23253870.1834   23253872.4884  122199896.705 6  95220708.59443
     -2785.110       -2170.189
 06  5  5 13 56  0.0000000  0  8G 2G 4G 6G10G13G23G25G30
  20810279.573    20810279.4814   20810278.5664  109358750.158 8  85214623.57246
      -720.820        -561.687
  22503227.194    22503227.6654   22503229.0134  118255241.958 7  92146955.21544
     -2937.737       -2289.148
  22509625.790    22509626.1174   22509627.6504  118288884.612 7  92173184.47144
      2205.737        1718.749
  23269559.646    23269558.8944   23269561.3804  122282330.782 6  95284984.59042
      3680.924        2868.287
  21897302.968    21897303.1094   21897303.9154  115071086.863 7  89665822.15845
       836.373         651.715
  22567327.072    22567326.2784   22567324.8064  118592091.683 7  92409430.99344
     -1626.003       -1267.009
  24157413.796    24157414.2604   24157416.0254  126948039.874 6  98920567.26342
     -2113.646       -1646.961
  23269808.497    23269808.5974   23269810.8584  122283653.757 6  95285973.78243
     -2798.725       -2180.844
 06  5  5 13 56 30.0000000  0  8G 2G 4G 6G10G13G23G25G30
  20814455.340    20814455.3504   20814454.2634  109380693.857 8  85231722.54046
      -742.204        -578.348
  22520032.463    22520032.5204   22520034.1594  118343553.176 7  92215769.11544
     -2949.692       -2298.449
  22497078.492    22497078.3874   22497080.2824  118222945.489 7  92121803.35444
      2190.007        1706.473
  23248574.074    23248573.8344   23248576.2854  122172050.718 6  95199052.06442
      3671.104        2860.626
  21892592.643    21892592.7974   21892593.5414  115046335.062 8  89646535.03245
       813.581         633.956
  22576666.062    22576665.9984   22576664.7004  118641170.154 7  92447673.92544
     -1646.077       -1282.651
  24169522.135    24169521.5714   24169524.0244  127011666.936 6  98970146.73642
     -2128.317       -1658.490
  23285827.513    23285827.8334   23285829.1774  122367834.877 6  95351569.39743
     -2813.332       -2192.174
 06  5  5 13 57  0.0000000  0  8G 2G 4G 6G10G13G23G25G30
  20818749.811    20818749.6224   20818748.7344  109403260.562 8  85249306.91946
      -762.799        -594.402
  22536902.740    22536903.0934   22536904.0774  118432206.976 7  92284849.97444
     -2960.875       -2307.184
  22484618.033    22484617.5844   22484619.9634  118157463.789 7  92070778.64644
      2174.886        1694.719
  23227642.996    23227641.5474   23227644.5654  122062055.135 6  95113341.27943
      3661.534        2853.135
  21888008.716    21888009.1004   21888009.7684  115022246.342 7  89627764.58345
       791.775         616.963
  22586115.466    22586115.3744   22586114.0924  118690828.169 7  92486368.47344
     -1665.028       -1297.438
  24181710.183    24181710.0494   24181711.0654  127075718.199 6  99020056.78142
     -2142.271       -1669.310
  23301927.247    23301927.9514   23301929.2704  122452440.499 6  95417495.88543
     -2827.547       -2203.301
 06  5  5 13 57 30.0000000  0  8G 2G 4G 6G10G13G23G25G30
  20823161.745    20823161.6884   20823160.7344  109426445.892 8  85267373.34246
      -783.011        -610.124
  22553837.375    22553837.6184   22553838.5874  118521197.226 7  92354192.97044
     -2971.872       -2315.749
  22472243.983    22472243.4964   22472245.4944  118092437.583 7  92020108.87544
      2159.997        1683.086
  23206764.477    23206764.2004   23206767.2264  121952342.800 6  95027851.20243
      3652.353        2845.941
  21883550.684    21883550.6884   21883551.3264  114998817.791 7  89609508.53345
       770.044         600.047
  22595674.594    22595674.4974   22595672.9834  118741059.927 7  92525510.11344
     -1683.786       -1312.034
  24193978.430    24193978.0224   24193980.2904  127140187.778 6  99070292.78442
     -2155.817       -1679.856
  23318106.786    23318107.6464   23318108.7114  122537463.534 6  95483747.55043
     -2841.015       -2213.801
 06  5  5 13 58  0.0000000  0  8G 2G 4G 6G10G13G23G25G30
  20827693.359    20827693.4354   20827692.5244  109450260.771 8  85285930.39547
      -804.348        -626.752
  22570837.713    22570837.9604   22570838.6774  118610533.375 7  92423805.49844
     -2983.794       -2325.047
  22459959.131    22459959.1064   22459960.5194  118027880.678 7  91969804.79544
      2143.924        1670.595
  23185944.143    23185943.5044   23185944.6524  121842927.985 6  94942592.93543
      3641.911        2837.860
  21879220.248    21879220.4124   21879221.2304  114976061.882 8  89591776.64145
       747.212         582.247
  22605344.856    22605344.0174   22605343.1274  118791875.393 7  92565106.58444
     -1703.657       -1327.518
  24206327.629    24206328.0744   24206330.0524  127205085.113 6  99120862.11142
     -2170.540       -1691.284
  23334368.024    23334368.1304   23334369.3514  122622912.827 6  95550331.30243
     -2855.607       -2225.115
 06  5  5 13 58 30.0000000  0  8G 2G 4G 6G10G13G23G25G30
  20832345.452    20832345.2624   20832344.3694  109474706.360 8  85304978.91646
      -825.349        -643.126
  22587902.979    22587903.7494   22587905.0534  118700215.417 7  92493687.55844
     -2995.117       -2333.852
  22447764.458    22447764.0174   22447766.0924  117963796.920 7  91919869.40144
      2128.340        1658.445
  23165180.391    23165179.3994   23165182.3234  121733815.195 6  94857569.96242
      3632.158        2830.240
  21875018.490    21875018.9964   21875019.1984  114953981.388 8  89574571.04645
       724.768         564.754
  22615125.201    22615124.8924   22615123.9294  118843274.717 7  92605158.01744
     -1722.957       -1342.571
  24218757.405    24218758.6104   24218760.5514  127270410.149 6  99171764.69742
     -2184.445       -1702.167
  23350708.999    23350709.0654   23350711.2954  122708787.849 6  95617246.84243
     -2869.499       -2235.998
 06  5  5 13 59  0.0000000  0  8G 2G 4G 6G10G13G23G25G30
  20837112.885    20837112.6234   20837111.5324  109499758.034 8  85324499.63646
      -845.622        -658.908
  22605030.039    22605030.1644   22605031.9824  118790217.279 7  92563818.93044
     -3005.935       -2342.296
  22435655.623    22435655.3294   22435657.0304  117900164.179 7  91870285.43744
      2113.037        1646.556
  23144470.693    23144470.3264   23144471.8364  121624983.247 6  94772765.90143
      3622.400        2822.669
  21870940.945    21870941.0664   21870941.6314  114932553.114 7  89557873.64545
       702.930         547.723
  22625012.067    22625012.3354   22625011.0534  118895231.965 7  92645644.21444
     -1741.632       -1357.108
  24231265.666    24231265.8424   24231268.2624  127336136.767 6  99222980.17542
     -2198.137       -1712.814
  23367126.678    23367127.0274   23367127.9014  122795061.291 6  95684472.77143
     -2883.129       -2246.585
 06  5  5 13 59 30.0000000  0  9G 2G 4G 6G10G13G16G23G25G30
  20841998.016    20841997.6724   20841996.7604  109525429.637 8  85344503.45446
      -867.057        -675.635
  22622220.089    22622220.1614   22622222.2154  118880551.411 7  92634209.17744
     -3017.693       -2351.449
  22423635.753    22423635.3934   22423637.3634  117836999.305 7  91821066.03144
      2096.641        1633.741
  23123816.389    23123815.7684   23123818.0734  121516449.219 6  94688193.89443
      3611.858        2814.425
  21866990.326    21866990.5944   21866990.9974  114911792.532 7  89541696.53545
       679.917         529.802
  24851321.634    24851322.4744   24851324.8034  130594556.208 5 101762037.00941
      3287.661        2561.802
  22635007.990    22635007.6574   22635006.7514  118947760.013 7  92686575.12744
     -1761.394       -1372.530
  24243851.106    24243851.7654   24243852.9844  127402277.674 6  99274518.50642
     -2212.537       -1724.043
  23383622.545    23383622.0664   23383623.9624  122881745.682 6  95752019.03643
     -2897.181       -2257.542
 06  5  5 14  0  0.0000000  0  9G 2G 4G 6G10G13G16G23G25G30
  20847002.628    20847002.2854   20847001.3604  109551728.712 8  85364996.27046
      -886.731        -690.951
  22639474.587    22639474.1174   22639476.4684  118971223.797 7  92704862.96444
     -3027.670       -2359.215
  22411706.255    22411706.6274   22411708.0824  117774312.487 7  91772219.13144
      2081.888        1622.268
  23103222.366    23103221.7074   23103223.9674  121408224.113 6  94603862.67643
      3602.751        2807.317
  21863168.550    21863168.8694   21863169.3154  114891708.363 8  89526046.48645
       658.511         513.146
  24832577.580    24832577.8454   24832579.4624  130496052.531 5 101685280.87141
      3278.643        2554.820
  22645114.109    22645113.7194   22645111.8874  119000865.093 7  92727955.66044
     -1779.512       -1386.628
  24256517.916    24256518.9174   24256520.6024  127468838.951 6  99326384.40242
     -2225.497       -1734.175
  23400196.240    23400196.9574   23400198.7694  122968846.337 6  95819889.79643
     -2909.887       -2267.424
 06  5  5 14  0 30.0000000  0  9G 2G 4G 6G10G13G16G23G25G30
  20852123.778    20852123.6574   20852122.6494  109578641.328 8  85385967.12946
      -907.548        -707.187
  22656790.396    22656790.6414   22656792.3394  119062219.792 7  92775768.96744
     -3038.877       -2367.967
  22399866.648    22399865.9864   22399868.1344  117712092.832 7  91723736.25244
      2066.031        1609.901
  23082685.427    23082684.8134   23082686.0724  121300297.876 6  94519764.27043
      3592.424        2799.261
  21859473.179    21859473.3934   21859473.8254  114872288.947 7  89510914.45145
       635.802         495.433
  24813888.541    24813889.9904   24813889.6444  130397837.439 5 101608749.59441
      3268.659        2546.971
  22655326.210    22655326.0104   22655325.3614  119054532.827 7  92769774.64044
     -1798.705       -1401.582
  24269262.365    24269261.4364   24269263.8194  127535805.710 6  99378566.28942
     -2239.198       -1744.832
  23416846.769    23416848.0374   23416849.3134  123056347.364 6  95888072.45343
     -2923.412       -2277.994
 06  5  5 14  1  0.0000000  0  9G 2G 4G 6G10G13G16G23G25G30
  20857364.154    20857364.0194   20857362.9174  109606179.060 8  85407425.04046
      -928.325        -723.379
  22674170.343    22674170.2014   22674171.3894  119153549.296 7  92846934.80644
     -3049.961       -2376.599
  22388118.171    22388118.1504   22388119.8244  117650354.951 7  91675628.82944
      2049.951        1597.360
  23062206.993    23062206.4744   23062208.0874  121192685.383 6  94435910.37343
      3581.884        2791.060
  21855906.793    21855907.1204   21855907.6004  114853547.241 8  89496310.52445
       613.364         477.953
  24795256.562    24795256.0474   24795258.6414  130299925.837 5 101532454.81041
      3258.410        2538.966
  22665647.652    22665647.5054   22665646.7514  119108773.273 7  92812039.83344
     -1817.645       -1416.343
  24282083.742    24282084.0484   24282086.6454  127603188.137 6  99431072.04642
     -2253.029       -1755.574
  23433575.596    23433576.6314   23433577.7944  123144258.271 6  95956574.51843
     -2937.048       -2288.633
 06  5  5 14  1 30.0000000  0  9G 2G 4G 6G10G13G16G23G25G30
  20862722.412    20862722.2794   20862721.3834  109634337.182 8  85429366.43346
      -948.845        -739.355
  22691611.897    22691611.8854   22691613.1164  119245205.719 7  92918355.36344
     -3060.577       -2384.844
  22376460.734    22376461.0014   22376462.7034  117589095.974 7  91627894.54444
      2034.064        1584.979
  23041788.768    23041787.8524   23041789.2324  121085384.643 6  94352299.39143
      3571.620        2783.096
  21852468.479    21852468.4774   21852469.4284  114835479.218 8  89482231.54045
       591.043         460.566
  24776683.086    24776683.1144   24776683.3834  130202316.478 5 101456395.59741
      3248.516        2531.326
  22676077.470    22676077.6874   22676076.0594  119163580.510 7  92854746.71444
     -1836.330       -1430.899
  24294984.353    24294984.8584   24294985.3734  127670979.815 6  99483896.71742
     -2266.582       -1766.215
  23450380.823    23450382.1784   23450383.5374  123232572.135 6  96025390.56443
     -2950.369       -2298.995
 06  5  5 14  2  0.0000000  0  9G 2G 4G 6G10G13G16G23G25G30
  20868198.045    20868198.0684   20868197.1134  109663112.718 8  85451788.91346
      -969.724        -755.607
  22709114.934    22709114.9944   22709116.6254  119337185.647 7  92990028.07144
     -3071.617       -2393.460
  22364894.996    22364895.0534   22364896.6564  117528316.408 7  91580533.86544
      2017.696        1572.236
  23021429.189    23021428.7764   23021430.5334  120978396.781 6  94268932.27543
      3560.807        2774.631
  21849158.375    21849158.5814   21849159.1774  114818083.846 7  89468676.69045
       568.354         442.896
  24758163.671    24758166.6014   24758167.5604  130105010.278 5 101380572.60341
      3238.069        2523.122
  22686613.836    22686614.0254   22686612.7294  119218950.634 7  92897892.26144
     -1855.328       -1445.711
  24307962.731    24307962.6664   24307964.1334  127739176.775 5  99537037.19942
     -2280.332       -1776.853
  23467263.419    23467263.4134   23467264.3424  123321283.879 6  96094516.65943
     -2964.070       -2309.694
 06  5  5 14  2 30.0000000  0  9G 2G 4G 6G10G13G16G23G25G30
  20873788.830    20873788.7024   20873787.8204  109692491.901 8  85474681.75946
      -989.502        -771.034
  22726676.371    22726676.8174   22726678.8664  119429473.278 7  93061940.43544
     -3081.603       -2401.225
  22353417.850    22353417.9964   22353419.7244  117468005.083 7  91533538.02544
      2002.305        1560.227
  23001127.938    23001127.2924   23001128.9844  120871711.427 6  94185800.89943
      3551.016        2767.093
  21845973.786    21845973.8264   21845974.4964  114801348.742 7  89455636.32845
       546.682         425.992
  24739705.023    24739704.7704   24739707.3584  130007997.222 6 101304978.02141
      3228.585        2515.754
  22697255.181    22697254.6144   22697253.8934  119274869.048 7  92941465.07944
     -1873.261       -1459.686
  24321012.736    24321013.2764   24321015.4504  127807763.876 6  99590481.67042
     -2292.996       -1786.744
  23484217.707    23484217.8354   23484220.0174  123410378.200 6  96163940.77542
     -2976.372       -2319.262
 06  5  5 14  3  0.0000000  0  9G 2G 4G 6G10G13G16G23G25G30
  20879496.435    20879496.2954   20879495.3804  109722485.563 8  85498053.45946
     -1009.998        -787.026
  22744298.119    22744299.0414   22744300.7794  119522078.865 7  93134100.65744
     -3091.972       -2409.337
  22342032.694    22342033.1804   22342034.5404  117408175.627 7  91486917.69144
      1986.317        1547.748
  22980886.752    22980885.9594   22980887.6544  120765342.396 6  94102915.80343
      3540.378        2758.749
  21842917.118    21842917.4254   21842918.0604  114785286.414 8  89443120.27145
       524.330         408.546
  24721302.066    24721303.2474   24721304.4624  129911291.508 5 101229622.93941
      3218.701        2508.093
  22708002.083    22708002.0124   22708000.4674  119331345.154 7  92985472.44044
     -1891.578       -1473.968
  24334141.820    24334141.2754   24334142.8644  127876750.678 6  99644237.59142
     -2305.984       -1796.849
  23501246.111    23501246.0284   23501247.4644  123499863.620 6  96233669.82942
     -2989.353       -2329.373
 06  5  5 14  3 30.0000000  0  9G 2G 4G 6G10G13G16G23G25G30
  20885319.197    20885318.9544   20885318.1124  109753084.089 8  85521896.47046
     -1030.297        -802.841
  22761979.091    22761979.5124   22761981.2454  119614991.181 7  93206499.82344
     -3102.632       -2417.648
  22330738.405    22330738.4054   22330739.7704  117348821.302 7  91440667.53844
      1970.381        1535.331
  22960703.835    22960703.7034   22960705.4334  120659284.759 6  94020273.58243
      3529.564        2750.298
  21839986.948    21839987.2624   21839987.6334  114769888.716 8  89431122.07245
       501.929         391.105
  24702958.668    24702957.5524   24702960.5674  129814887.876 5 101154503.24941
      3208.109        2499.783
  22718853.198    22718853.1184   22718851.4444  119388368.335 7  93029906.05244
     -1910.095       -1488.399
  24347343.109    24347343.9724   24347344.9604  127946126.607 6  99698296.70542
     -2319.182       -1807.163
  23518346.699    23518346.9304   23518348.8084  123589728.492 6  96303694.39742
     -3002.083       -2339.303
 06  5  5 14  4  0.0000000  0  9G 2G 4G 6G10G13G16G23G25G30
  20891259.942    20891259.6824   20891258.6914  109784302.427 8  85546222.43546
     -1051.289        -819.184
  22779721.098    22779721.3024   22779722.5344  119708223.986 7  93279148.72244
     -3113.509       -2426.111
  22319537.540    22319537.4324   22319538.7554  117289959.773 7  91394801.40844
      1953.433        1522.148
  22940584.720    22940584.2274   22940586.0704  120553555.908 6  93937887.45243
      3518.335        2741.537
  21837186.619    21837186.7254   21837187.5494  114755171.681 8  89419654.24445
       478.841         373.120
  24684674.081    24684672.6304   24684675.0894  129718804.459 5 101079633.09541
      3197.010        2491.186
  22729811.559    22729811.0734   22729809.7384  119445952.395 7  93074776.71844
     -1929.126       -1503.224
  24360622.348    24360621.6334   24360624.0284  128015905.031 6  99752669.48042
     -2332.930       -1817.882
  23535522.370    23535522.9984   23535524.1294  123679986.186 6  96374025.06342
     -3015.493       -2349.750
 06  5  5 14  4 30.0000000  0  9G 2G 4G 6G10G13G16G23G25G30
  20897317.387    20897317.2434   20897316.3974  109816134.749 8  85571026.80546
     -1071.271        -834.766
  22797522.083    22797522.5334   22797523.8804  119801770.512 7  93352042.13544
     -3123.387       -2433.797
  22308429.443    22308429.4634   22308430.8844  117231588.096 7  91349316.97044
      1937.482        1509.741
  22920527.586    22920527.2914   22920528.7724  120448154.259 6  93855756.31443
      3507.886        2733.397
  21834514.837    21834515.1074   21834515.9314  114741131.380 7  89408713.73645
       456.735         355.881
  24666448.637    24666448.8104   24666449.1904  129623039.320 5 101005010.89242
      3186.737        2483.165
  22740875.200    22740874.3614   22740873.1754  119504090.777 7  93120079.37944
     -1947.107       -1517.240
  24373975.771    24373976.3714   24373978.3874  128086079.129 6  99807350.55042
     -2345.652       -1827.760
  23552772.136    23552771.4554   23552772.8294  123770628.921 6  96444655.72942
     -3027.837       -2359.389
 06  5  5 14  5  0.0000000  0  9G 2G 4G 6G10G13G16G23G25G30
  20903489.640    20903489.5884   20903488.6674  109848570.321 8  85596301.21946
     -1091.447        -850.482
  22815381.030    22815381.5934   22815382.8134  119895618.624 7  93425170.46144
     -3133.517       -2441.694
  22297413.403    22297413.6234   22297415.0794  117173698.628 7  91304208.28544
      1921.558        1497.309
  22900530.359    22900530.3304   22900533.1394  120343072.509 6  93773874.42243
      3497.241        2725.163
  21831969.807    21831970.2054   21831970.7994  114727758.502 8  89398293.27545
       434.461         338.540
  24648284.888    24648284.4044   24648286.0154  129527585.780 5 100930631.52741
      3176.615        2475.244
  22752041.552    22752040.9604   22752039.7724  119562771.564 7  93165804.65644
     -1965.177       -1531.288
  24387403.359    24387401.9824   24387404.4624  128156637.076 6  99862330.73242
     -2358.307       -1837.627
  23570091.040    23570091.2354   23570091.6314  123861644.203 6  96515576.74042
     -3040.060       -2368.878
 06  5  5 14  5 30.0000000  0  9G 2G 4G 6G10G13G16G23G25G30
  20909777.651    20909777.4484   20909776.6484  109881613.584 8  85622049.21546
     -1112.235        -866.663
  22833297.780    22833298.0424   22833299.4084  119989771.569 7  93498536.35344
     -3144.065       -2449.905
  22286491.007    22286490.5854   22286492.1544  117116298.262 7  91259480.71944
      1904.429        1483.977
  22880597.207    22880595.7674   22880598.3444  120238318.180 6  93692247.67143
      3485.879        2716.238
  21829553.172    21829553.4644   21829554.0584  114715058.388 8  89388397.05845
       411.458         320.627
  24630183.692    24630182.6474   24630183.6204  129432451.656 5 100856501.04341
      3165.104        2466.380
  22763311.272    22763311.8354   22763310.2064  119621997.958 6  93211955.09544
     -1984.018       -1545.977
  24400903.215    24400902.5214   24400904.2844  128227581.645 6  99917612.16642
     -2371.967       -1848.343
  23587482.658    23587481.7334   23587482.4084  123953033.936 6  96586789.38742
     -3053.068       -2378.998
 06  5  5 14  6  0.0000000  0  9G 2G 4G 6G10G13G16G23G25G30
  20916184.881    20916184.8154   20916183.9144  109915284.214 8  85648286.05346
     -1132.086        -882.147
  22851276.719    22851275.8844   22851278.1294  120084248.107 7  93572154.43244
     -3153.769       -2457.470
  22275665.185    22275665.5844   22275667.0354  117059409.870 7  91215152.08444
      1888.327        1471.407
  22860729.382    22860729.3184   22860731.5204  120133914.989 6  93610894.47543
      3474.921        2707.747
  21827268.564    21827268.8454   21827269.3864  114703052.817 8  89379042.04545
       389.335         303.373
  24612144.044    24612142.7854   24612144.9254  129337660.748 5 100782638.03441
      3154.640        2458.180
  22774689.460    22774688.9934   22774687.7934  119681788.558 7  93258545.18044
     -2001.684       -1559.767
  24414480.405    24414480.3564   24414481.6314  128298931.796 6  99973209.68642
     -2384.412       -1857.956
  23604947.633    23604947.4764   23604949.5484  124044816.473 6  96658308.08042
     -3065.239       -2388.498
 06  5  5 14  6 30.0000000  0  9G 2G 4G 6G10G13G16G23G25G30
  20922705.815    20922705.4414   20922704.6314  109949550.816 8  85674987.32446
     -1152.875        -898.353
  22869310.195    22869310.0354   22869311.2404  120179015.372 7  93645999.01844
     -3164.523       -2465.891
  22264931.852    22264931.5554   22264933.4004  117003004.709 7  91171200.03244
      1871.411        1458.235
  22840924.089    22840923.8434   22840925.5044  120029835.422 7  93529793.61443
      3463.099        2698.530
  21825110.584    21825110.6084   21825111.2344  114691711.329 8  89370204.49845
       366.276         285.398
  24594166.278    24594165.9904   24594167.3364  129243185.050 5 100709020.64141
      3143.274        2449.315
  22786168.226    22786167.6854   22786166.6834  119742110.888 7  93305549.54344
     -2020.250       -1574.227
  24428129.325    24428129.3864   24428131.5934  128370654.544 6 100029097.50042
     -2397.637       -1868.314
  23622482.568    23622482.4234   23622482.9904  124136958.711 6  96730107.30442
     -3078.148       -2398.594
 06  5  5 14  7  0.0000000  0  9G 2G 4G 6G10G13G16G23G25G30
  20929341.544    20929341.2684   20929340.2834  109984422.310 8  85702159.91646
     -1172.664        -913.766
  22887400.571    22887400.1674   22887401.9724  120274081.553 6  93720076.52243
     -3173.815       -2473.097
  22254292.147    22254292.4934   22254294.1144  116947094.816 7  91127633.93344
      1855.246        1445.631
  22821182.436    22821181.4434   22821183.6154  119926091.776 6  93448954.39843
      3452.425        2690.176
  21823080.614    21823080.9414   21823081.4994  114681044.737 8  89361892.89145
       344.091         268.125
  24576249.902    24576251.1344   24576251.3894  129149037.941 5 100635659.30441
      3132.687        2441.066
  22797749.279    22797750.0344   22797748.7424  119802973.080 7  93352974.57444
     -2037.901       -1587.976
  24441850.314    24441849.6244   24441851.5134  128442757.937 6 100085281.91442
     -2409.871       -1877.799
  23640085.850    23640085.0814   23640087.2244  124229466.938 6  96802191.47342
     -3089.721       -2407.548
 06  5  5 14  7 30.0000000  0  9G 2G 4G 6G10G13G16G23G25G30
  20936091.783    20936091.7754   20936090.6544  110019895.697 8  85729801.49946
     -1193.095        -929.692
  22905546.721    22905546.7084   22905548.4104  120369442.118 6  93794383.40243
     -3184.049       -2481.062
  22243746.785    22243746.9354   22243748.8764  116891680.015 7  91084453.63244
      1838.327        1432.431
  22801504.758    22801504.3764   22801506.2594  119822684.470 6  93368377.21943
      3440.738        2681.146
  21821179.355    21821179.1304   21821179.6014  114671050.928 8  89354105.44045
       321.323         250.367
  24558395.602    24558396.8614   24558397.4174  129055219.899 6 100562554.39742
      3121.495        2432.313
  22809433.386    22809433.4044   22809432.7394  119864370.996 7  93400817.07244
     -2055.979       -1602.063
  24455642.149    24455641.9984   24455643.6664  128515237.674 6 100141759.62742
     -2422.629       -1887.725
  23657757.703    23657758.2784   23657759.5424  124322337.448 6  96874558.13042
     -3102.169       -2417.262
 06  5  5 14  8  0.0000000  0  9G 2G 4G 6G10G13G16G23G25G30
  20942957.191    20942957.1374   20942955.9164  110055973.087 8  85757913.76246
     -1212.631        -944.908
  22923749.144    22923749.5804   22923751.3284  120465098.321 7  93868920.60343
     -3193.178       -2488.194
  22233297.365    22233297.0334   22233298.8084  116836764.944 7  91041662.66444
      1821.962        1419.721
  22781891.378    22781890.8064   22781893.2784  119719619.734 6  93288067.04943
      3429.876        2672.658
  21819405.458    21819405.8494   21819406.7344  114661733.661 8  89346845.22345
       299.411         233.314
  24540608.227    24540608.1484   24540608.5124  128961736.577 5 100489710.28142
      3110.594        2423.808
  22821219.036    22821219.3274   22821218.2774  119926305.591 6  93449077.76944
     -2073.296       -1615.549
  24469505.984    24469506.8494   24469508.2834  128588094.811 6 100198531.36042
     -2434.903       -1897.351
  23675499.346    23675499.5504   23675501.3274  124415570.166 6  96947207.17842
     -3113.805       -2426.332
 06  5  5 14  8 30.0000000  0  9G 2G 4G 6G10G13G16G23G25G30
  20949937.014    20949937.0274   20949935.9794  110092653.312 8  85786495.75646
     -1233.369        -961.059
  22942008.894    22942008.4384   22942009.9134  120561048.407 6  93943686.92143
     -3203.891       -2496.518
  22222942.455    22222942.5194   22222944.4274  116782351.655 7  90999262.72244
      1804.859        1406.399
  22762345.361    22762344.6784   22762346.3664  119616900.020 6  93208025.75643
      3417.577        2663.075
  21817761.539    21817761.7724   21817762.6954  114653093.197 8  89340112.35545
       276.033         215.107
  24522882.728    24522882.8204   24522884.3784  128868591.195 5 100417129.47341
      3098.556        2414.503
  22833107.322    22833106.6004   22833105.5794  119988774.701 6  93497754.92844
     -2091.861       -1630.011
  24483442.628    24483442.2824   24483443.9264  128661327.051 6 100255595.40542
     -2447.921       -1907.474
  23693309.421    23693309.7804   23693310.7774  124509161.946 6  97020136.00642
     -3126.299       -2436.084
 06  5  5 14  9  0.0000000  0  9G 2G 4G 6G10G13G16G23G25G30
  20957031.738    20957031.5064   20957030.6754  110129935.788 8  85815547.03846
     -1252.856        -976.250
  22960323.091    22960322.2834   22960324.2084  120657290.308 7  94018680.67043
     -3212.986       -2503.632
  22212684.218    22212683.8844   22212685.8314  116728442.319 7  90957255.48744
      1788.524        1393.669
  22742864.157    22742863.5954   22742865.9174  119514528.096 6  93128255.43843
      3406.437        2654.375
  21816246.343    21816246.7924   21816247.3044  114645130.356 8  89333907.52145
       254.083         198.003
  24505223.804    24505222.9204   24505223.8524  128775787.136 6 100344814.66241
      3087.768        2406.059
  22845096.258    22845095.9034   22845094.9314  120051776.887 7  93546847.49944
     -2108.902       -1643.275
  24497449.124    24497448.7824   24497450.2134  128734932.736 6 100312950.46042
     -2459.686       -1916.620
  23711187.106    23711186.8954   23711188.5314  124603110.157 6  97093342.39942
     -3137.620       -2444.932
 06  5  5 14  9 30.0000000  0  9G 2G 4G 6G10G13G16G23G25G30
  20964240.849    20964240.7104   20964239.6714  110167819.612 8  85845066.90446
     -1273.124        -992.041
  22978691.384    22978691.7104   22978693.6024  120753822.018 6  94093900.09043
     -3222.961       -2511.380
  22202521.316    22202521.7084   22202523.1384  116675039.007 7  90915642.51144
      1771.383        1380.307
  22723450.356    22723449.7694   22723451.8744  119412507.200 6  93048758.63043
      3394.590        2645.131
  21814859.873    21814860.3984   21814860.9424  114637845.585 8  89328231.06045
       231.107         180.089
  24487629.078    24487627.9684   24487630.0944  128683327.093 6 100272767.92042
      3075.701        2396.694
  22857186.263    22857186.0014   22857184.3524  120115310.184 7  93596353.90344
     -2127.045       -1657.442
  24511526.350    24511526.6954   24511528.4664  128808909.821 6 100370594.93742
     -2472.393       -1926.560
  23729131.853    23729131.9214   23729133.7574  124697411.932 6  97166824.22842
     -3149.552       -2454.209
 06  5  5 14 10  0.0000000  0  9G 2G 4G 6G10G13G16G23G25G30
  20971565.937    20971565.8874   20971564.7244  110206313.147 8  85875061.86646
     -1293.287       -1007.751
  22997117.570    22997117.8024   22997119.5144  120850651.104 6  94169351.32043
     -3232.731       -2519.012
  22192457.547    22192457.4554   22192459.4574  116622153.037 7  90874432.72944
      1754.349        1367.027
  22704105.157    22704104.6244   22704106.7104  119310849.488 6  92969544.85643
      3382.332        2635.606
  21813605.014    21813605.1734   21813605.5474  114631248.617 8  89323090.50645
       208.470         162.460
  24470101.812    24470099.8954   24470103.1424  128591223.707 5 100200999.06642
      3064.060        2387.625
  22869379.002    22869378.3334   22869377.3604  120179381.814 7  93646279.79044
     -2144.666       -1671.142
  24525675.602    24525675.9354   24525676.9874  128883265.593 6 100428534.48142
     -2484.837       -1936.222
  23747146.108    23747145.4624   23747147.4324  124792074.729 6  97240587.35542
     -3161.555       -2463.514
 06  5  5 14 10 30.0000000  0  9G 2G 4G 6G10G13G16G23G25G30
  20979005.631    20979005.6134   20979004.4694  110245409.110 8  85905526.22046
     -1313.371       -1023.408
  23015598.350    23015599.2284   23015600.5014  120947769.399 6  94245027.96943
     -3242.147       -2526.345
  22182491.250    22182491.2504   22182493.3884  116569780.105 7  90833622.68044
      1737.041        1353.537
  22684829.370    22684828.2424   22684830.6774  119209551.354 6  92890611.31343
      3370.421        2626.286
  21812479.193    21812479.4914   21812480.2574  114625333.774 8  89318481.54145
       185.634         144.658
  24452642.287    24452641.7824   24452644.0324  128499473.348 6 100129505.30542
      3052.152        2378.348
  22881671.607    22881671.5684   22881670.3354  120243983.505 6  93696618.73644
     -2162.344       -1684.939
  24539895.988    24539895.5634   24539898.0214  128957991.470 6 100486762.37142
     -2497.229       -1945.908
  23765225.518    23765226.7954   23765228.2514  124887088.598 6  97314623.91642
     -3173.111       -2472.553
 06  5  5 14 11  0.0000000  0  9G 2G 4G 6G10G13G16G23G25G30
  20986559.479    20986559.3444   20986558.4174  110285104.979 8  85936458.07446
     -1333.304       -1038.949
  23034134.489    23034134.6834   23034135.8654  121045172.760 6  94320926.58743
     -3251.643       -2533.744
  22172622.659    22172622.6464   22172624.7694  116517920.417 7  90793212.54045
      1719.960        1340.234
  22665620.654    22665619.9644   22665622.4224  119108613.792 6  92811958.67443
      3358.438        2616.952
  21811483.435    21811483.7754   21811484.0134  114620099.495 8  89314402.92245
       162.911         126.929
  24435250.381    24435249.4744   24435252.1504  128408077.438 6 100058287.77142
      3040.373        2369.191
  22894065.299    22894064.7134   22894064.3854  120309112.081 7  93747368.24344
     -2179.921       -1698.634
  24554185.357    24554185.7554   24554187.0994  129033084.101 6 100545276.05942
     -2509.361       -1955.301
  23783372.594    23783373.9524   23783375.3474  124982450.237 6  97388931.54742
     -3184.547       -2481.500
 06  5  5 14 11 30.0000000  0  9G 2G 4G 6G10G13G16G23G25G30
  20994226.099    20994225.9324   20994225.0594  110325393.918 8  85967852.10146
     -1353.259       -1054.496
  23052722.836    23052722.6704   23052724.0964  121142854.226 7  94397041.99743
     -3261.048       -2541.096
  22162851.108    22162851.0264   22162853.0824  116466570.183 7  90753199.39245
      1702.762        1326.839
  22646481.192    22646480.6234   22646483.3004  119008033.736 7  92733584.59943
      3346.217        2607.453
  21810615.698    21810615.9544   21810616.5504  114615540.159 8  89310850.25245
       140.348         109.362
  24417925.006    24417924.1194   24417926.5734  128317033.113 6  99987344.16642
      3028.506        2359.816
  22906558.299    22906557.1034   22906556.2904  120374759.194 7  93798521.80144
     -2197.254       -1712.146
  24568543.091    24568543.0234   24568545.4144  129108535.368 5 100604069.22842
     -2521.431       -1964.719
  23801584.677    23801584.7554   23801585.8094  125078150.428 6  97463502.87042
     -3196.173       -2490.559
 06  5  5 14 12  0.0000000  0  9G 2G 4G 6G10G13G16G23G25G30
  21002005.495    21002005.3894   21002004.3304  110366274.640 8  85999707.19246
     -1372.704       -1069.638
  23071363.039    23071363.5004   23071364.7934  121240811.229 6  94473372.05943
     -3270.018       -2548.081
  22153176.752    22153176.6604   22153178.8174  116415730.988 7  90713584.47845
      1686.044        1313.801
  22627409.849    22627409.1434   22627411.7644  118907813.802 7  92655491.10543
      3334.623        2598.392
  21809876.243    21809876.8904   21809877.4124  114611655.904 8  89307823.55845
       118.002          91.946
  24400669.845    24400666.7714   24400668.7914  128226343.298 6  99916676.81842
      3016.909        2350.813
  22919148.113    22919147.6374   22919146.7744  120440922.900 7  93850077.94544
     -2214.233       -1725.392
  24582968.042    24582968.5714   24582969.7924  129184343.042 6 100663140.07742
     -2532.959       -1973.722
  23819860.178    23819860.2784   23819860.9284  125174187.216 6  97538336.87642
     -3206.803       -2498.772
 06  5  5 14 12 30.0000000  0  9G 2G 4G 6G10G13G16G23G25G30
  21009897.297    21009897.0174   21009896.0334  110407745.310 8  86032022.00846
     -1392.236       -1084.861
  23090055.549    23090056.1264   23090057.7394  121339040.966 7  94549914.66843
     -3278.879       -2554.988
  22143599.901    22143599.9974   22143602.1444  116365403.875 7  90674368.57145
      1668.987        1300.503
  22608407.895    22608407.1834   22608409.5114  118807955.927 7  92577679.74543
      3322.590        2589.048
  21809266.171    21809266.1164   21809266.7334  114608446.682 8  89305322.91645
        95.635          74.519
  24383475.490    24383477.2854   24383479.8394  128136009.861 5  99846287.14742
      3005.166        2341.625
  22931836.632    22931836.1594   22931835.5174  120507599.905 7  93902034.03844
     -2231.095       -1738.494
  24597462.096    24597462.4254   24597464.1154  129260504.280 6 100722486.44042
     -2544.600       -1982.833
  23838197.794    23838199.6374   23838199.5894  125270556.293 6  97613429.71942
     -3217.726       -2507.309
 06  5  5 14 13  0.0000000  0  9G 2G 4G 6G10G13G16G23G25G30
  21017902.703    21017902.8804   21017901.8384  110449815.594 8  86064804.00746
     -1412.378       -1100.545
  23108801.892    23108801.9754   23108803.6934  121437552.522 6  94626676.89843
     -3288.378       -2562.375
  22134122.733    22134122.8894   22134124.5134  116315601.652 7  90635561.64945
      1651.255        1286.712
  22589477.143    22589476.7404   22589478.8514  118708473.899 7  92500161.31944
      3309.750        2579.014
  21808785.960    21808786.1394   21808786.5324  114605923.340 8  89303356.69145
        72.578          56.567
  24366357.686    24366358.4014   24366359.7664  128046046.736 5  99776186.02042
      2992.518        2331.828
  22944624.327    22944623.7724   22944622.8644  120574799.445 7  93954397.30844
     -2248.772       -1752.299
  24612024.204    24612024.7054   24612025.5644  129337027.846 6 100782115.16242
     -2556.789       -1992.293
  23856601.381    23856601.8134   23856602.6474  125367265.349 6  97688787.31942
     -3229.308       -2516.336
 06  5  5 14 13 30.0000000  0  9G 2G 4G 6G10G13G16G23G25G30
  21026021.634    21026021.3584   21026020.4194  110492478.814 8  86098048.06946
     -1432.436       -1116.187
  23127600.385    23127600.1834   23127602.2454  121536337.905 6  94703652.45943
     -3297.800       -2569.683
  22124745.187    22124744.9504   22124746.5844  116266320.443 7  90597160.71845
      1633.603        1272.945
  22570617.012    22570616.6234   22570618.5844  118609364.469 7  92422933.20343
      3296.984        2569.052
  21808434.574    21808434.9974   21808435.4974  114604080.170 8  89301920.49245
        49.611          38.662
  24349307.498    24349307.4124   24349309.6954  127956451.126 6  99706371.30742
      2979.976        2322.014
  22957509.995    22957509.4704   22957508.6704  120642513.591 7  94007161.57844
     -2266.183       -1765.860
  24626653.555    24626654.2044   24626655.9224  129413905.681 6 100842019.94042
     -2568.857       -2001.721
  23875067.489    23875068.1114   23875068.6624  125464306.177 6  97764403.47742
     -3240.624       -2525.178
 06  5  5 14 14  0.0000000  0  9G 2G 4G 6G10G13G16G23G25G30
  21034252.301    21034252.2584   21034251.2374  110535732.685 8  86131752.38846
     -1451.905       -1131.362
  23146449.741    23146449.7804   23146451.9874  121635394.236 6  94780839.03543
     -3306.504       -2576.501
  22115466.693    22115466.1114   22115467.8854  116217560.931 7  90559166.30245
      1616.374        1259.503
  22551829.036    22551828.0244   22551830.0384  118510629.264 7  92345996.67343
      3284.595        2559.427
  21808213.276    21808213.7824   21808214.4204  114602916.638 8  89301013.84445
        27.248          21.231
  24332330.221    24332327.9414   24332330.0644  127867224.906 5  99636844.40842
      2967.862        2312.669
  22970492.467    22970492.7704   22970491.1644  120710739.193 7  94060324.37044
     -2282.769       -1778.810
  24641349.728    24641348.6694   24641351.9684  129491134.862 6 100902198.49242
     -2580.330       -2010.572
  23893596.930    23893596.5584   23893597.2494  125561675.283 6  97840275.40142
     -3251.357       -2533.529
 06  5  5 14 14 30.0000000  0  9G 2G 4G 6G10G13G16G23G25G30
  21042594.449    21042594.1754   21042593.2964  110579570.040 8  86165911.39046
     -1471.280       -1146.439
  23165349.265    23165349.8514   23165351.9934  121734713.852 6  94858230.99143
     -3315.300       -2583.361
  22106285.969    22106285.7974   22106287.9434  116169318.958 7  90521575.26445
      1599.135        1246.074
  22533111.019    22533110.0154   22533111.4254  118412265.133 7  92269349.34744
      3272.263        2549.826
  21808120.198    21808120.2954   21808120.8294  114602426.147 8  89300631.62545
         4.889           3.823
  24315417.858    24315419.1624   24315420.8244  127778364.719 5  99567602.73342
      2955.760        2303.173
  22983571.136    22983571.3154   22983569.9474  120779468.015 7  94113879.27444
     -2299.542       -1791.857
  24656111.463    24656111.7164   24656112.0854  129568706.984 6 100962644.29242
     -2591.561       -2019.357
  23912185.701    23912187.3724   23912187.7854  125659363.741 6  97916396.28642
     -3261.869       -2541.706
 06  5  5 14 15  0.0000000  0  9G 2G 4G 6G10G13G16G23G25G30
  21051046.721    21051046.7434   21051045.6224  110623988.251 8  86200522.99046
     -1490.866       -1161.708
  23184299.793    23184299.6374   23184301.1144  121834292.830 6  94935824.90643
     -3324.199       -2590.274
  22097204.241    22097204.1384   22097206.1394  116121595.013 7  90484387.83045
      1581.615        1232.429
  22514463.104    22514462.8954   22514464.5464  118314273.308 7  92192992.16844
      3259.583        2539.950
  21808154.857    21808154.8324   21808155.4524  114602607.860 8  89300773.23645
       -17.790         -13.852
  24298580.781    24298579.7924   24298581.2644  127689872.318 6  99498647.64642
      2943.094        2293.353
  22996745.199    22996745.2394   22996743.8524  120848696.301 7  94167823.39144
     -2316.472       -1805.016
  24670937.211    24670937.1404   24670938.8984  129646618.639 6 101023354.62142
     -2603.185       -2028.434
  23930835.188    23930835.2314   23930837.6644  125757367.345 6  97992762.77942
     -3272.523       -2550.036
 06  5  5 14 15 30.0000000  0  9G 2G 4G 6G10G13G16G23G25G30
  21059611.241    21059611.1414   21059610.0874  110668995.125 8  86235593.34946
     -1510.620       -1177.101
  23203299.003    23203299.3114   23203301.4494  121934138.040 6  95013626.28843
     -3333.085       -2597.209
  22088223.097    22088223.2934   22088225.1864  116074399.428 7  90447612.05345
      1563.740        1218.516
  22495888.827    22495888.4974   22495890.1854  118216665.267 7  92116933.98744
      3246.548        2529.779
  21808318.662    21808319.1904   21808319.6244  114603470.658 7  89301445.51345
       -40.694         -31.735
  24281814.052    24281812.9414   24281814.6024  127601759.187 6  99429988.07642
      2930.214        2283.301
  23010014.983    23010014.7104   23010013.4534  120918431.057 7  94222162.16644
     -2333.434       -1818.271
  24685830.377    24685829.7074   24685832.5024  129724876.362 6 101084334.62042
     -2614.849       -2037.601
  23949544.666    23949546.4124   23949547.7964  125855692.290 6  98069379.69942
     -3283.304       -2558.373
 06  5  5 14 16  0.0000000  0  9G 2G 4G 6G10G13G16G23G25G30
  21068287.490    21068287.3374   21068286.4984  110714589.092 8  86271121.05446
     -1529.662       -1191.935
  23222349.102    23222348.9814   23222351.1114  122034248.284 6  95091634.27343
     -3341.373       -2603.646
  22079343.291    22079343.3874   22079345.2704  116027734.537 7  90411249.82245
      1546.600        1205.148
  22477387.996    22477387.6804   22477389.8234  118119444.194 7  92041177.30844
      3234.198        2520.145
  21808612.899    21808612.7514   21808613.6204  114605015.153 7  89302649.00745
       -62.884         -49.013
  24265117.765    24265117.7454   24265119.3764  127514028.891 6  99361626.86042
      2918.131        2273.883
  23023381.075    23023380.6294   23023379.6114  120988670.593 6  94276894.28344
     -2349.641       -1830.886
  24700787.008    24700786.8634   24700788.8174  129803478.549 6 101145583.02642
     -2625.585       -2045.921
  23968317.170    23968316.8684   23968318.5294  125954335.802 6  98146244.67042
     -3293.248       -2566.144
 06  5  5 14 16 30.0000000  0  9G 2G 4G 6G10G13G16G23G25G30
  21077074.843    21077074.8604   21077073.8104  110760767.388 8  86307104.14646
     -1548.862       -1206.894
  23241449.421    23241449.1924   23241451.5164  122134618.828 6  95169845.02743
     -3349.861       -2610.240
  22070563.913    22070563.9724   22070565.8054  115981599.438 7  90375300.46545
      1529.238        1191.635
  22458961.799    22458960.8744   22458963.0274  118022610.370 6  91965722.50244
      3221.559        2510.291
  21809035.602    21809036.0594   21809036.3794  114607238.653 8  89304381.57045
       -85.290         -66.431
  24248495.631    24248496.1294   24248498.1414  127426681.653 6  99293564.12442
      2905.408        2264.007
  23036842.229    23036842.3324   23036841.1044  121059410.057 6  94332015.96044
     -2366.059       -1843.666
  24715809.349    24715809.6684   24715811.3004  129882420.549 6 101207096.27042
     -2636.650       -2054.554
  23987147.232    23987148.4224   23987149.8254  126053293.093 6  98223354.39242
     -3303.486       -2574.146
 06  5  5 14 17  0.0000000  0  9G 2G 4G 6G10G13G16G23G25G30
  21085971.696    21085971.6444   21085970.6454  110807520.615 8  86343535.27846
     -1568.286       -1222.045
  23260597.385    23260597.7304   23260599.0134  122235239.327 6  95248250.48143
     -3358.443       -2616.957
  22061884.486    22061884.3914   22061886.0024  115935987.833 7  90339758.98145
      1511.335        1177.652
  22440607.064    22440606.4334   22440608.5794  117926158.057 7  91890564.85644
      3208.457        2500.116
  21809586.857    21809586.8524   21809587.5614  114610133.191 8  89306637.02545
      -107.906         -84.089
  24231946.673    24231946.0734   24231948.2174  127339712.050 6  99225795.63542
      2892.467        2253.890
  23050396.159    23050396.8724   23050395.1634  121130639.051 6  94387519.08844
     -2382.651       -1856.619
  24730893.868    24730893.6504   24730896.2304  129961691.900 5 101268866.12142
     -2648.041       -2063.427
  24006036.199    24006036.8944   24006037.8764  126152552.884 6  98300699.73042
     -3313.962       -2582.272
 06  5  5 14 17 30.0000000  0  9G 2G 4G 6G10G13G16G23G25G30
  21094978.601    21094978.5224   21094977.5754  110854852.432 8  86380417.25946
     -1587.373       -1236.911
  23279793.427    23279792.9124   23279794.1584  122336113.585 6  95326853.85543
     -3366.919       -2623.579
  22053305.410    22053305.5274   22053307.2204  115890906.483 7  90304630.67145
      1493.825        1164.022
  22422326.304    22422326.6734   22422328.0154  117830095.330 7  91815710.83644
      3195.549        2490.042
  21810266.491    21810266.4434   21810266.8934  114613703.678 8  89309419.21645
      -130.349        -101.571
  24215473.133    24215469.9664   24215470.7874  127253128.433 6  99158327.92342
      2879.558        2243.826
  23064045.298    23064044.6124   23064043.6444  121202360.682 6  94443406.08744
     -2399.021       -1869.378
  24746042.692    24746043.2154   24746043.6674  130041295.663 6 101330895.04442
     -2659.051       -2072.063
  24024983.111    24024983.9764   24024984.1754  126252117.261 6  98378282.30042
     -3323.924       -2590.095
 06  5  5 14 18  0.0000000  0  9G 2G 4G 6G10G13G16G23G25G30
  21104095.435    21104095.3944   21104094.4334  110902761.386 8  86417748.83746
     -1607.158       -1252.315
  23299036.588    23299036.3704   23299037.9094  122437239.101 6  95405652.88043
     -3375.407       -2630.215
  22044828.160    22044828.2184   22044830.0034  115846357.409 7  90269917.12145
      1475.447        1149.710
  22404121.336    22404120.7344   22404123.3904  117734424.909 7  91741162.45244
      3181.914        2479.411
  21811074.418    21811074.3904   21811074.8734  114617950.083 8  89312728.13945
      -153.409        -119.533
  24199067.339    24199066.8204   24199069.2834  127166933.453 5  99091163.04642
      2866.128        2233.324
  23077785.486    23077786.4134   23077785.3424  121274572.805 7  94499675.29243
     -2415.795       -1882.445
  24761251.937    24761251.7314   24761255.4164  130121229.692 6 101393181.28342
     -2670.524       -2080.931
  24043986.702    24043987.0734   24043989.2344  126351984.199 6  98456100.72842
     -3334.400       -2598.254
 06  5  5 14 18 30.0000000  0  9G 2G 4G 6G10G13G16G23G25G30
  21113322.377    21113322.3404   21113321.2364  110951249.378 8  86455531.68146
     -1626.358       -1267.295
  23318328.137    23318327.6244   23318329.5714  122538617.109 6  95484648.81643
     -3383.849       -2636.761
  22036453.051    22036452.9324   22036454.7034  115802344.949 7  90235621.73745
      1457.489        1135.696
  22385992.378    22385991.2174   22385993.2664  117639152.195 7  91666924.00544
      3168.639        2469.068
  21812011.762    21812011.7764   21812012.2414  114622875.484 8  89316566.09945
      -175.931        -137.063
  24182739.976    24182740.0654   24182742.0354  127081133.010 5  99024305.61042
      2852.879        2223.027
  23091621.916    23091621.9334   23091619.5144  121347275.934 7  94556327.12344
     -2432.099       -1895.149
  24776526.756    24776526.7254   24776528.9534  130201494.378 6 101455725.15542
     -2681.589       -2089.562
  24063047.685    24063048.9914   24063051.4154  126452152.961 6  98534154.21642
     -3344.499       -2606.115
 06  5  5 14 19  0.0000000  0  9G 2G 4G 6G10G13G16G23G25G30
  21122659.514    21122659.3034   21122658.1944  111000316.231 8  86493765.69246
     -1645.422       -1282.151
  23337667.719    23337667.6524   23337669.7804  122640246.603 6  95563840.56343
     -3392.133       -2643.197
  22028180.564    22028180.2174   22028181.9964  115758871.906 7  90201746.64445
      1439.882        1121.982
  22367938.694    22367937.7884   22367940.1794  117544281.171 7  91592998.57444
      3155.444        2458.776
  21813078.300    21813078.4904   21813078.8914  114628480.828 8  89320933.90545
      -198.339        -154.563
  24166488.009    24166488.0044   24166490.5564  126995730.972 6  98957758.63442
      2839.923        2212.871
  23105550.235    23105549.2944   23105548.2804  121420469.099 7  94613360.79043
     -2448.107       -1907.612
  24791863.176    24791861.7334   24791866.3694  130282089.253 6 101518526.36142
     -2692.165       -2097.801
  24082167.148    24082166.6894   24082169.3594  126552622.703 6  98612442.23742
     -3354.200       -2613.674
 06  5  5 14 19 30.0000000  0  9G 2G 4G 6G10G13G16G23G25G30
  21132105.121    21132105.0554   21132104.0464  111049953.993 8  86532444.50546
     -1664.207       -1296.790
  23357052.975    23357053.3364   23357055.1364  122742119.087 6  95643221.64543
     -3399.775       -2649.148
  22020009.144    22020009.3064   22020011.2464  115715933.525 7  90168288.19145
      1422.246        1108.243
  22349960.962    22349959.8604   22349962.2054  117449807.844 7  91519383.02944
      3142.303        2448.550
  21814273.416    21814273.5544   21814273.8314  114634759.638 8  89325826.44845
      -220.541        -171.848
  24150313.196    24150311.6294   24150313.2184  126910723.722 6  98891519.24342
      2826.976        2202.891
  23119568.827    23119569.5284   23119567.6224  121494143.589 6  94670769.53143
     -2463.802       -1919.866
  24807261.272    24807260.9454   24807262.5354  130363005.342 6 101581577.87642
     -2702.530       -2105.832
  24101341.713    24101341.4914   24101343.3604  126653383.964 6  98690957.52342
     -3363.604       -2621.013
 06  5  5 14 20  0.0000000  0  9G 2G 4G 6G10G13G16G23G25G30
  21141659.713    21141659.7564   21141658.8594  111100164.415 8  86571569.53546
     -1683.786       -1312.049
  23376484.920    23376485.6594   23376487.5144  122844235.446 6  95722792.62043
     -3408.452       -2655.950
  22011940.846    22011941.3434   22011942.8224  115673534.648 7  90135250.13545
      1403.709        1093.796
  22332059.687    22332059.3974   22332061.0614  117355738.213 7  91446082.02844
      3128.333        2437.648
  21815596.250    21815596.7834   21815597.2894  114641714.771 8  89331246.00545
      -243.715        -189.929
  24134213.277    24134212.6404   24134213.9624  126826116.837 6  98825591.84142
      2812.843        2191.809
  23133680.750    23133680.2194   23133679.0014  121568300.359 6  94728554.06343
     -2480.563       -1932.914
  24822720.161    24822720.8764   24822722.5614  130444243.439 6 101644880.24942
     -2713.816       -2114.688
  24120571.902    24120571.6154   24120572.3774  126754437.040 6  98769700.15142
     -3373.771       -2628.915
 06  5  5 14 20 30.0000000  0  9G 2G 4G 6G10G13G16G23G25G30
  21151322.438    21151322.2254   21151321.6024  111150941.709 8  86611136.22546
     -1702.743       -1326.829
  23395962.237    23395962.1964   23395964.1074  122946589.954 6  95802549.34943
     -3416.405       -2662.133
  22003974.753    22003975.0974   22003976.5554  115631672.465 7  90102630.26745
      1385.823        1079.839
  22314234.916    22314234.3904   22314236.9474  117262070.512 7  91373094.27244
      3114.949        2427.218
  21817047.989    21817048.3294   21817048.7314  114649341.698 8  89337189.11645
      -266.130        -207.387
  24118187.620    24118188.3134   24118189.9174  126741909.564 6  98759975.83542
      2799.668        2181.556
  23147882.897    23147882.5044   23147881.3964  121642932.541 6  94786709.06943
     -2496.237       -1945.152
  24838238.223    24838239.5194   24838241.2124  130525797.105 5 101708428.55542
     -2724.115       -2122.708
  24139856.258    24139855.7894   24139858.2084  126855774.497 6  98848664.35342
     -3383.194       -2636.260
 06  5  5 14 21  0.0000000  0  9G 2G 4G 6G10G13G16G23G25G30
  21161094.871    21161094.8134   21161093.9004  111202296.451 8  86651152.97646
     -1721.950       -1341.785
  23415488.010    23415487.6084   23415488.9974  123049192.096 6  95882498.98743
     -3424.753       -2668.629
  21996113.156    21996113.7924   21996115.1054  115590360.184 7  90070438.84645
      1367.334        1065.456
  22296490.188    22296489.5984   22296491.5084  117168818.660 7  91300430.46644
      3100.878        2416.297
  21818629.292    21818629.4194   21818629.7464  114657651.852 7  89343664.58645
      -288.943        -225.145
  24102241.834    24102241.8444   24102243.8874  126658116.078 6  98694682.31142
      2785.646        2170.589
  23162177.335    23162176.9304   23162176.0414  121718049.587 7  94845241.85943
     -2512.615       -1957.879
  24853820.142    24853820.4604   24853822.8394  130607675.675 5 101772229.92342
     -2735.299       -2131.405
  24159195.271    24159195.7244   24159196.1204  126957405.856 6  98927857.59142
     -3393.252       -2644.090
 06  5  5 14 21 30.0000000  0  9G 2G 4G 6G10G13G16G23G25G30
  21170976.463    21170976.3514   21170975.5274  111254224.288 8  86691616.17446
     -1740.834       -1356.508
  23435058.323    23435057.9794   23435059.8454  123152037.590 6  95962638.42943
     -3432.596       -2674.752
  21988356.560    21988356.4804   21988358.3044  115549596.840 7  90038675.23045
      1349.328        1051.408
  22278823.859    22278823.3404   22278825.5554  117075982.947 7  91228090.96244
      3087.214        2405.602
  21820339.654    21820340.3614   21820340.8324  114666642.258 8  89350670.12145
      -311.431        -242.694
  24086377.397    24086376.0334   24086376.4864  126574736.631 6  98629711.39942
      2772.031        2159.967
  23176561.582    23176562.4734   23176560.8774  121793646.717 6  94904148.74343
     -2528.310       -1970.118
  24869462.148    24869461.5254   24869464.4794  130689874.449 5 101836280.85342
     -2745.484       -2139.307
  24178590.940    24178590.4494   24178590.4524  127059324.952 6  99007275.00642
     -3402.358       -2651.194
 06  5  5 14 22  0.0000000  0  9G 2G 4G 6G10G13G16G23G25G30
  21180965.705    21180965.6604   21180964.5314  111306718.229 8  86732520.60446
     -1759.274       -1370.858
  23454673.971    23454673.4144   23454675.5114  123255117.672 6  96042960.60143
     -3439.935       -2680.485
  21980703.270    21980703.2044   21980704.8124  115509377.974 7  90007335.86145
      1331.416        1037.469
  22261236.307    22261235.8814   22261237.8384  116983559.867 7  91156072.95244
      3073.806        2395.165
  21822179.071    21822179.3024   21822179.8174  114676306.635 8  89358200.82445
      -333.447        -259.814
  24070588.695    24070586.8994   24070587.6594  126491767.675 6  98565060.34942
      2758.599        2149.592
  23191037.550    23191038.1614   23191036.5484  121869715.550 6  94963423.18443
     -2543.602       -1982.021
  24885161.539    24885161.3604   24885166.7284  130772385.271 5 101900574.99242
     -2755.880       -2147.474
  24198037.646    24198037.6944   24198039.7624  127161523.459 6  99086910.18442
     -3411.560       -2658.336
 06  5  5 14 22 30.0000000  0  9G 2G 4G 6G10G13G16G23G25G30
  21191062.391    21191062.2084   21191061.1814  111359775.727 8  86773864.04446
     -1778.331       -1385.708
  23474333.416    23474334.1324   23474335.6934  123358429.738 6  96123463.40843
     -3447.828       -2686.614
  21973153.638    21973153.4594   21973155.1844  115469704.139 7  89976421.17545
      1313.094        1023.158
  22243727.934    22243727.0444   22243729.3224  116891551.261 7  91084377.93244
      3059.729        2384.195
  21824146.240    21824146.1124   21824146.8504  114686643.837 8  89366255.81845
      -356.119        -277.493
  24054877.141    24054877.3204   24054878.4584  126409211.288 5  98500730.78042
      2744.837        2138.841
  23205602.682    23205602.8784   23205601.0034  121946252.778 6  95023062.61543
     -2559.235       -1994.208
  24900923.082    24900922.4854   24900925.6564  130855204.870 5 101965109.70042
     -2765.753       -2155.141
  24217535.850    24217537.2974   24217540.4774  127263997.347 6  99166759.87842
     -3420.391       -2665.256
 06  5  5 14 23  0.0000000  0  9G 2G 4G 6G10G13G16G23G25G30
  21201264.660    21201264.5314   21201263.5794  111413389.008 8  86815640.59946
     -1796.819       -1400.101
  23494035.172    23494035.7654   23494037.3194  123461965.499 6  96204140.62643
     -3455.274       -2692.402
  21965706.864    21965706.6574   21965708.1484  115430570.620 7  89945927.54145
      1294.924        1009.044
  22226297.257    22226297.0674   22226298.2654  116799953.247 7  91013002.82744
      3045.958        2373.501
  21826240.041    21826240.3774   21826240.7944  114697647.123 8  89374829.81145
      -378.406        -294.854
  24039245.050    24039245.4794   24039246.2904  126327063.576 6  98436719.67942
      2730.730        2127.866
  23220254.094    23220254.4334   23220253.3234  122023249.921 6  95083060.40943
     -2574.795       -2006.332
  24916741.266    24916741.6104   24916742.9484  130938324.467 6 102029878.21142
     -2776.070       -2163.205
  24237086.862    24237087.4104   24237089.4864  127366737.597 5  99246817.05842
     -3429.555       -2672.368
